<?xml version="1.0" encoding="UTF-8" standalone="no" ?>
<gpx xmlns="http://www.topografix.com/GPX/1/1" xmlns:xsi="http://www.w3.org/2001/XMLSchema-instance" xsi:schemaLocation="http://www.topografix.com/GPX/1/1 http://www.topografix.com/GPX/1/1/gpx.xsd" version="1.1" creator="VisuGPX - https://www.visugpx.com">
  <metadata>
    <name>453_Circuit 98 km Les Herbiers_Les Herbiers édité par cth85.com</name>
    <desc><![CDATA[Circuit de 98 km passant par:
Les Herbiers
D11 direction Les Epesses sur 7 km
au rond point à gauche cote du fossé
Saint Malo du Bois
D752 Saint Laurent sur Sèvre
D752 Le Puy Saint Bonnet
D157 La Tessoualle
D200 Mazières en Mauges
D200, àdroite D158 Toutlemonde
Chanteloup les Bois
D196 Maulévrier
D41 Saint Pierre des Echaubrognes
Moulins
D156 Mauléon
D34 Saint Amand sur Sèvre
D64 Châteaumur
Saint mars la Réorthe par nouzillac
D79 la croix bara
D755 Les Herbiers]]></desc>
  </metadata>
  <trk>
    <name><![CDATA[12630510-98_453]]></name>
    <trkseg>
      <trkpt lat="46.86367" lon="-1.00578">
        <ele>120</ele>
        <time>2021-03-03T21:25:57Z</time>
      </trkpt>
      <trkpt lat="46.86335" lon="-1.00614">
        <ele>119</ele>
        <time>2021-03-03T21:26:04Z</time>
      </trkpt>
      <trkpt lat="46.86315" lon="-1.00632">
        <ele>119</ele>
        <time>2021-03-03T21:26:08Z</time>
      </trkpt>
      <trkpt lat="46.8627" lon="-1.00662">
        <ele>118</ele>
        <time>2021-03-03T21:26:17Z</time>
      </trkpt>
      <trkpt lat="46.86234" lon="-1.00681">
        <ele>117</ele>
        <time>2021-03-03T21:26:24Z</time>
      </trkpt>
      <trkpt lat="46.86228" lon="-1.00664">
        <ele>117</ele>
        <time>2021-03-03T21:26:26Z</time>
      </trkpt>
      <trkpt lat="46.86189" lon="-1.00512">
        <ele>115</ele>
        <time>2021-03-03T21:26:46Z</time>
      </trkpt>
      <trkpt lat="46.8617" lon="-1.00489">
        <ele>115</ele>
        <time>2021-03-03T21:26:50Z</time>
      </trkpt>
      <trkpt lat="46.86129" lon="-1.0046">
        <ele>116</ele>
        <time>2021-03-03T21:26:59Z</time>
      </trkpt>
      <trkpt lat="46.86046" lon="-1.00414">
        <ele>115</ele>
        <time>2021-03-03T21:27:14Z</time>
      </trkpt>
      <trkpt lat="46.86041" lon="-1.00409">
        <ele>115</ele>
        <time>2021-03-03T21:27:15Z</time>
      </trkpt>
      <trkpt lat="46.86052" lon="-1.00363">
        <ele>115</ele>
        <time>2021-03-03T21:27:21Z</time>
      </trkpt>
      <trkpt lat="46.86125" lon="-1.00088">
        <ele>117</ele>
        <time>2021-03-03T21:27:57Z</time>
      </trkpt>
      <trkpt lat="46.86171" lon="-0.99914">
        <ele>118</ele>
        <time>2021-03-03T21:28:20Z</time>
      </trkpt>
      <trkpt lat="46.86212" lon="-0.99771">
        <ele>120</ele>
        <time>2021-03-03T21:28:39Z</time>
      </trkpt>
      <trkpt lat="46.86221" lon="-0.99734">
        <ele>120</ele>
        <time>2021-03-03T21:28:44Z</time>
      </trkpt>
      <trkpt lat="46.86268" lon="-0.9949">
        <ele>123</ele>
        <time>2021-03-03T21:29:14Z</time>
      </trkpt>
      <trkpt lat="46.86312" lon="-0.99257">
        <ele>125</ele>
        <time>2021-03-03T21:29:44Z</time>
      </trkpt>
      <trkpt lat="46.86335" lon="-0.99141">
        <ele>128</ele>
        <time>2021-03-03T21:29:59Z</time>
      </trkpt>
      <trkpt lat="46.86345" lon="-0.99102">
        <ele>129</ele>
        <time>2021-03-03T21:30:04Z</time>
      </trkpt>
      <trkpt lat="46.86362" lon="-0.9905">
        <ele>131</ele>
        <time>2021-03-03T21:30:11Z</time>
      </trkpt>
      <trkpt lat="46.86386" lon="-0.98993">
        <ele>133</ele>
        <time>2021-03-03T21:30:19Z</time>
      </trkpt>
      <trkpt lat="46.86399" lon="-0.98966">
        <ele>134</ele>
        <time>2021-03-03T21:30:23Z</time>
      </trkpt>
      <trkpt lat="46.86448" lon="-0.98872">
        <ele>139</ele>
        <time>2021-03-03T21:30:37Z</time>
      </trkpt>
      <trkpt lat="46.86498" lon="-0.98769">
        <ele>143</ele>
        <time>2021-03-03T21:30:52Z</time>
      </trkpt>
      <trkpt lat="46.86514" lon="-0.98737">
        <ele>145</ele>
        <time>2021-03-03T21:30:57Z</time>
      </trkpt>
      <trkpt lat="46.86527" lon="-0.98706">
        <ele>145</ele>
        <time>2021-03-03T21:31:02Z</time>
      </trkpt>
      <trkpt lat="46.86531" lon="-0.98695">
        <ele>146</ele>
        <time>2021-03-03T21:31:03Z</time>
      </trkpt>
      <trkpt lat="46.86563" lon="-0.98597">
        <ele>148</ele>
        <time>2021-03-03T21:31:16Z</time>
      </trkpt>
      <trkpt lat="46.86601" lon="-0.98456">
        <ele>149</ele>
        <time>2021-03-03T21:31:35Z</time>
      </trkpt>
      <trkpt lat="46.86608" lon="-0.98423">
        <ele>149</ele>
        <time>2021-03-03T21:31:39Z</time>
      </trkpt>
      <trkpt lat="46.86614" lon="-0.98397">
        <ele>148</ele>
        <time>2021-03-03T21:31:42Z</time>
      </trkpt>
      <trkpt lat="46.86624" lon="-0.98376">
        <ele>146</ele>
        <time>2021-03-03T21:31:46Z</time>
      </trkpt>
      <trkpt lat="46.86629" lon="-0.9837">
        <ele>146</ele>
        <time>2021-03-03T21:31:47Z</time>
      </trkpt>
      <trkpt lat="46.86629" lon="-0.98233">
        <ele>147</ele>
        <time>2021-03-03T21:32:03Z</time>
      </trkpt>
      <trkpt lat="46.86628" lon="-0.98189">
        <ele>148</ele>
        <time>2021-03-03T21:32:09Z</time>
      </trkpt>
      <trkpt lat="46.86626" lon="-0.9816">
        <ele>149</ele>
        <time>2021-03-03T21:32:12Z</time>
      </trkpt>
      <trkpt lat="46.86624" lon="-0.98135">
        <ele>150</ele>
        <time>2021-03-03T21:32:15Z</time>
      </trkpt>
      <trkpt lat="46.86629" lon="-0.98134">
        <ele>149</ele>
        <time>2021-03-03T21:32:16Z</time>
      </trkpt>
      <trkpt lat="46.86645" lon="-0.98128">
        <ele>147</ele>
        <time>2021-03-03T21:32:19Z</time>
      </trkpt>
      <trkpt lat="46.8665" lon="-0.98123">
        <ele>147</ele>
        <time>2021-03-03T21:32:20Z</time>
      </trkpt>
      <trkpt lat="46.86662" lon="-0.98101">
        <ele>146</ele>
        <time>2021-03-03T21:32:24Z</time>
      </trkpt>
      <trkpt lat="46.86672" lon="-0.98078">
        <ele>146</ele>
        <time>2021-03-03T21:32:27Z</time>
      </trkpt>
      <trkpt lat="46.86692" lon="-0.98032">
        <ele>144</ele>
        <time>2021-03-03T21:32:34Z</time>
      </trkpt>
      <trkpt lat="46.86738" lon="-0.97922">
        <ele>143</ele>
        <time>2021-03-03T21:32:49Z</time>
      </trkpt>
      <trkpt lat="46.86758" lon="-0.97873">
        <ele>143</ele>
        <time>2021-03-03T21:32:56Z</time>
      </trkpt>
      <trkpt lat="46.86839" lon="-0.97677">
        <ele>138</ele>
        <time>2021-03-03T21:33:24Z</time>
      </trkpt>
      <trkpt lat="46.86917" lon="-0.97487">
        <ele>139</ele>
        <time>2021-03-03T21:33:51Z</time>
      </trkpt>
      <trkpt lat="46.8694" lon="-0.97431">
        <ele>139</ele>
        <time>2021-03-03T21:33:59Z</time>
      </trkpt>
      <trkpt lat="46.86945" lon="-0.97416">
        <ele>139</ele>
        <time>2021-03-03T21:34:01Z</time>
      </trkpt>
      <trkpt lat="46.86953" lon="-0.97379">
        <ele>140</ele>
        <time>2021-03-03T21:34:06Z</time>
      </trkpt>
      <trkpt lat="46.86953" lon="-0.97369">
        <ele>141</ele>
        <time>2021-03-03T21:34:07Z</time>
      </trkpt>
      <trkpt lat="46.86954" lon="-0.9736">
        <ele>141</ele>
        <time>2021-03-03T21:34:08Z</time>
      </trkpt>
      <trkpt lat="46.86952" lon="-0.97356">
        <ele>141</ele>
        <time>2021-03-03T21:34:09Z</time>
      </trkpt>
      <trkpt lat="46.86951" lon="-0.97352">
        <ele>141</ele>
        <time>2021-03-03T21:34:09Z</time>
      </trkpt>
      <trkpt lat="46.8695" lon="-0.97346">
        <ele>141</ele>
        <time>2021-03-03T21:34:10Z</time>
      </trkpt>
      <trkpt lat="46.86952" lon="-0.97333">
        <ele>142</ele>
        <time>2021-03-03T21:34:12Z</time>
      </trkpt>
      <trkpt lat="46.86954" lon="-0.97327">
        <ele>142</ele>
        <time>2021-03-03T21:34:12Z</time>
      </trkpt>
      <trkpt lat="46.86956" lon="-0.97324">
        <ele>142</ele>
        <time>2021-03-03T21:34:13Z</time>
      </trkpt>
      <trkpt lat="46.86958" lon="-0.97321">
        <ele>142</ele>
        <time>2021-03-03T21:34:13Z</time>
      </trkpt>
      <trkpt lat="46.86961" lon="-0.97318">
        <ele>142</ele>
        <time>2021-03-03T21:34:14Z</time>
      </trkpt>
      <trkpt lat="46.86964" lon="-0.97316">
        <ele>142</ele>
        <time>2021-03-03T21:34:15Z</time>
      </trkpt>
      <trkpt lat="46.86968" lon="-0.97311">
        <ele>142</ele>
        <time>2021-03-03T21:34:16Z</time>
      </trkpt>
      <trkpt lat="46.86971" lon="-0.97303">
        <ele>142</ele>
        <time>2021-03-03T21:34:17Z</time>
      </trkpt>
      <trkpt lat="46.86978" lon="-0.97274">
        <ele>142</ele>
        <time>2021-03-03T21:34:20Z</time>
      </trkpt>
      <trkpt lat="46.86982" lon="-0.9725">
        <ele>142</ele>
        <time>2021-03-03T21:34:23Z</time>
      </trkpt>
      <trkpt lat="46.86985" lon="-0.97194">
        <ele>143</ele>
        <time>2021-03-03T21:34:30Z</time>
      </trkpt>
      <trkpt lat="46.87001" lon="-0.96834">
        <ele>144</ele>
        <time>2021-03-03T21:35:14Z</time>
      </trkpt>
      <trkpt lat="46.87013" lon="-0.96733">
        <ele>143</ele>
        <time>2021-03-03T21:35:27Z</time>
      </trkpt>
      <trkpt lat="46.87018" lon="-0.96705">
        <ele>143</ele>
        <time>2021-03-03T21:35:30Z</time>
      </trkpt>
      <trkpt lat="46.87026" lon="-0.96667">
        <ele>144</ele>
        <time>2021-03-03T21:35:35Z</time>
      </trkpt>
      <trkpt lat="46.87048" lon="-0.96579">
        <ele>143</ele>
        <time>2021-03-03T21:35:46Z</time>
      </trkpt>
      <trkpt lat="46.87062" lon="-0.96534">
        <ele>142</ele>
        <time>2021-03-03T21:35:52Z</time>
      </trkpt>
      <trkpt lat="46.87118" lon="-0.96387">
        <ele>142</ele>
        <time>2021-03-03T21:36:13Z</time>
      </trkpt>
      <trkpt lat="46.87135" lon="-0.96344">
        <ele>143</ele>
        <time>2021-03-03T21:36:19Z</time>
      </trkpt>
      <trkpt lat="46.87151" lon="-0.96303">
        <ele>142</ele>
        <time>2021-03-03T21:36:25Z</time>
      </trkpt>
      <trkpt lat="46.87169" lon="-0.96257">
        <ele>141</ele>
        <time>2021-03-03T21:36:31Z</time>
      </trkpt>
      <trkpt lat="46.87246" lon="-0.96059">
        <ele>147</ele>
        <time>2021-03-03T21:36:59Z</time>
      </trkpt>
      <trkpt lat="46.87256" lon="-0.96032">
        <ele>148</ele>
        <time>2021-03-03T21:37:03Z</time>
      </trkpt>
      <trkpt lat="46.87266" lon="-0.95997">
        <ele>149</ele>
        <time>2021-03-03T21:37:07Z</time>
      </trkpt>
      <trkpt lat="46.87274" lon="-0.95957">
        <ele>149</ele>
        <time>2021-03-03T21:37:12Z</time>
      </trkpt>
      <trkpt lat="46.8728" lon="-0.95913">
        <ele>149</ele>
        <time>2021-03-03T21:37:18Z</time>
      </trkpt>
      <trkpt lat="46.87283" lon="-0.95879">
        <ele>149</ele>
        <time>2021-03-03T21:37:22Z</time>
      </trkpt>
      <trkpt lat="46.87289" lon="-0.95812">
        <ele>148</ele>
        <time>2021-03-03T21:37:30Z</time>
      </trkpt>
      <trkpt lat="46.87311" lon="-0.95551">
        <ele>151</ele>
        <time>2021-03-03T21:38:02Z</time>
      </trkpt>
      <trkpt lat="46.87312" lon="-0.95518">
        <ele>152</ele>
        <time>2021-03-03T21:38:06Z</time>
      </trkpt>
      <trkpt lat="46.87308" lon="-0.9545">
        <ele>153</ele>
        <time>2021-03-03T21:38:14Z</time>
      </trkpt>
      <trkpt lat="46.87302" lon="-0.9541">
        <ele>153</ele>
        <time>2021-03-03T21:38:19Z</time>
      </trkpt>
      <trkpt lat="46.873" lon="-0.95396">
        <ele>152</ele>
        <time>2021-03-03T21:38:21Z</time>
      </trkpt>
      <trkpt lat="46.87292" lon="-0.95363">
        <ele>151</ele>
        <time>2021-03-03T21:38:25Z</time>
      </trkpt>
      <trkpt lat="46.87272" lon="-0.95301">
        <ele>148</ele>
        <time>2021-03-03T21:38:34Z</time>
      </trkpt>
      <trkpt lat="46.87239" lon="-0.95215">
        <ele>146</ele>
        <time>2021-03-03T21:38:46Z</time>
      </trkpt>
      <trkpt lat="46.87222" lon="-0.9516">
        <ele>145</ele>
        <time>2021-03-03T21:38:53Z</time>
      </trkpt>
      <trkpt lat="46.87213" lon="-0.95127">
        <ele>143</ele>
        <time>2021-03-03T21:38:57Z</time>
      </trkpt>
      <trkpt lat="46.87206" lon="-0.95091">
        <ele>142</ele>
        <time>2021-03-03T21:39:02Z</time>
      </trkpt>
      <trkpt lat="46.872" lon="-0.95052">
        <ele>140</ele>
        <time>2021-03-03T21:39:07Z</time>
      </trkpt>
      <trkpt lat="46.87197" lon="-0.95003">
        <ele>139</ele>
        <time>2021-03-03T21:39:13Z</time>
      </trkpt>
      <trkpt lat="46.87196" lon="-0.94969">
        <ele>137</ele>
        <time>2021-03-03T21:39:17Z</time>
      </trkpt>
      <trkpt lat="46.87196" lon="-0.94946">
        <ele>136</ele>
        <time>2021-03-03T21:39:20Z</time>
      </trkpt>
      <trkpt lat="46.87198" lon="-0.94913">
        <ele>134</ele>
        <time>2021-03-03T21:39:24Z</time>
      </trkpt>
      <trkpt lat="46.87202" lon="-0.94879">
        <ele>133</ele>
        <time>2021-03-03T21:39:28Z</time>
      </trkpt>
      <trkpt lat="46.87219" lon="-0.94786">
        <ele>130</ele>
        <time>2021-03-03T21:39:40Z</time>
      </trkpt>
      <trkpt lat="46.87249" lon="-0.94631">
        <ele>123</ele>
        <time>2021-03-03T21:39:59Z</time>
      </trkpt>
      <trkpt lat="46.87254" lon="-0.94604">
        <ele>122</ele>
        <time>2021-03-03T21:40:03Z</time>
      </trkpt>
      <trkpt lat="46.87262" lon="-0.94569">
        <ele>123</ele>
        <time>2021-03-03T21:40:07Z</time>
      </trkpt>
      <trkpt lat="46.87283" lon="-0.94463">
        <ele>128</ele>
        <time>2021-03-03T21:40:21Z</time>
      </trkpt>
      <trkpt lat="46.87415" lon="-0.93784">
        <ele>149</ele>
        <time>2021-03-03T21:41:46Z</time>
      </trkpt>
      <trkpt lat="46.87417" lon="-0.93774">
        <ele>149</ele>
        <time>2021-03-03T21:41:48Z</time>
      </trkpt>
      <trkpt lat="46.87426" lon="-0.93717">
        <ele>151</ele>
        <time>2021-03-03T21:41:55Z</time>
      </trkpt>
      <trkpt lat="46.8743" lon="-0.93681">
        <ele>151</ele>
        <time>2021-03-03T21:41:59Z</time>
      </trkpt>
      <trkpt lat="46.87438" lon="-0.93533">
        <ele>154</ele>
        <time>2021-03-03T21:42:17Z</time>
      </trkpt>
      <trkpt lat="46.87441" lon="-0.93492">
        <ele>155</ele>
        <time>2021-03-03T21:42:22Z</time>
      </trkpt>
      <trkpt lat="46.87443" lon="-0.93435">
        <ele>156</ele>
        <time>2021-03-03T21:42:29Z</time>
      </trkpt>
      <trkpt lat="46.87448" lon="-0.93352">
        <ele>159</ele>
        <time>2021-03-03T21:42:39Z</time>
      </trkpt>
      <trkpt lat="46.87451" lon="-0.93323">
        <ele>159</ele>
        <time>2021-03-03T21:42:43Z</time>
      </trkpt>
      <trkpt lat="46.87455" lon="-0.93299">
        <ele>160</ele>
        <time>2021-03-03T21:42:46Z</time>
      </trkpt>
      <trkpt lat="46.8746" lon="-0.93278">
        <ele>160</ele>
        <time>2021-03-03T21:42:49Z</time>
      </trkpt>
      <trkpt lat="46.87467" lon="-0.93258">
        <ele>161</ele>
        <time>2021-03-03T21:42:51Z</time>
      </trkpt>
      <trkpt lat="46.8747" lon="-0.93251">
        <ele>161</ele>
        <time>2021-03-03T21:42:52Z</time>
      </trkpt>
      <trkpt lat="46.87477" lon="-0.93235">
        <ele>162</ele>
        <time>2021-03-03T21:42:55Z</time>
      </trkpt>
      <trkpt lat="46.87498" lon="-0.93201">
        <ele>163</ele>
        <time>2021-03-03T21:43:00Z</time>
      </trkpt>
      <trkpt lat="46.87525" lon="-0.93167">
        <ele>167</ele>
        <time>2021-03-03T21:43:07Z</time>
      </trkpt>
      <trkpt lat="46.87538" lon="-0.93147">
        <ele>169</ele>
        <time>2021-03-03T21:43:10Z</time>
      </trkpt>
      <trkpt lat="46.87551" lon="-0.93117">
        <ele>171</ele>
        <time>2021-03-03T21:43:14Z</time>
      </trkpt>
      <trkpt lat="46.87566" lon="-0.93065">
        <ele>174</ele>
        <time>2021-03-03T21:43:21Z</time>
      </trkpt>
      <trkpt lat="46.87577" lon="-0.93016">
        <ele>178</ele>
        <time>2021-03-03T21:43:27Z</time>
      </trkpt>
      <trkpt lat="46.87589" lon="-0.92964">
        <ele>181</ele>
        <time>2021-03-03T21:43:34Z</time>
      </trkpt>
      <trkpt lat="46.87591" lon="-0.92958">
        <ele>181</ele>
        <time>2021-03-03T21:43:35Z</time>
      </trkpt>
      <trkpt lat="46.87604" lon="-0.92876">
        <ele>186</ele>
        <time>2021-03-03T21:43:45Z</time>
      </trkpt>
      <trkpt lat="46.87615" lon="-0.92802">
        <ele>189</ele>
        <time>2021-03-03T21:43:54Z</time>
      </trkpt>
      <trkpt lat="46.87621" lon="-0.92754">
        <ele>191</ele>
        <time>2021-03-03T21:44:00Z</time>
      </trkpt>
      <trkpt lat="46.87625" lon="-0.92708">
        <ele>189</ele>
        <time>2021-03-03T21:44:06Z</time>
      </trkpt>
      <trkpt lat="46.87625" lon="-0.92684">
        <ele>189</ele>
        <time>2021-03-03T21:44:09Z</time>
      </trkpt>
      <trkpt lat="46.8762" lon="-0.92678">
        <ele>188</ele>
        <time>2021-03-03T21:44:10Z</time>
      </trkpt>
      <trkpt lat="46.87617" lon="-0.92669">
        <ele>187</ele>
        <time>2021-03-03T21:44:11Z</time>
      </trkpt>
      <trkpt lat="46.87616" lon="-0.9266">
        <ele>187</ele>
        <time>2021-03-03T21:44:12Z</time>
      </trkpt>
      <trkpt lat="46.87617" lon="-0.92651">
        <ele>187</ele>
        <time>2021-03-03T21:44:13Z</time>
      </trkpt>
      <trkpt lat="46.87619" lon="-0.92643">
        <ele>187</ele>
        <time>2021-03-03T21:44:14Z</time>
      </trkpt>
      <trkpt lat="46.87624" lon="-0.92636">
        <ele>187</ele>
        <time>2021-03-03T21:44:16Z</time>
      </trkpt>
      <trkpt lat="46.8763" lon="-0.92632">
        <ele>187</ele>
        <time>2021-03-03T21:44:17Z</time>
      </trkpt>
      <trkpt lat="46.87636" lon="-0.92631">
        <ele>188</ele>
        <time>2021-03-03T21:44:18Z</time>
      </trkpt>
      <trkpt lat="46.87642" lon="-0.92633">
        <ele>189</ele>
        <time>2021-03-03T21:44:19Z</time>
      </trkpt>
      <trkpt lat="46.87648" lon="-0.92638">
        <ele>189</ele>
        <time>2021-03-03T21:44:20Z</time>
      </trkpt>
      <trkpt lat="46.87649" lon="-0.9264">
        <ele>190</ele>
        <time>2021-03-03T21:44:21Z</time>
      </trkpt>
      <trkpt lat="46.87652" lon="-0.92645">
        <ele>190</ele>
        <time>2021-03-03T21:44:21Z</time>
      </trkpt>
      <trkpt lat="46.87654" lon="-0.92654">
        <ele>190</ele>
        <time>2021-03-03T21:44:23Z</time>
      </trkpt>
      <trkpt lat="46.87654" lon="-0.92663">
        <ele>191</ele>
        <time>2021-03-03T21:44:24Z</time>
      </trkpt>
      <trkpt lat="46.87662" lon="-0.92677">
        <ele>192</ele>
        <time>2021-03-03T21:44:26Z</time>
      </trkpt>
      <trkpt lat="46.87675" lon="-0.92689">
        <ele>194</ele>
        <time>2021-03-03T21:44:29Z</time>
      </trkpt>
      <trkpt lat="46.87684" lon="-0.92701">
        <ele>195</ele>
        <time>2021-03-03T21:44:31Z</time>
      </trkpt>
      <trkpt lat="46.87698" lon="-0.92722">
        <ele>197</ele>
        <time>2021-03-03T21:44:34Z</time>
      </trkpt>
      <trkpt lat="46.87708" lon="-0.92743">
        <ele>199</ele>
        <time>2021-03-03T21:44:37Z</time>
      </trkpt>
      <trkpt lat="46.87714" lon="-0.92763">
        <ele>200</ele>
        <time>2021-03-03T21:44:40Z</time>
      </trkpt>
      <trkpt lat="46.87717" lon="-0.92784">
        <ele>201</ele>
        <time>2021-03-03T21:44:43Z</time>
      </trkpt>
      <trkpt lat="46.87722" lon="-0.92909">
        <ele>200</ele>
        <time>2021-03-03T21:44:58Z</time>
      </trkpt>
      <trkpt lat="46.87726" lon="-0.92932">
        <ele>201</ele>
        <time>2021-03-03T21:45:01Z</time>
      </trkpt>
      <trkpt lat="46.87733" lon="-0.92955">
        <ele>203</ele>
        <time>2021-03-03T21:45:04Z</time>
      </trkpt>
      <trkpt lat="46.8774" lon="-0.92971">
        <ele>204</ele>
        <time>2021-03-03T21:45:06Z</time>
      </trkpt>
      <trkpt lat="46.8775" lon="-0.92987">
        <ele>206</ele>
        <time>2021-03-03T21:45:09Z</time>
      </trkpt>
      <trkpt lat="46.87763" lon="-0.93001">
        <ele>208</ele>
        <time>2021-03-03T21:45:12Z</time>
      </trkpt>
      <trkpt lat="46.87784" lon="-0.93016">
        <ele>210</ele>
        <time>2021-03-03T21:45:16Z</time>
      </trkpt>
      <trkpt lat="46.87806" lon="-0.93025">
        <ele>213</ele>
        <time>2021-03-03T21:45:20Z</time>
      </trkpt>
      <trkpt lat="46.87831" lon="-0.93036">
        <ele>216</ele>
        <time>2021-03-03T21:45:25Z</time>
      </trkpt>
      <trkpt lat="46.87844" lon="-0.93039">
        <ele>217</ele>
        <time>2021-03-03T21:45:27Z</time>
      </trkpt>
      <trkpt lat="46.87856" lon="-0.93037">
        <ele>218</ele>
        <time>2021-03-03T21:45:29Z</time>
      </trkpt>
      <trkpt lat="46.87874" lon="-0.93028">
        <ele>220</ele>
        <time>2021-03-03T21:45:32Z</time>
      </trkpt>
      <trkpt lat="46.87925" lon="-0.92987">
        <ele>226</ele>
        <time>2021-03-03T21:45:43Z</time>
      </trkpt>
      <trkpt lat="46.87962" lon="-0.92964">
        <ele>229</ele>
        <time>2021-03-03T21:45:50Z</time>
      </trkpt>
      <trkpt lat="46.88007" lon="-0.92951">
        <ele>232</ele>
        <time>2021-03-03T21:45:58Z</time>
      </trkpt>
      <trkpt lat="46.88035" lon="-0.92943">
        <ele>234</ele>
        <time>2021-03-03T21:46:03Z</time>
      </trkpt>
      <trkpt lat="46.88155" lon="-0.9292">
        <ele>241</ele>
        <time>2021-03-03T21:46:25Z</time>
      </trkpt>
      <trkpt lat="46.88166" lon="-0.92923">
        <ele>242</ele>
        <time>2021-03-03T21:46:27Z</time>
      </trkpt>
      <trkpt lat="46.88173" lon="-0.92925">
        <ele>241</ele>
        <time>2021-03-03T21:46:28Z</time>
      </trkpt>
      <trkpt lat="46.88188" lon="-0.92935">
        <ele>241</ele>
        <time>2021-03-03T21:46:31Z</time>
      </trkpt>
      <trkpt lat="46.88204" lon="-0.92951">
        <ele>240</ele>
        <time>2021-03-03T21:46:34Z</time>
      </trkpt>
      <trkpt lat="46.88223" lon="-0.92965">
        <ele>240</ele>
        <time>2021-03-03T21:46:38Z</time>
      </trkpt>
      <trkpt lat="46.88246" lon="-0.92974">
        <ele>240</ele>
        <time>2021-03-03T21:46:42Z</time>
      </trkpt>
      <trkpt lat="46.88294" lon="-0.92985">
        <ele>239</ele>
        <time>2021-03-03T21:46:51Z</time>
      </trkpt>
      <trkpt lat="46.88342" lon="-0.93002">
        <ele>238</ele>
        <time>2021-03-03T21:47:00Z</time>
      </trkpt>
      <trkpt lat="46.88409" lon="-0.93034">
        <ele>238</ele>
        <time>2021-03-03T21:47:12Z</time>
      </trkpt>
      <trkpt lat="46.88491" lon="-0.93079">
        <ele>238</ele>
        <time>2021-03-03T21:47:28Z</time>
      </trkpt>
      <trkpt lat="46.88499" lon="-0.93084">
        <ele>238</ele>
        <time>2021-03-03T21:47:29Z</time>
      </trkpt>
      <trkpt lat="46.88528" lon="-0.93102">
        <ele>237</ele>
        <time>2021-03-03T21:47:35Z</time>
      </trkpt>
      <trkpt lat="46.88545" lon="-0.93121">
        <ele>236</ele>
        <time>2021-03-03T21:47:39Z</time>
      </trkpt>
      <trkpt lat="46.88714" lon="-0.93297">
        <ele>235</ele>
        <time>2021-03-03T21:48:16Z</time>
      </trkpt>
      <trkpt lat="46.88728" lon="-0.93311">
        <ele>235</ele>
        <time>2021-03-03T21:48:19Z</time>
      </trkpt>
      <trkpt lat="46.88829" lon="-0.93474">
        <ele>228</ele>
        <time>2021-03-03T21:48:46Z</time>
      </trkpt>
      <trkpt lat="46.88848" lon="-0.93492">
        <ele>228</ele>
        <time>2021-03-03T21:48:50Z</time>
      </trkpt>
      <trkpt lat="46.88884" lon="-0.93505">
        <ele>228</ele>
        <time>2021-03-03T21:48:56Z</time>
      </trkpt>
      <trkpt lat="46.88964" lon="-0.93525">
        <ele>228</ele>
        <time>2021-03-03T21:49:11Z</time>
      </trkpt>
      <trkpt lat="46.89018" lon="-0.93538">
        <ele>228</ele>
        <time>2021-03-03T21:49:20Z</time>
      </trkpt>
      <trkpt lat="46.89179" lon="-0.93578">
        <ele>229</ele>
        <time>2021-03-03T21:49:49Z</time>
      </trkpt>
      <trkpt lat="46.89186" lon="-0.93578">
        <ele>229</ele>
        <time>2021-03-03T21:49:51Z</time>
      </trkpt>
      <trkpt lat="46.89196" lon="-0.93577">
        <ele>229</ele>
        <time>2021-03-03T21:49:52Z</time>
      </trkpt>
      <trkpt lat="46.89204" lon="-0.93575">
        <ele>229</ele>
        <time>2021-03-03T21:49:54Z</time>
      </trkpt>
      <trkpt lat="46.8925" lon="-0.93557">
        <ele>229</ele>
        <time>2021-03-03T21:50:02Z</time>
      </trkpt>
      <trkpt lat="46.89264" lon="-0.93552">
        <ele>229</ele>
        <time>2021-03-03T21:50:05Z</time>
      </trkpt>
      <trkpt lat="46.89278" lon="-0.93547">
        <ele>228</ele>
        <time>2021-03-03T21:50:08Z</time>
      </trkpt>
      <trkpt lat="46.89294" lon="-0.93535">
        <ele>228</ele>
        <time>2021-03-03T21:50:11Z</time>
      </trkpt>
      <trkpt lat="46.89323" lon="-0.93502">
        <ele>227</ele>
        <time>2021-03-03T21:50:17Z</time>
      </trkpt>
      <trkpt lat="46.89341" lon="-0.93481">
        <ele>226</ele>
        <time>2021-03-03T21:50:21Z</time>
      </trkpt>
      <trkpt lat="46.89442" lon="-0.93363">
        <ele>227</ele>
        <time>2021-03-03T21:50:44Z</time>
      </trkpt>
      <trkpt lat="46.89456" lon="-0.93344">
        <ele>228</ele>
        <time>2021-03-03T21:50:48Z</time>
      </trkpt>
      <trkpt lat="46.89474" lon="-0.93322">
        <ele>229</ele>
        <time>2021-03-03T21:50:52Z</time>
      </trkpt>
      <trkpt lat="46.8948" lon="-0.9331">
        <ele>229</ele>
        <time>2021-03-03T21:50:54Z</time>
      </trkpt>
      <trkpt lat="46.89488" lon="-0.93279">
        <ele>229</ele>
        <time>2021-03-03T21:50:58Z</time>
      </trkpt>
      <trkpt lat="46.89506" lon="-0.93188">
        <ele>225</ele>
        <time>2021-03-03T21:51:09Z</time>
      </trkpt>
      <trkpt lat="46.89508" lon="-0.93173">
        <ele>224</ele>
        <time>2021-03-03T21:51:11Z</time>
      </trkpt>
      <trkpt lat="46.8951" lon="-0.93148">
        <ele>223</ele>
        <time>2021-03-03T21:51:14Z</time>
      </trkpt>
      <trkpt lat="46.89516" lon="-0.93136">
        <ele>222</ele>
        <time>2021-03-03T21:51:16Z</time>
      </trkpt>
      <trkpt lat="46.89537" lon="-0.93131">
        <ele>221</ele>
        <time>2021-03-03T21:51:20Z</time>
      </trkpt>
      <trkpt lat="46.89615" lon="-0.9311">
        <ele>220</ele>
        <time>2021-03-03T21:51:34Z</time>
      </trkpt>
      <trkpt lat="46.89708" lon="-0.93092">
        <ele>223</ele>
        <time>2021-03-03T21:51:51Z</time>
      </trkpt>
      <trkpt lat="46.89719" lon="-0.9309">
        <ele>224</ele>
        <time>2021-03-03T21:51:53Z</time>
      </trkpt>
      <trkpt lat="46.89764" lon="-0.93078">
        <ele>225</ele>
        <time>2021-03-03T21:52:01Z</time>
      </trkpt>
      <trkpt lat="46.89796" lon="-0.93068">
        <ele>226</ele>
        <time>2021-03-03T21:52:07Z</time>
      </trkpt>
      <trkpt lat="46.89807" lon="-0.93065">
        <ele>227</ele>
        <time>2021-03-03T21:52:09Z</time>
      </trkpt>
      <trkpt lat="46.89811" lon="-0.93064">
        <ele>227</ele>
        <time>2021-03-03T21:52:09Z</time>
      </trkpt>
      <trkpt lat="46.89843" lon="-0.93056">
        <ele>228</ele>
        <time>2021-03-03T21:52:15Z</time>
      </trkpt>
      <trkpt lat="46.89862" lon="-0.93053">
        <ele>228</ele>
        <time>2021-03-03T21:52:18Z</time>
      </trkpt>
      <trkpt lat="46.8988" lon="-0.93048">
        <ele>228</ele>
        <time>2021-03-03T21:52:22Z</time>
      </trkpt>
      <trkpt lat="46.8989" lon="-0.93047">
        <ele>229</ele>
        <time>2021-03-03T21:52:23Z</time>
      </trkpt>
      <trkpt lat="46.89931" lon="-0.93046">
        <ele>229</ele>
        <time>2021-03-03T21:52:31Z</time>
      </trkpt>
      <trkpt lat="46.89955" lon="-0.9305">
        <ele>230</ele>
        <time>2021-03-03T21:52:35Z</time>
      </trkpt>
      <trkpt lat="46.89957" lon="-0.93042">
        <ele>229</ele>
        <time>2021-03-03T21:52:36Z</time>
      </trkpt>
      <trkpt lat="46.8996" lon="-0.93036">
        <ele>229</ele>
        <time>2021-03-03T21:52:37Z</time>
      </trkpt>
      <trkpt lat="46.89965" lon="-0.93031">
        <ele>229</ele>
        <time>2021-03-03T21:52:38Z</time>
      </trkpt>
      <trkpt lat="46.8997" lon="-0.93029">
        <ele>229</ele>
        <time>2021-03-03T21:52:39Z</time>
      </trkpt>
      <trkpt lat="46.89975" lon="-0.93029">
        <ele>229</ele>
        <time>2021-03-03T21:52:40Z</time>
      </trkpt>
      <trkpt lat="46.8998" lon="-0.93031">
        <ele>229</ele>
        <time>2021-03-03T21:52:41Z</time>
      </trkpt>
      <trkpt lat="46.89984" lon="-0.93036">
        <ele>230</ele>
        <time>2021-03-03T21:52:42Z</time>
      </trkpt>
      <trkpt lat="46.89989" lon="-0.93048">
        <ele>230</ele>
        <time>2021-03-03T21:52:43Z</time>
      </trkpt>
      <trkpt lat="46.8999" lon="-0.93055">
        <ele>230</ele>
        <time>2021-03-03T21:52:44Z</time>
      </trkpt>
      <trkpt lat="46.89989" lon="-0.93062">
        <ele>231</ele>
        <time>2021-03-03T21:52:45Z</time>
      </trkpt>
      <trkpt lat="46.9003" lon="-0.93078">
        <ele>232</ele>
        <time>2021-03-03T21:52:53Z</time>
      </trkpt>
      <trkpt lat="46.90037" lon="-0.93083">
        <ele>232</ele>
        <time>2021-03-03T21:52:54Z</time>
      </trkpt>
      <trkpt lat="46.90069" lon="-0.93104">
        <ele>232</ele>
        <time>2021-03-03T21:53:00Z</time>
      </trkpt>
      <trkpt lat="46.90092" lon="-0.93119">
        <ele>232</ele>
        <time>2021-03-03T21:53:05Z</time>
      </trkpt>
      <trkpt lat="46.90106" lon="-0.93127">
        <ele>232</ele>
        <time>2021-03-03T21:53:08Z</time>
      </trkpt>
      <trkpt lat="46.90128" lon="-0.93134">
        <ele>232</ele>
        <time>2021-03-03T21:53:12Z</time>
      </trkpt>
      <trkpt lat="46.90157" lon="-0.9314">
        <ele>232</ele>
        <time>2021-03-03T21:53:17Z</time>
      </trkpt>
      <trkpt lat="46.90249" lon="-0.93161">
        <ele>236</ele>
        <time>2021-03-03T21:53:33Z</time>
      </trkpt>
      <trkpt lat="46.90316" lon="-0.93169">
        <ele>237</ele>
        <time>2021-03-03T21:53:45Z</time>
      </trkpt>
      <trkpt lat="46.9034" lon="-0.93166">
        <ele>237</ele>
        <time>2021-03-03T21:53:50Z</time>
      </trkpt>
      <trkpt lat="46.90356" lon="-0.93163">
        <ele>237</ele>
        <time>2021-03-03T21:53:52Z</time>
      </trkpt>
      <trkpt lat="46.90389" lon="-0.93153">
        <ele>237</ele>
        <time>2021-03-03T21:53:58Z</time>
      </trkpt>
      <trkpt lat="46.90465" lon="-0.93125">
        <ele>235</ele>
        <time>2021-03-03T21:54:12Z</time>
      </trkpt>
      <trkpt lat="46.90481" lon="-0.93119">
        <ele>234</ele>
        <time>2021-03-03T21:54:15Z</time>
      </trkpt>
      <trkpt lat="46.90493" lon="-0.9311">
        <ele>233</ele>
        <time>2021-03-03T21:54:18Z</time>
      </trkpt>
      <trkpt lat="46.90502" lon="-0.93102">
        <ele>233</ele>
        <time>2021-03-03T21:54:20Z</time>
      </trkpt>
      <trkpt lat="46.90511" lon="-0.93088">
        <ele>232</ele>
        <time>2021-03-03T21:54:22Z</time>
      </trkpt>
      <trkpt lat="46.90547" lon="-0.9299">
        <ele>226</ele>
        <time>2021-03-03T21:54:35Z</time>
      </trkpt>
      <trkpt lat="46.90561" lon="-0.9296">
        <ele>224</ele>
        <time>2021-03-03T21:54:40Z</time>
      </trkpt>
      <trkpt lat="46.90571" lon="-0.92945">
        <ele>223</ele>
        <time>2021-03-03T21:54:42Z</time>
      </trkpt>
      <trkpt lat="46.90587" lon="-0.92931">
        <ele>222</ele>
        <time>2021-03-03T21:54:46Z</time>
      </trkpt>
      <trkpt lat="46.90598" lon="-0.92927">
        <ele>221</ele>
        <time>2021-03-03T21:54:48Z</time>
      </trkpt>
      <trkpt lat="46.90622" lon="-0.92921">
        <ele>219</ele>
        <time>2021-03-03T21:54:52Z</time>
      </trkpt>
      <trkpt lat="46.90632" lon="-0.92916">
        <ele>219</ele>
        <time>2021-03-03T21:54:54Z</time>
      </trkpt>
      <trkpt lat="46.90651" lon="-0.92895">
        <ele>216</ele>
        <time>2021-03-03T21:54:58Z</time>
      </trkpt>
      <trkpt lat="46.90665" lon="-0.9287">
        <ele>213</ele>
        <time>2021-03-03T21:55:02Z</time>
      </trkpt>
      <trkpt lat="46.90693" lon="-0.92816">
        <ele>208</ele>
        <time>2021-03-03T21:55:10Z</time>
      </trkpt>
      <trkpt lat="46.90716" lon="-0.92772">
        <ele>208</ele>
        <time>2021-03-03T21:55:17Z</time>
      </trkpt>
      <trkpt lat="46.90734" lon="-0.92746">
        <ele>209</ele>
        <time>2021-03-03T21:55:22Z</time>
      </trkpt>
      <trkpt lat="46.90762" lon="-0.92724">
        <ele>210</ele>
        <time>2021-03-03T21:55:27Z</time>
      </trkpt>
      <trkpt lat="46.90773" lon="-0.92719">
        <ele>211</ele>
        <time>2021-03-03T21:55:29Z</time>
      </trkpt>
      <trkpt lat="46.90789" lon="-0.92717">
        <ele>211</ele>
        <time>2021-03-03T21:55:32Z</time>
      </trkpt>
      <trkpt lat="46.90829" lon="-0.92715">
        <ele>211</ele>
        <time>2021-03-03T21:55:39Z</time>
      </trkpt>
      <trkpt lat="46.90855" lon="-0.9271">
        <ele>210</ele>
        <time>2021-03-03T21:55:44Z</time>
      </trkpt>
      <trkpt lat="46.90873" lon="-0.92706">
        <ele>210</ele>
        <time>2021-03-03T21:55:47Z</time>
      </trkpt>
      <trkpt lat="46.90947" lon="-0.92685">
        <ele>209</ele>
        <time>2021-03-03T21:56:01Z</time>
      </trkpt>
      <trkpt lat="46.90964" lon="-0.92681">
        <ele>209</ele>
        <time>2021-03-03T21:56:04Z</time>
      </trkpt>
      <trkpt lat="46.9097" lon="-0.92679">
        <ele>210</ele>
        <time>2021-03-03T21:56:05Z</time>
      </trkpt>
      <trkpt lat="46.90985" lon="-0.92678">
        <ele>210</ele>
        <time>2021-03-03T21:56:07Z</time>
      </trkpt>
      <trkpt lat="46.90998" lon="-0.92677">
        <ele>210</ele>
        <time>2021-03-03T21:56:10Z</time>
      </trkpt>
      <trkpt lat="46.91016" lon="-0.9268">
        <ele>210</ele>
        <time>2021-03-03T21:56:13Z</time>
      </trkpt>
      <trkpt lat="46.91035" lon="-0.92685">
        <ele>211</ele>
        <time>2021-03-03T21:56:16Z</time>
      </trkpt>
      <trkpt lat="46.91067" lon="-0.92707">
        <ele>212</ele>
        <time>2021-03-03T21:56:23Z</time>
      </trkpt>
      <trkpt lat="46.91083" lon="-0.92724">
        <ele>212</ele>
        <time>2021-03-03T21:56:26Z</time>
      </trkpt>
      <trkpt lat="46.91137" lon="-0.92799">
        <ele>214</ele>
        <time>2021-03-03T21:56:39Z</time>
      </trkpt>
      <trkpt lat="46.91176" lon="-0.92844">
        <ele>216</ele>
        <time>2021-03-03T21:56:48Z</time>
      </trkpt>
      <trkpt lat="46.91206" lon="-0.92893">
        <ele>216</ele>
        <time>2021-03-03T21:56:56Z</time>
      </trkpt>
      <trkpt lat="46.9125" lon="-0.9298">
        <ele>216</ele>
        <time>2021-03-03T21:57:09Z</time>
      </trkpt>
      <trkpt lat="46.91264" lon="-0.93001">
        <ele>215</ele>
        <time>2021-03-03T21:57:13Z</time>
      </trkpt>
      <trkpt lat="46.91289" lon="-0.93023">
        <ele>213</ele>
        <time>2021-03-03T21:57:18Z</time>
      </trkpt>
      <trkpt lat="46.91321" lon="-0.9304">
        <ele>212</ele>
        <time>2021-03-03T21:57:24Z</time>
      </trkpt>
      <trkpt lat="46.91354" lon="-0.93053">
        <ele>211</ele>
        <time>2021-03-03T21:57:30Z</time>
      </trkpt>
      <trkpt lat="46.91373" lon="-0.93057">
        <ele>211</ele>
        <time>2021-03-03T21:57:34Z</time>
      </trkpt>
      <trkpt lat="46.91405" lon="-0.93054">
        <ele>210</ele>
        <time>2021-03-03T21:57:39Z</time>
      </trkpt>
      <trkpt lat="46.91424" lon="-0.93046">
        <ele>209</ele>
        <time>2021-03-03T21:57:43Z</time>
      </trkpt>
      <trkpt lat="46.91433" lon="-0.93039">
        <ele>209</ele>
        <time>2021-03-03T21:57:45Z</time>
      </trkpt>
      <trkpt lat="46.91439" lon="-0.93035">
        <ele>209</ele>
        <time>2021-03-03T21:57:46Z</time>
      </trkpt>
      <trkpt lat="46.91454" lon="-0.93023">
        <ele>210</ele>
        <time>2021-03-03T21:57:49Z</time>
      </trkpt>
      <trkpt lat="46.91627" lon="-0.92881">
        <ele>209</ele>
        <time>2021-03-03T21:58:24Z</time>
      </trkpt>
      <trkpt lat="46.91641" lon="-0.92867">
        <ele>208</ele>
        <time>2021-03-03T21:58:27Z</time>
      </trkpt>
      <trkpt lat="46.91654" lon="-0.92852">
        <ele>207</ele>
        <time>2021-03-03T21:58:30Z</time>
      </trkpt>
      <trkpt lat="46.91665" lon="-0.92834">
        <ele>206</ele>
        <time>2021-03-03T21:58:33Z</time>
      </trkpt>
      <trkpt lat="46.91675" lon="-0.92816">
        <ele>206</ele>
        <time>2021-03-03T21:58:36Z</time>
      </trkpt>
      <trkpt lat="46.91685" lon="-0.92793">
        <ele>206</ele>
        <time>2021-03-03T21:58:39Z</time>
      </trkpt>
      <trkpt lat="46.91692" lon="-0.92768">
        <ele>205</ele>
        <time>2021-03-03T21:58:43Z</time>
      </trkpt>
      <trkpt lat="46.91698" lon="-0.92743">
        <ele>205</ele>
        <time>2021-03-03T21:58:46Z</time>
      </trkpt>
      <trkpt lat="46.91701" lon="-0.92715">
        <ele>204</ele>
        <time>2021-03-03T21:58:49Z</time>
      </trkpt>
      <trkpt lat="46.91701" lon="-0.92524">
        <ele>200</ele>
        <time>2021-03-03T21:59:12Z</time>
      </trkpt>
      <trkpt lat="46.91703" lon="-0.92492">
        <ele>200</ele>
        <time>2021-03-03T21:59:16Z</time>
      </trkpt>
      <trkpt lat="46.91708" lon="-0.92459">
        <ele>200</ele>
        <time>2021-03-03T21:59:20Z</time>
      </trkpt>
      <trkpt lat="46.91721" lon="-0.9241">
        <ele>199</ele>
        <time>2021-03-03T21:59:27Z</time>
      </trkpt>
      <trkpt lat="46.91741" lon="-0.92366">
        <ele>198</ele>
        <time>2021-03-03T21:59:33Z</time>
      </trkpt>
      <trkpt lat="46.91762" lon="-0.92332">
        <ele>197</ele>
        <time>2021-03-03T21:59:39Z</time>
      </trkpt>
      <trkpt lat="46.91786" lon="-0.92291">
        <ele>198</ele>
        <time>2021-03-03T21:59:45Z</time>
      </trkpt>
      <trkpt lat="46.91808" lon="-0.9226">
        <ele>198</ele>
        <time>2021-03-03T21:59:51Z</time>
      </trkpt>
      <trkpt lat="46.91832" lon="-0.92232">
        <ele>198</ele>
        <time>2021-03-03T21:59:56Z</time>
      </trkpt>
      <trkpt lat="46.91857" lon="-0.92205">
        <ele>197</ele>
        <time>2021-03-03T22:00:02Z</time>
      </trkpt>
      <trkpt lat="46.91888" lon="-0.92162">
        <ele>197</ele>
        <time>2021-03-03T22:00:09Z</time>
      </trkpt>
      <trkpt lat="46.91898" lon="-0.92143">
        <ele>196</ele>
        <time>2021-03-03T22:00:12Z</time>
      </trkpt>
      <trkpt lat="46.91907" lon="-0.9212">
        <ele>196</ele>
        <time>2021-03-03T22:00:16Z</time>
      </trkpt>
      <trkpt lat="46.9193" lon="-0.92052">
        <ele>196</ele>
        <time>2021-03-03T22:00:25Z</time>
      </trkpt>
      <trkpt lat="46.91937" lon="-0.92028">
        <ele>196</ele>
        <time>2021-03-03T22:00:28Z</time>
      </trkpt>
      <trkpt lat="46.91942" lon="-0.92007">
        <ele>196</ele>
        <time>2021-03-03T22:00:31Z</time>
      </trkpt>
      <trkpt lat="46.91957" lon="-0.91867">
        <ele>195</ele>
        <time>2021-03-03T22:00:48Z</time>
      </trkpt>
      <trkpt lat="46.91965" lon="-0.91821">
        <ele>195</ele>
        <time>2021-03-03T22:00:54Z</time>
      </trkpt>
      <trkpt lat="46.91971" lon="-0.91797">
        <ele>195</ele>
        <time>2021-03-03T22:00:57Z</time>
      </trkpt>
      <trkpt lat="46.9198" lon="-0.91776">
        <ele>196</ele>
        <time>2021-03-03T22:01:00Z</time>
      </trkpt>
      <trkpt lat="46.92002" lon="-0.91735">
        <ele>196</ele>
        <time>2021-03-03T22:01:06Z</time>
      </trkpt>
      <trkpt lat="46.92016" lon="-0.91713">
        <ele>195</ele>
        <time>2021-03-03T22:01:10Z</time>
      </trkpt>
      <trkpt lat="46.92037" lon="-0.91688">
        <ele>194</ele>
        <time>2021-03-03T22:01:15Z</time>
      </trkpt>
      <trkpt lat="46.92087" lon="-0.91634">
        <ele>194</ele>
        <time>2021-03-03T22:01:26Z</time>
      </trkpt>
      <trkpt lat="46.92113" lon="-0.91605">
        <ele>193</ele>
        <time>2021-03-03T22:01:31Z</time>
      </trkpt>
      <trkpt lat="46.92133" lon="-0.91589">
        <ele>192</ele>
        <time>2021-03-03T22:01:36Z</time>
      </trkpt>
      <trkpt lat="46.92188" lon="-0.91551">
        <ele>190</ele>
        <time>2021-03-03T22:01:46Z</time>
      </trkpt>
      <trkpt lat="46.92204" lon="-0.91537">
        <ele>190</ele>
        <time>2021-03-03T22:01:50Z</time>
      </trkpt>
      <trkpt lat="46.92256" lon="-0.91485">
        <ele>190</ele>
        <time>2021-03-03T22:02:01Z</time>
      </trkpt>
      <trkpt lat="46.92305" lon="-0.91441">
        <ele>191</ele>
        <time>2021-03-03T22:02:11Z</time>
      </trkpt>
      <trkpt lat="46.92336" lon="-0.91404">
        <ele>193</ele>
        <time>2021-03-03T22:02:18Z</time>
      </trkpt>
      <trkpt lat="46.92395" lon="-0.91308">
        <ele>193</ele>
        <time>2021-03-03T22:02:34Z</time>
      </trkpt>
      <trkpt lat="46.92419" lon="-0.91272">
        <ele>193</ele>
        <time>2021-03-03T22:02:40Z</time>
      </trkpt>
      <trkpt lat="46.92449" lon="-0.91234">
        <ele>193</ele>
        <time>2021-03-03T22:02:47Z</time>
      </trkpt>
      <trkpt lat="46.92465" lon="-0.91216">
        <ele>193</ele>
        <time>2021-03-03T22:02:51Z</time>
      </trkpt>
      <trkpt lat="46.92477" lon="-0.91206">
        <ele>193</ele>
        <time>2021-03-03T22:02:53Z</time>
      </trkpt>
      <trkpt lat="46.9257" lon="-0.91157">
        <ele>195</ele>
        <time>2021-03-03T22:03:11Z</time>
      </trkpt>
      <trkpt lat="46.92583" lon="-0.91152">
        <ele>195</ele>
        <time>2021-03-03T22:03:13Z</time>
      </trkpt>
      <trkpt lat="46.9265" lon="-0.91139">
        <ele>197</ele>
        <time>2021-03-03T22:03:25Z</time>
      </trkpt>
      <trkpt lat="46.92661" lon="-0.91138">
        <ele>197</ele>
        <time>2021-03-03T22:03:27Z</time>
      </trkpt>
      <trkpt lat="46.9267" lon="-0.91135">
        <ele>197</ele>
        <time>2021-03-03T22:03:29Z</time>
      </trkpt>
      <trkpt lat="46.92674" lon="-0.91134">
        <ele>197</ele>
        <time>2021-03-03T22:03:29Z</time>
      </trkpt>
      <trkpt lat="46.92675" lon="-0.91123">
        <ele>197</ele>
        <time>2021-03-03T22:03:31Z</time>
      </trkpt>
      <trkpt lat="46.92676" lon="-0.9111">
        <ele>197</ele>
        <time>2021-03-03T22:03:32Z</time>
      </trkpt>
      <trkpt lat="46.92735" lon="-0.90861">
        <ele>193</ele>
        <time>2021-03-03T22:04:04Z</time>
      </trkpt>
      <trkpt lat="46.92772" lon="-0.90652">
        <ele>191</ele>
        <time>2021-03-03T22:04:31Z</time>
      </trkpt>
      <trkpt lat="46.92775" lon="-0.90642">
        <ele>191</ele>
        <time>2021-03-03T22:04:32Z</time>
      </trkpt>
      <trkpt lat="46.92784" lon="-0.90614">
        <ele>191</ele>
        <time>2021-03-03T22:04:36Z</time>
      </trkpt>
      <trkpt lat="46.92799" lon="-0.9058">
        <ele>192</ele>
        <time>2021-03-03T22:04:41Z</time>
      </trkpt>
      <trkpt lat="46.92804" lon="-0.90565">
        <ele>192</ele>
        <time>2021-03-03T22:04:43Z</time>
      </trkpt>
      <trkpt lat="46.92808" lon="-0.90547">
        <ele>193</ele>
        <time>2021-03-03T22:04:45Z</time>
      </trkpt>
      <trkpt lat="46.92811" lon="-0.90531">
        <ele>193</ele>
        <time>2021-03-03T22:04:47Z</time>
      </trkpt>
      <trkpt lat="46.92818" lon="-0.90468">
        <ele>194</ele>
        <time>2021-03-03T22:04:55Z</time>
      </trkpt>
      <trkpt lat="46.92822" lon="-0.90429">
        <ele>194</ele>
        <time>2021-03-03T22:05:00Z</time>
      </trkpt>
      <trkpt lat="46.92823" lon="-0.90415">
        <ele>194</ele>
        <time>2021-03-03T22:05:01Z</time>
      </trkpt>
      <trkpt lat="46.92822" lon="-0.90403">
        <ele>194</ele>
        <time>2021-03-03T22:05:03Z</time>
      </trkpt>
      <trkpt lat="46.92804" lon="-0.90353">
        <ele>192</ele>
        <time>2021-03-03T22:05:10Z</time>
      </trkpt>
      <trkpt lat="46.92803" lon="-0.90343">
        <ele>192</ele>
        <time>2021-03-03T22:05:11Z</time>
      </trkpt>
      <trkpt lat="46.92803" lon="-0.90335">
        <ele>192</ele>
        <time>2021-03-03T22:05:12Z</time>
      </trkpt>
      <trkpt lat="46.92805" lon="-0.90326">
        <ele>192</ele>
        <time>2021-03-03T22:05:13Z</time>
      </trkpt>
      <trkpt lat="46.92821" lon="-0.90291">
        <ele>192</ele>
        <time>2021-03-03T22:05:18Z</time>
      </trkpt>
      <trkpt lat="46.92833" lon="-0.9026">
        <ele>192</ele>
        <time>2021-03-03T22:05:22Z</time>
      </trkpt>
      <trkpt lat="46.92836" lon="-0.9025">
        <ele>192</ele>
        <time>2021-03-03T22:05:24Z</time>
      </trkpt>
      <trkpt lat="46.92837" lon="-0.90239">
        <ele>192</ele>
        <time>2021-03-03T22:05:25Z</time>
      </trkpt>
      <trkpt lat="46.92841" lon="-0.90239">
        <ele>192</ele>
        <time>2021-03-03T22:05:26Z</time>
      </trkpt>
      <trkpt lat="46.92992" lon="-0.90159">
        <ele>197</ele>
        <time>2021-03-03T22:05:54Z</time>
      </trkpt>
      <trkpt lat="46.93075" lon="-0.90124">
        <ele>198</ele>
        <time>2021-03-03T22:06:10Z</time>
      </trkpt>
      <trkpt lat="46.93101" lon="-0.90109">
        <ele>197</ele>
        <time>2021-03-03T22:06:15Z</time>
      </trkpt>
      <trkpt lat="46.93121" lon="-0.90093">
        <ele>196</ele>
        <time>2021-03-03T22:06:19Z</time>
      </trkpt>
      <trkpt lat="46.93123" lon="-0.90088">
        <ele>196</ele>
        <time>2021-03-03T22:06:19Z</time>
      </trkpt>
      <trkpt lat="46.93123" lon="-0.90074">
        <ele>196</ele>
        <time>2021-03-03T22:06:21Z</time>
      </trkpt>
      <trkpt lat="46.93136" lon="-0.90073">
        <ele>195</ele>
        <time>2021-03-03T22:06:23Z</time>
      </trkpt>
      <trkpt lat="46.93148" lon="-0.90069">
        <ele>194</ele>
        <time>2021-03-03T22:06:26Z</time>
      </trkpt>
      <trkpt lat="46.93163" lon="-0.90057">
        <ele>194</ele>
        <time>2021-03-03T22:06:29Z</time>
      </trkpt>
      <trkpt lat="46.93257" lon="-0.89973">
        <ele>194</ele>
        <time>2021-03-03T22:06:48Z</time>
      </trkpt>
      <trkpt lat="46.93308" lon="-0.8992">
        <ele>194</ele>
        <time>2021-03-03T22:06:59Z</time>
      </trkpt>
      <trkpt lat="46.93319" lon="-0.89907">
        <ele>194</ele>
        <time>2021-03-03T22:07:02Z</time>
      </trkpt>
      <trkpt lat="46.93358" lon="-0.89865">
        <ele>193</ele>
        <time>2021-03-03T22:07:11Z</time>
      </trkpt>
      <trkpt lat="46.93402" lon="-0.89814">
        <ele>192</ele>
        <time>2021-03-03T22:07:21Z</time>
      </trkpt>
      <trkpt lat="46.93423" lon="-0.89794">
        <ele>191</ele>
        <time>2021-03-03T22:07:25Z</time>
      </trkpt>
      <trkpt lat="46.93476" lon="-0.89763">
        <ele>188</ele>
        <time>2021-03-03T22:07:35Z</time>
      </trkpt>
      <trkpt lat="46.93474" lon="-0.89757">
        <ele>188</ele>
        <time>2021-03-03T22:07:36Z</time>
      </trkpt>
      <trkpt lat="46.93475" lon="-0.89746">
        <ele>188</ele>
        <time>2021-03-03T22:07:37Z</time>
      </trkpt>
      <trkpt lat="46.93477" lon="-0.8974">
        <ele>188</ele>
        <time>2021-03-03T22:07:38Z</time>
      </trkpt>
      <trkpt lat="46.93481" lon="-0.89735">
        <ele>188</ele>
        <time>2021-03-03T22:07:39Z</time>
      </trkpt>
      <trkpt lat="46.93485" lon="-0.89732">
        <ele>187</ele>
        <time>2021-03-03T22:07:40Z</time>
      </trkpt>
      <trkpt lat="46.9349" lon="-0.89732">
        <ele>187</ele>
        <time>2021-03-03T22:07:41Z</time>
      </trkpt>
      <trkpt lat="46.93495" lon="-0.89735">
        <ele>187</ele>
        <time>2021-03-03T22:07:42Z</time>
      </trkpt>
      <trkpt lat="46.93498" lon="-0.8974">
        <ele>187</ele>
        <time>2021-03-03T22:07:43Z</time>
      </trkpt>
      <trkpt lat="46.935" lon="-0.89746">
        <ele>187</ele>
        <time>2021-03-03T22:07:43Z</time>
      </trkpt>
      <trkpt lat="46.93501" lon="-0.89753">
        <ele>187</ele>
        <time>2021-03-03T22:07:44Z</time>
      </trkpt>
      <trkpt lat="46.93635" lon="-0.8975">
        <ele>179</ele>
        <time>2021-03-03T22:08:08Z</time>
      </trkpt>
      <trkpt lat="46.93755" lon="-0.89754">
        <ele>176</ele>
        <time>2021-03-03T22:08:29Z</time>
      </trkpt>
      <trkpt lat="46.93783" lon="-0.89756">
        <ele>176</ele>
        <time>2021-03-03T22:08:34Z</time>
      </trkpt>
      <trkpt lat="46.9383" lon="-0.8976">
        <ele>175</ele>
        <time>2021-03-03T22:08:43Z</time>
      </trkpt>
      <trkpt lat="46.93888" lon="-0.89766">
        <ele>175</ele>
        <time>2021-03-03T22:08:53Z</time>
      </trkpt>
      <trkpt lat="46.93939" lon="-0.89767">
        <ele>175</ele>
        <time>2021-03-03T22:09:02Z</time>
      </trkpt>
      <trkpt lat="46.94075" lon="-0.89752">
        <ele>172</ele>
        <time>2021-03-03T22:09:26Z</time>
      </trkpt>
      <trkpt lat="46.94106" lon="-0.8975">
        <ele>172</ele>
        <time>2021-03-03T22:09:32Z</time>
      </trkpt>
      <trkpt lat="46.94126" lon="-0.89747">
        <ele>172</ele>
        <time>2021-03-03T22:09:36Z</time>
      </trkpt>
      <trkpt lat="46.94149" lon="-0.89745">
        <ele>171</ele>
        <time>2021-03-03T22:09:40Z</time>
      </trkpt>
      <trkpt lat="46.94197" lon="-0.89739">
        <ele>172</ele>
        <time>2021-03-03T22:09:48Z</time>
      </trkpt>
      <trkpt lat="46.94229" lon="-0.89734">
        <ele>173</ele>
        <time>2021-03-03T22:09:54Z</time>
      </trkpt>
      <trkpt lat="46.94254" lon="-0.89728">
        <ele>174</ele>
        <time>2021-03-03T22:09:58Z</time>
      </trkpt>
      <trkpt lat="46.94304" lon="-0.89712">
        <ele>174</ele>
        <time>2021-03-03T22:10:08Z</time>
      </trkpt>
      <trkpt lat="46.94309" lon="-0.8971">
        <ele>174</ele>
        <time>2021-03-03T22:10:08Z</time>
      </trkpt>
      <trkpt lat="46.94363" lon="-0.89691">
        <ele>175</ele>
        <time>2021-03-03T22:10:18Z</time>
      </trkpt>
      <trkpt lat="46.94519" lon="-0.89643">
        <ele>171</ele>
        <time>2021-03-03T22:10:47Z</time>
      </trkpt>
      <trkpt lat="46.94555" lon="-0.89634">
        <ele>171</ele>
        <time>2021-03-03T22:10:53Z</time>
      </trkpt>
      <trkpt lat="46.94577" lon="-0.89633">
        <ele>170</ele>
        <time>2021-03-03T22:10:57Z</time>
      </trkpt>
      <trkpt lat="46.94612" lon="-0.89635">
        <ele>169</ele>
        <time>2021-03-03T22:11:03Z</time>
      </trkpt>
      <trkpt lat="46.94656" lon="-0.89644">
        <ele>168</ele>
        <time>2021-03-03T22:11:11Z</time>
      </trkpt>
      <trkpt lat="46.94677" lon="-0.89652">
        <ele>167</ele>
        <time>2021-03-03T22:11:15Z</time>
      </trkpt>
      <trkpt lat="46.9473" lon="-0.89681">
        <ele>165</ele>
        <time>2021-03-03T22:11:25Z</time>
      </trkpt>
      <trkpt lat="46.94755" lon="-0.89693">
        <ele>165</ele>
        <time>2021-03-03T22:11:30Z</time>
      </trkpt>
      <trkpt lat="46.94782" lon="-0.897">
        <ele>164</ele>
        <time>2021-03-03T22:11:35Z</time>
      </trkpt>
      <trkpt lat="46.94827" lon="-0.89706">
        <ele>163</ele>
        <time>2021-03-03T22:11:43Z</time>
      </trkpt>
      <trkpt lat="46.94829" lon="-0.89698">
        <ele>163</ele>
        <time>2021-03-03T22:11:44Z</time>
      </trkpt>
      <trkpt lat="46.94832" lon="-0.89692">
        <ele>163</ele>
        <time>2021-03-03T22:11:45Z</time>
      </trkpt>
      <trkpt lat="46.94837" lon="-0.89688">
        <ele>163</ele>
        <time>2021-03-03T22:11:46Z</time>
      </trkpt>
      <trkpt lat="46.94842" lon="-0.89687">
        <ele>163</ele>
        <time>2021-03-03T22:11:47Z</time>
      </trkpt>
      <trkpt lat="46.94848" lon="-0.89689">
        <ele>162</ele>
        <time>2021-03-03T22:11:48Z</time>
      </trkpt>
      <trkpt lat="46.94852" lon="-0.89693">
        <ele>162</ele>
        <time>2021-03-03T22:11:49Z</time>
      </trkpt>
      <trkpt lat="46.9486" lon="-0.89686">
        <ele>162</ele>
        <time>2021-03-03T22:11:50Z</time>
      </trkpt>
      <trkpt lat="46.94866" lon="-0.8968">
        <ele>162</ele>
        <time>2021-03-03T22:11:52Z</time>
      </trkpt>
      <trkpt lat="46.94904" lon="-0.8964">
        <ele>160</ele>
        <time>2021-03-03T22:12:00Z</time>
      </trkpt>
      <trkpt lat="46.9494" lon="-0.89606">
        <ele>158</ele>
        <time>2021-03-03T22:12:08Z</time>
      </trkpt>
      <trkpt lat="46.94962" lon="-0.89589">
        <ele>158</ele>
        <time>2021-03-03T22:12:12Z</time>
      </trkpt>
      <trkpt lat="46.94977" lon="-0.89581">
        <ele>158</ele>
        <time>2021-03-03T22:12:15Z</time>
      </trkpt>
      <trkpt lat="46.95004" lon="-0.8957">
        <ele>157</ele>
        <time>2021-03-03T22:12:20Z</time>
      </trkpt>
      <trkpt lat="46.95031" lon="-0.89565">
        <ele>156</ele>
        <time>2021-03-03T22:12:25Z</time>
      </trkpt>
      <trkpt lat="46.95067" lon="-0.89566">
        <ele>155</ele>
        <time>2021-03-03T22:12:31Z</time>
      </trkpt>
      <trkpt lat="46.95099" lon="-0.89574">
        <ele>154</ele>
        <time>2021-03-03T22:12:37Z</time>
      </trkpt>
      <trkpt lat="46.95133" lon="-0.8959">
        <ele>151</ele>
        <time>2021-03-03T22:12:43Z</time>
      </trkpt>
      <trkpt lat="46.95146" lon="-0.89599">
        <ele>150</ele>
        <time>2021-03-03T22:12:46Z</time>
      </trkpt>
      <trkpt lat="46.9516" lon="-0.89609">
        <ele>149</ele>
        <time>2021-03-03T22:12:48Z</time>
      </trkpt>
      <trkpt lat="46.95184" lon="-0.89625">
        <ele>148</ele>
        <time>2021-03-03T22:12:53Z</time>
      </trkpt>
      <trkpt lat="46.95219" lon="-0.89649">
        <ele>148</ele>
        <time>2021-03-03T22:13:00Z</time>
      </trkpt>
      <trkpt lat="46.95269" lon="-0.89674">
        <ele>148</ele>
        <time>2021-03-03T22:13:09Z</time>
      </trkpt>
      <trkpt lat="46.95324" lon="-0.89704">
        <ele>149</ele>
        <time>2021-03-03T22:13:20Z</time>
      </trkpt>
      <trkpt lat="46.95414" lon="-0.89754">
        <ele>143</ele>
        <time>2021-03-03T22:13:37Z</time>
      </trkpt>
      <trkpt lat="46.95448" lon="-0.89773">
        <ele>143</ele>
        <time>2021-03-03T22:13:43Z</time>
      </trkpt>
      <trkpt lat="46.9548" lon="-0.89788">
        <ele>143</ele>
        <time>2021-03-03T22:13:49Z</time>
      </trkpt>
      <trkpt lat="46.9551" lon="-0.89799">
        <ele>142</ele>
        <time>2021-03-03T22:13:55Z</time>
      </trkpt>
      <trkpt lat="46.95533" lon="-0.89806">
        <ele>142</ele>
        <time>2021-03-03T22:13:59Z</time>
      </trkpt>
      <trkpt lat="46.95545" lon="-0.89806">
        <ele>142</ele>
        <time>2021-03-03T22:14:01Z</time>
      </trkpt>
      <trkpt lat="46.95572" lon="-0.89805">
        <ele>142</ele>
        <time>2021-03-03T22:14:06Z</time>
      </trkpt>
      <trkpt lat="46.95582" lon="-0.89805">
        <ele>142</ele>
        <time>2021-03-03T22:14:08Z</time>
      </trkpt>
      <trkpt lat="46.95597" lon="-0.89804">
        <ele>142</ele>
        <time>2021-03-03T22:14:11Z</time>
      </trkpt>
      <trkpt lat="46.95609" lon="-0.89803">
        <ele>141</ele>
        <time>2021-03-03T22:14:13Z</time>
      </trkpt>
      <trkpt lat="46.95622" lon="-0.89797">
        <ele>141</ele>
        <time>2021-03-03T22:14:15Z</time>
      </trkpt>
      <trkpt lat="46.95651" lon="-0.89779">
        <ele>140</ele>
        <time>2021-03-03T22:14:21Z</time>
      </trkpt>
      <trkpt lat="46.95676" lon="-0.89756">
        <ele>139</ele>
        <time>2021-03-03T22:14:26Z</time>
      </trkpt>
      <trkpt lat="46.95683" lon="-0.89748">
        <ele>138</ele>
        <time>2021-03-03T22:14:28Z</time>
      </trkpt>
      <trkpt lat="46.95697" lon="-0.89731">
        <ele>138</ele>
        <time>2021-03-03T22:14:31Z</time>
      </trkpt>
      <trkpt lat="46.95742" lon="-0.89675">
        <ele>135</ele>
        <time>2021-03-03T22:14:41Z</time>
      </trkpt>
      <trkpt lat="46.95754" lon="-0.89661">
        <ele>135</ele>
        <time>2021-03-03T22:14:44Z</time>
      </trkpt>
      <trkpt lat="46.9577" lon="-0.89643">
        <ele>135</ele>
        <time>2021-03-03T22:14:48Z</time>
      </trkpt>
      <trkpt lat="46.95792" lon="-0.89617">
        <ele>135</ele>
        <time>2021-03-03T22:14:53Z</time>
      </trkpt>
      <trkpt lat="46.95806" lon="-0.89603">
        <ele>135</ele>
        <time>2021-03-03T22:14:56Z</time>
      </trkpt>
      <trkpt lat="46.95818" lon="-0.89583">
        <ele>134</ele>
        <time>2021-03-03T22:14:59Z</time>
      </trkpt>
      <trkpt lat="46.95809" lon="-0.89572">
        <ele>134</ele>
        <time>2021-03-03T22:15:01Z</time>
      </trkpt>
      <trkpt lat="46.95778" lon="-0.89549">
        <ele>135</ele>
        <time>2021-03-03T22:15:07Z</time>
      </trkpt>
      <trkpt lat="46.95774" lon="-0.89546">
        <ele>135</ele>
        <time>2021-03-03T22:15:08Z</time>
      </trkpt>
      <trkpt lat="46.95778" lon="-0.89528">
        <ele>135</ele>
        <time>2021-03-03T22:15:10Z</time>
      </trkpt>
      <trkpt lat="46.95781" lon="-0.89517">
        <ele>135</ele>
        <time>2021-03-03T22:15:12Z</time>
      </trkpt>
      <trkpt lat="46.95804" lon="-0.89463">
        <ele>133</ele>
        <time>2021-03-03T22:15:19Z</time>
      </trkpt>
      <trkpt lat="46.95808" lon="-0.89449">
        <ele>132</ele>
        <time>2021-03-03T22:15:21Z</time>
      </trkpt>
      <trkpt lat="46.95841" lon="-0.89305">
        <ele>127</ele>
        <time>2021-03-03T22:15:40Z</time>
      </trkpt>
      <trkpt lat="46.95844" lon="-0.89292">
        <ele>126</ele>
        <time>2021-03-03T22:15:41Z</time>
      </trkpt>
      <trkpt lat="46.95853" lon="-0.8928">
        <ele>126</ele>
        <time>2021-03-03T22:15:44Z</time>
      </trkpt>
      <trkpt lat="46.9586" lon="-0.89271">
        <ele>125</ele>
        <time>2021-03-03T22:15:45Z</time>
      </trkpt>
      <trkpt lat="46.95864" lon="-0.8926">
        <ele>125</ele>
        <time>2021-03-03T22:15:47Z</time>
      </trkpt>
      <trkpt lat="46.95875" lon="-0.89207">
        <ele>124</ele>
        <time>2021-03-03T22:15:53Z</time>
      </trkpt>
      <trkpt lat="46.9588" lon="-0.89185">
        <ele>123</ele>
        <time>2021-03-03T22:15:56Z</time>
      </trkpt>
      <trkpt lat="46.95881" lon="-0.89177">
        <ele>123</ele>
        <time>2021-03-03T22:15:57Z</time>
      </trkpt>
      <trkpt lat="46.95882" lon="-0.89166">
        <ele>123</ele>
        <time>2021-03-03T22:15:59Z</time>
      </trkpt>
      <trkpt lat="46.95883" lon="-0.89155">
        <ele>123</ele>
        <time>2021-03-03T22:16:00Z</time>
      </trkpt>
      <trkpt lat="46.95898" lon="-0.89118">
        <ele>122</ele>
        <time>2021-03-03T22:16:05Z</time>
      </trkpt>
      <trkpt lat="46.9592" lon="-0.89097">
        <ele>121</ele>
        <time>2021-03-03T22:16:10Z</time>
      </trkpt>
      <trkpt lat="46.95927" lon="-0.89094">
        <ele>121</ele>
        <time>2021-03-03T22:16:11Z</time>
      </trkpt>
      <trkpt lat="46.95928" lon="-0.89091">
        <ele>121</ele>
        <time>2021-03-03T22:16:12Z</time>
      </trkpt>
      <trkpt lat="46.95929" lon="-0.89088">
        <ele>121</ele>
        <time>2021-03-03T22:16:12Z</time>
      </trkpt>
      <trkpt lat="46.95931" lon="-0.89086">
        <ele>121</ele>
        <time>2021-03-03T22:16:12Z</time>
      </trkpt>
      <trkpt lat="46.95933" lon="-0.89086">
        <ele>121</ele>
        <time>2021-03-03T22:16:13Z</time>
      </trkpt>
      <trkpt lat="46.95934" lon="-0.89087">
        <ele>121</ele>
        <time>2021-03-03T22:16:13Z</time>
      </trkpt>
      <trkpt lat="46.9594" lon="-0.89082">
        <ele>120</ele>
        <time>2021-03-03T22:16:14Z</time>
      </trkpt>
      <trkpt lat="46.95942" lon="-0.8908">
        <ele>120</ele>
        <time>2021-03-03T22:16:15Z</time>
      </trkpt>
      <trkpt lat="46.95948" lon="-0.89071">
        <ele>120</ele>
        <time>2021-03-03T22:16:16Z</time>
      </trkpt>
      <trkpt lat="46.95971" lon="-0.89036">
        <ele>117</ele>
        <time>2021-03-03T22:16:22Z</time>
      </trkpt>
      <trkpt lat="46.95994" lon="-0.88991">
        <ele>115</ele>
        <time>2021-03-03T22:16:29Z</time>
      </trkpt>
      <trkpt lat="46.96011" lon="-0.88942">
        <ele>113</ele>
        <time>2021-03-03T22:16:36Z</time>
      </trkpt>
      <trkpt lat="46.96014" lon="-0.88926">
        <ele>112</ele>
        <time>2021-03-03T22:16:38Z</time>
      </trkpt>
      <trkpt lat="46.96021" lon="-0.88887">
        <ele>112</ele>
        <time>2021-03-03T22:16:42Z</time>
      </trkpt>
      <trkpt lat="46.9603" lon="-0.88844">
        <ele>112</ele>
        <time>2021-03-03T22:16:48Z</time>
      </trkpt>
      <trkpt lat="46.96037" lon="-0.88794">
        <ele>112</ele>
        <time>2021-03-03T22:16:54Z</time>
      </trkpt>
      <trkpt lat="46.96041" lon="-0.88746">
        <ele>113</ele>
        <time>2021-03-03T22:17:00Z</time>
      </trkpt>
      <trkpt lat="46.96039" lon="-0.8873">
        <ele>113</ele>
        <time>2021-03-03T22:17:02Z</time>
      </trkpt>
      <trkpt lat="46.96036" lon="-0.88719">
        <ele>113</ele>
        <time>2021-03-03T22:17:03Z</time>
      </trkpt>
      <trkpt lat="46.96038" lon="-0.88711">
        <ele>113</ele>
        <time>2021-03-03T22:17:04Z</time>
      </trkpt>
      <trkpt lat="46.96045" lon="-0.88706">
        <ele>112</ele>
        <time>2021-03-03T22:17:06Z</time>
      </trkpt>
      <trkpt lat="46.9605" lon="-0.88707">
        <ele>112</ele>
        <time>2021-03-03T22:17:07Z</time>
      </trkpt>
      <trkpt lat="46.96054" lon="-0.88714">
        <ele>112</ele>
        <time>2021-03-03T22:17:08Z</time>
      </trkpt>
      <trkpt lat="46.96055" lon="-0.88724">
        <ele>112</ele>
        <time>2021-03-03T22:17:09Z</time>
      </trkpt>
      <trkpt lat="46.96122" lon="-0.88756">
        <ele>112</ele>
        <time>2021-03-03T22:17:22Z</time>
      </trkpt>
      <trkpt lat="46.96146" lon="-0.88771">
        <ele>112</ele>
        <time>2021-03-03T22:17:26Z</time>
      </trkpt>
      <trkpt lat="46.96181" lon="-0.88797">
        <ele>114</ele>
        <time>2021-03-03T22:17:33Z</time>
      </trkpt>
      <trkpt lat="46.96207" lon="-0.8882">
        <ele>116</ele>
        <time>2021-03-03T22:17:39Z</time>
      </trkpt>
      <trkpt lat="46.96283" lon="-0.88899">
        <ele>117</ele>
        <time>2021-03-03T22:17:55Z</time>
      </trkpt>
      <trkpt lat="46.96351" lon="-0.88936">
        <ele>120</ele>
        <time>2021-03-03T22:18:08Z</time>
      </trkpt>
      <trkpt lat="46.96392" lon="-0.88955">
        <ele>122</ele>
        <time>2021-03-03T22:18:16Z</time>
      </trkpt>
      <trkpt lat="46.96434" lon="-0.88982">
        <ele>124</ele>
        <time>2021-03-03T22:18:24Z</time>
      </trkpt>
      <trkpt lat="46.96458" lon="-0.89004">
        <ele>126</ele>
        <time>2021-03-03T22:18:29Z</time>
      </trkpt>
      <trkpt lat="46.965" lon="-0.89053">
        <ele>130</ele>
        <time>2021-03-03T22:18:38Z</time>
      </trkpt>
      <trkpt lat="46.96513" lon="-0.89071">
        <ele>131</ele>
        <time>2021-03-03T22:18:42Z</time>
      </trkpt>
      <trkpt lat="46.96564" lon="-0.89153">
        <ele>132</ele>
        <time>2021-03-03T22:18:55Z</time>
      </trkpt>
      <trkpt lat="46.96577" lon="-0.89169">
        <ele>132</ele>
        <time>2021-03-03T22:18:58Z</time>
      </trkpt>
      <trkpt lat="46.96594" lon="-0.89187">
        <ele>133</ele>
        <time>2021-03-03T22:19:02Z</time>
      </trkpt>
      <trkpt lat="46.96721" lon="-0.89278">
        <ele>140</ele>
        <time>2021-03-03T22:19:27Z</time>
      </trkpt>
      <trkpt lat="46.96743" lon="-0.89288">
        <ele>141</ele>
        <time>2021-03-03T22:19:31Z</time>
      </trkpt>
      <trkpt lat="46.96755" lon="-0.8929">
        <ele>141</ele>
        <time>2021-03-03T22:19:33Z</time>
      </trkpt>
      <trkpt lat="46.96767" lon="-0.89302">
        <ele>141</ele>
        <time>2021-03-03T22:19:36Z</time>
      </trkpt>
      <trkpt lat="46.96782" lon="-0.89307">
        <ele>141</ele>
        <time>2021-03-03T22:19:39Z</time>
      </trkpt>
      <trkpt lat="46.96915" lon="-0.89339">
        <ele>144</ele>
        <time>2021-03-03T22:20:03Z</time>
      </trkpt>
      <trkpt lat="46.96926" lon="-0.89337">
        <ele>143</ele>
        <time>2021-03-03T22:20:05Z</time>
      </trkpt>
      <trkpt lat="46.96944" lon="-0.89324">
        <ele>143</ele>
        <time>2021-03-03T22:20:08Z</time>
      </trkpt>
      <trkpt lat="46.97096" lon="-0.89175">
        <ele>138</ele>
        <time>2021-03-03T22:20:41Z</time>
      </trkpt>
      <trkpt lat="46.97122" lon="-0.89154">
        <ele>136</ele>
        <time>2021-03-03T22:20:46Z</time>
      </trkpt>
      <trkpt lat="46.97142" lon="-0.89144">
        <ele>135</ele>
        <time>2021-03-03T22:20:50Z</time>
      </trkpt>
      <trkpt lat="46.97162" lon="-0.89139">
        <ele>134</ele>
        <time>2021-03-03T22:20:53Z</time>
      </trkpt>
      <trkpt lat="46.9719" lon="-0.89137">
        <ele>131</ele>
        <time>2021-03-03T22:20:58Z</time>
      </trkpt>
      <trkpt lat="46.97224" lon="-0.89143">
        <ele>129</ele>
        <time>2021-03-03T22:21:04Z</time>
      </trkpt>
      <trkpt lat="46.97244" lon="-0.89149">
        <ele>127</ele>
        <time>2021-03-03T22:21:08Z</time>
      </trkpt>
      <trkpt lat="46.97374" lon="-0.89199">
        <ele>118</ele>
        <time>2021-03-03T22:21:32Z</time>
      </trkpt>
      <trkpt lat="46.97388" lon="-0.89203">
        <ele>117</ele>
        <time>2021-03-03T22:21:34Z</time>
      </trkpt>
      <trkpt lat="46.97417" lon="-0.89204">
        <ele>114</ele>
        <time>2021-03-03T22:21:40Z</time>
      </trkpt>
      <trkpt lat="46.97505" lon="-0.89195">
        <ele>110</ele>
        <time>2021-03-03T22:21:55Z</time>
      </trkpt>
      <trkpt lat="46.97537" lon="-0.89195">
        <ele>110</ele>
        <time>2021-03-03T22:22:01Z</time>
      </trkpt>
      <trkpt lat="46.97567" lon="-0.89202">
        <ele>110</ele>
        <time>2021-03-03T22:22:06Z</time>
      </trkpt>
      <trkpt lat="46.97624" lon="-0.89225">
        <ele>111</ele>
        <time>2021-03-03T22:22:17Z</time>
      </trkpt>
      <trkpt lat="46.97644" lon="-0.89232">
        <ele>111</ele>
        <time>2021-03-03T22:22:21Z</time>
      </trkpt>
      <trkpt lat="46.97695" lon="-0.89253">
        <ele>112</ele>
        <time>2021-03-03T22:22:30Z</time>
      </trkpt>
      <trkpt lat="46.97737" lon="-0.89267">
        <ele>112</ele>
        <time>2021-03-03T22:22:38Z</time>
      </trkpt>
      <trkpt lat="46.97766" lon="-0.89269">
        <ele>113</ele>
        <time>2021-03-03T22:22:43Z</time>
      </trkpt>
      <trkpt lat="46.97808" lon="-0.89267">
        <ele>115</ele>
        <time>2021-03-03T22:22:50Z</time>
      </trkpt>
      <trkpt lat="46.97851" lon="-0.89263">
        <ele>118</ele>
        <time>2021-03-03T22:22:58Z</time>
      </trkpt>
      <trkpt lat="46.97862" lon="-0.89262">
        <ele>119</ele>
        <time>2021-03-03T22:23:00Z</time>
      </trkpt>
      <trkpt lat="46.98174" lon="-0.89239">
        <ele>134</ele>
        <time>2021-03-03T22:23:56Z</time>
      </trkpt>
      <trkpt lat="46.98207" lon="-0.89234">
        <ele>134</ele>
        <time>2021-03-03T22:24:01Z</time>
      </trkpt>
      <trkpt lat="46.98258" lon="-0.8922">
        <ele>135</ele>
        <time>2021-03-03T22:24:11Z</time>
      </trkpt>
      <trkpt lat="46.9828" lon="-0.89211">
        <ele>135</ele>
        <time>2021-03-03T22:24:15Z</time>
      </trkpt>
      <trkpt lat="46.98317" lon="-0.89193">
        <ele>135</ele>
        <time>2021-03-03T22:24:22Z</time>
      </trkpt>
      <trkpt lat="46.98461" lon="-0.89109">
        <ele>133</ele>
        <time>2021-03-03T22:24:49Z</time>
      </trkpt>
      <trkpt lat="46.9849" lon="-0.89095">
        <ele>134</ele>
        <time>2021-03-03T22:24:55Z</time>
      </trkpt>
      <trkpt lat="46.98557" lon="-0.89067">
        <ele>132</ele>
        <time>2021-03-03T22:25:07Z</time>
      </trkpt>
      <trkpt lat="46.98622" lon="-0.89047">
        <ele>131</ele>
        <time>2021-03-03T22:25:19Z</time>
      </trkpt>
      <trkpt lat="46.98657" lon="-0.89039">
        <ele>131</ele>
        <time>2021-03-03T22:25:25Z</time>
      </trkpt>
      <trkpt lat="46.98719" lon="-0.89027">
        <ele>131</ele>
        <time>2021-03-03T22:25:36Z</time>
      </trkpt>
      <trkpt lat="46.98816" lon="-0.89011">
        <ele>132</ele>
        <time>2021-03-03T22:25:54Z</time>
      </trkpt>
      <trkpt lat="46.98859" lon="-0.89006">
        <ele>132</ele>
        <time>2021-03-03T22:26:01Z</time>
      </trkpt>
      <trkpt lat="46.98897" lon="-0.89005">
        <ele>133</ele>
        <time>2021-03-03T22:26:08Z</time>
      </trkpt>
      <trkpt lat="46.98985" lon="-0.89015">
        <ele>135</ele>
        <time>2021-03-03T22:26:24Z</time>
      </trkpt>
      <trkpt lat="46.99062" lon="-0.89032">
        <ele>136</ele>
        <time>2021-03-03T22:26:38Z</time>
      </trkpt>
      <trkpt lat="46.9909" lon="-0.89042">
        <ele>136</ele>
        <time>2021-03-03T22:26:43Z</time>
      </trkpt>
      <trkpt lat="46.99103" lon="-0.89048">
        <ele>136</ele>
        <time>2021-03-03T22:26:45Z</time>
      </trkpt>
      <trkpt lat="46.9912" lon="-0.89059">
        <ele>136</ele>
        <time>2021-03-03T22:26:49Z</time>
      </trkpt>
      <trkpt lat="46.99137" lon="-0.8907">
        <ele>136</ele>
        <time>2021-03-03T22:26:52Z</time>
      </trkpt>
      <trkpt lat="46.99162" lon="-0.89092">
        <ele>136</ele>
        <time>2021-03-03T22:26:57Z</time>
      </trkpt>
      <trkpt lat="46.99189" lon="-0.89121">
        <ele>136</ele>
        <time>2021-03-03T22:27:03Z</time>
      </trkpt>
      <trkpt lat="46.99249" lon="-0.89191">
        <ele>134</ele>
        <time>2021-03-03T22:27:17Z</time>
      </trkpt>
      <trkpt lat="46.99259" lon="-0.89201">
        <ele>134</ele>
        <time>2021-03-03T22:27:19Z</time>
      </trkpt>
      <trkpt lat="46.99271" lon="-0.89214">
        <ele>133</ele>
        <time>2021-03-03T22:27:21Z</time>
      </trkpt>
      <trkpt lat="46.993" lon="-0.8924">
        <ele>132</ele>
        <time>2021-03-03T22:27:28Z</time>
      </trkpt>
      <trkpt lat="46.99353" lon="-0.89276">
        <ele>131</ele>
        <time>2021-03-03T22:27:38Z</time>
      </trkpt>
      <trkpt lat="46.99393" lon="-0.89297">
        <ele>130</ele>
        <time>2021-03-03T22:27:45Z</time>
      </trkpt>
      <trkpt lat="46.9942" lon="-0.89305">
        <ele>129</ele>
        <time>2021-03-03T22:27:50Z</time>
      </trkpt>
      <trkpt lat="46.99451" lon="-0.89311">
        <ele>129</ele>
        <time>2021-03-03T22:27:56Z</time>
      </trkpt>
      <trkpt lat="46.99491" lon="-0.89308">
        <ele>129</ele>
        <time>2021-03-03T22:28:03Z</time>
      </trkpt>
      <trkpt lat="46.99518" lon="-0.893">
        <ele>130</ele>
        <time>2021-03-03T22:28:08Z</time>
      </trkpt>
      <trkpt lat="46.99529" lon="-0.89295">
        <ele>130</ele>
        <time>2021-03-03T22:28:10Z</time>
      </trkpt>
      <trkpt lat="46.99529" lon="-0.8929">
        <ele>131</ele>
        <time>2021-03-03T22:28:11Z</time>
      </trkpt>
      <trkpt lat="46.9953" lon="-0.89285">
        <ele>131</ele>
        <time>2021-03-03T22:28:11Z</time>
      </trkpt>
      <trkpt lat="46.99535" lon="-0.89277">
        <ele>131</ele>
        <time>2021-03-03T22:28:13Z</time>
      </trkpt>
      <trkpt lat="46.99538" lon="-0.89275">
        <ele>131</ele>
        <time>2021-03-03T22:28:13Z</time>
      </trkpt>
      <trkpt lat="46.99542" lon="-0.89276">
        <ele>132</ele>
        <time>2021-03-03T22:28:14Z</time>
      </trkpt>
      <trkpt lat="46.99548" lon="-0.8928">
        <ele>132</ele>
        <time>2021-03-03T22:28:15Z</time>
      </trkpt>
      <trkpt lat="46.99549" lon="-0.89285">
        <ele>132</ele>
        <time>2021-03-03T22:28:16Z</time>
      </trkpt>
      <trkpt lat="46.99574" lon="-0.89276">
        <ele>133</ele>
        <time>2021-03-03T22:28:20Z</time>
      </trkpt>
      <trkpt lat="46.99603" lon="-0.89268">
        <ele>134</ele>
        <time>2021-03-03T22:28:26Z</time>
      </trkpt>
      <trkpt lat="46.99654" lon="-0.89273">
        <ele>137</ele>
        <time>2021-03-03T22:28:35Z</time>
      </trkpt>
      <trkpt lat="46.99675" lon="-0.89272">
        <ele>138</ele>
        <time>2021-03-03T22:28:38Z</time>
      </trkpt>
      <trkpt lat="46.99683" lon="-0.89268">
        <ele>138</ele>
        <time>2021-03-03T22:28:40Z</time>
      </trkpt>
      <trkpt lat="46.99706" lon="-0.89256">
        <ele>139</ele>
        <time>2021-03-03T22:28:44Z</time>
      </trkpt>
      <trkpt lat="46.99719" lon="-0.89243">
        <ele>140</ele>
        <time>2021-03-03T22:28:47Z</time>
      </trkpt>
      <trkpt lat="46.99717" lon="-0.89238">
        <ele>140</ele>
        <time>2021-03-03T22:28:48Z</time>
      </trkpt>
      <trkpt lat="46.99716" lon="-0.89233">
        <ele>140</ele>
        <time>2021-03-03T22:28:48Z</time>
      </trkpt>
      <trkpt lat="46.99717" lon="-0.89228">
        <ele>140</ele>
        <time>2021-03-03T22:28:49Z</time>
      </trkpt>
      <trkpt lat="46.99719" lon="-0.89224">
        <ele>140</ele>
        <time>2021-03-03T22:28:50Z</time>
      </trkpt>
      <trkpt lat="46.99721" lon="-0.8922">
        <ele>141</ele>
        <time>2021-03-03T22:28:50Z</time>
      </trkpt>
      <trkpt lat="46.99724" lon="-0.89218">
        <ele>141</ele>
        <time>2021-03-03T22:28:51Z</time>
      </trkpt>
      <trkpt lat="46.99718" lon="-0.89195">
        <ele>141</ele>
        <time>2021-03-03T22:28:54Z</time>
      </trkpt>
      <trkpt lat="46.99714" lon="-0.89181">
        <ele>141</ele>
        <time>2021-03-03T22:28:56Z</time>
      </trkpt>
      <trkpt lat="46.99711" lon="-0.89172">
        <ele>141</ele>
        <time>2021-03-03T22:28:57Z</time>
      </trkpt>
      <trkpt lat="46.99709" lon="-0.89166">
        <ele>141</ele>
        <time>2021-03-03T22:28:58Z</time>
      </trkpt>
      <trkpt lat="46.99687" lon="-0.891">
        <ele>140</ele>
        <time>2021-03-03T22:29:07Z</time>
      </trkpt>
      <trkpt lat="46.9969" lon="-0.89001">
        <ele>144</ele>
        <time>2021-03-03T22:29:19Z</time>
      </trkpt>
      <trkpt lat="46.99694" lon="-0.88977">
        <ele>144</ele>
        <time>2021-03-03T22:29:22Z</time>
      </trkpt>
      <trkpt lat="46.99714" lon="-0.88915">
        <ele>146</ele>
        <time>2021-03-03T22:29:30Z</time>
      </trkpt>
      <trkpt lat="46.99722" lon="-0.88883">
        <ele>148</ele>
        <time>2021-03-03T22:29:34Z</time>
      </trkpt>
      <trkpt lat="46.99726" lon="-0.88855">
        <ele>149</ele>
        <time>2021-03-03T22:29:37Z</time>
      </trkpt>
      <trkpt lat="46.99727" lon="-0.88828">
        <ele>151</ele>
        <time>2021-03-03T22:29:41Z</time>
      </trkpt>
      <trkpt lat="46.99727" lon="-0.88821">
        <ele>151</ele>
        <time>2021-03-03T22:29:42Z</time>
      </trkpt>
      <trkpt lat="46.99732" lon="-0.88759">
        <ele>156</ele>
        <time>2021-03-03T22:29:49Z</time>
      </trkpt>
      <trkpt lat="46.99737" lon="-0.88694">
        <ele>160</ele>
        <time>2021-03-03T22:29:57Z</time>
      </trkpt>
      <trkpt lat="46.9974" lon="-0.8866">
        <ele>162</ele>
        <time>2021-03-03T22:30:01Z</time>
      </trkpt>
      <trkpt lat="46.99747" lon="-0.88614">
        <ele>164</ele>
        <time>2021-03-03T22:30:07Z</time>
      </trkpt>
      <trkpt lat="46.99751" lon="-0.88551">
        <ele>166</ele>
        <time>2021-03-03T22:30:15Z</time>
      </trkpt>
      <trkpt lat="46.99757" lon="-0.88465">
        <ele>167</ele>
        <time>2021-03-03T22:30:25Z</time>
      </trkpt>
      <trkpt lat="46.99757" lon="-0.88448">
        <ele>167</ele>
        <time>2021-03-03T22:30:27Z</time>
      </trkpt>
      <trkpt lat="46.99755" lon="-0.8843">
        <ele>167</ele>
        <time>2021-03-03T22:30:29Z</time>
      </trkpt>
      <trkpt lat="46.9975" lon="-0.8841">
        <ele>167</ele>
        <time>2021-03-03T22:30:32Z</time>
      </trkpt>
      <trkpt lat="46.99736" lon="-0.88384">
        <ele>166</ele>
        <time>2021-03-03T22:30:36Z</time>
      </trkpt>
      <trkpt lat="46.99728" lon="-0.88369">
        <ele>165</ele>
        <time>2021-03-03T22:30:38Z</time>
      </trkpt>
      <trkpt lat="46.99721" lon="-0.8835">
        <ele>164</ele>
        <time>2021-03-03T22:30:41Z</time>
      </trkpt>
      <trkpt lat="46.99702" lon="-0.883">
        <ele>163</ele>
        <time>2021-03-03T22:30:48Z</time>
      </trkpt>
      <trkpt lat="46.9967" lon="-0.88215">
        <ele>163</ele>
        <time>2021-03-03T22:31:00Z</time>
      </trkpt>
      <trkpt lat="46.99666" lon="-0.88196">
        <ele>164</ele>
        <time>2021-03-03T22:31:02Z</time>
      </trkpt>
      <trkpt lat="46.99666" lon="-0.88189">
        <ele>164</ele>
        <time>2021-03-03T22:31:03Z</time>
      </trkpt>
      <trkpt lat="46.99668" lon="-0.88183">
        <ele>164</ele>
        <time>2021-03-03T22:31:04Z</time>
      </trkpt>
      <trkpt lat="46.99708" lon="-0.88126">
        <ele>163</ele>
        <time>2021-03-03T22:31:14Z</time>
      </trkpt>
      <trkpt lat="46.99769" lon="-0.88006">
        <ele>158</ele>
        <time>2021-03-03T22:31:32Z</time>
      </trkpt>
      <trkpt lat="46.99779" lon="-0.87991">
        <ele>158</ele>
        <time>2021-03-03T22:31:34Z</time>
      </trkpt>
      <trkpt lat="46.9979" lon="-0.87974">
        <ele>157</ele>
        <time>2021-03-03T22:31:37Z</time>
      </trkpt>
      <trkpt lat="46.99883" lon="-0.87861">
        <ele>150</ele>
        <time>2021-03-03T22:31:59Z</time>
      </trkpt>
      <trkpt lat="46.99897" lon="-0.87842">
        <ele>149</ele>
        <time>2021-03-03T22:32:02Z</time>
      </trkpt>
      <trkpt lat="46.99909" lon="-0.8782">
        <ele>148</ele>
        <time>2021-03-03T22:32:06Z</time>
      </trkpt>
      <trkpt lat="46.99955" lon="-0.87706">
        <ele>148</ele>
        <time>2021-03-03T22:32:22Z</time>
      </trkpt>
      <trkpt lat="46.9997" lon="-0.87661">
        <ele>147</ele>
        <time>2021-03-03T22:32:28Z</time>
      </trkpt>
      <trkpt lat="47.00054" lon="-0.87387">
        <ele>145</ele>
        <time>2021-03-03T22:33:04Z</time>
      </trkpt>
      <trkpt lat="47.00081" lon="-0.87302">
        <ele>145</ele>
        <time>2021-03-03T22:33:16Z</time>
      </trkpt>
      <trkpt lat="47.00105" lon="-0.87236">
        <ele>145</ele>
        <time>2021-03-03T22:33:25Z</time>
      </trkpt>
      <trkpt lat="47.00132" lon="-0.87168">
        <ele>144</ele>
        <time>2021-03-03T22:33:34Z</time>
      </trkpt>
      <trkpt lat="47.00154" lon="-0.8712">
        <ele>144</ele>
        <time>2021-03-03T22:33:41Z</time>
      </trkpt>
      <trkpt lat="47.00167" lon="-0.87092">
        <ele>143</ele>
        <time>2021-03-03T22:33:45Z</time>
      </trkpt>
      <trkpt lat="47.00187" lon="-0.87058">
        <ele>143</ele>
        <time>2021-03-03T22:33:51Z</time>
      </trkpt>
      <trkpt lat="47.00291" lon="-0.86885">
        <ele>143</ele>
        <time>2021-03-03T22:34:19Z</time>
      </trkpt>
      <trkpt lat="47.00311" lon="-0.86847">
        <ele>143</ele>
        <time>2021-03-03T22:34:25Z</time>
      </trkpt>
      <trkpt lat="47.00333" lon="-0.86799">
        <ele>143</ele>
        <time>2021-03-03T22:34:32Z</time>
      </trkpt>
      <trkpt lat="47.00341" lon="-0.8678">
        <ele>144</ele>
        <time>2021-03-03T22:34:34Z</time>
      </trkpt>
      <trkpt lat="47.00348" lon="-0.86761">
        <ele>144</ele>
        <time>2021-03-03T22:34:37Z</time>
      </trkpt>
      <trkpt lat="47.00352" lon="-0.86748">
        <ele>144</ele>
        <time>2021-03-03T22:34:39Z</time>
      </trkpt>
      <trkpt lat="47.00372" lon="-0.86686">
        <ele>143</ele>
        <time>2021-03-03T22:34:47Z</time>
      </trkpt>
      <trkpt lat="47.0039" lon="-0.86616">
        <ele>142</ele>
        <time>2021-03-03T22:34:56Z</time>
      </trkpt>
      <trkpt lat="47.00395" lon="-0.86584">
        <ele>142</ele>
        <time>2021-03-03T22:35:00Z</time>
      </trkpt>
      <trkpt lat="47.00405" lon="-0.86515">
        <ele>141</ele>
        <time>2021-03-03T22:35:09Z</time>
      </trkpt>
      <trkpt lat="47.00409" lon="-0.86478">
        <ele>141</ele>
        <time>2021-03-03T22:35:13Z</time>
      </trkpt>
      <trkpt lat="47.00411" lon="-0.86432">
        <ele>140</ele>
        <time>2021-03-03T22:35:19Z</time>
      </trkpt>
      <trkpt lat="47.00413" lon="-0.86382">
        <ele>139</ele>
        <time>2021-03-03T22:35:25Z</time>
      </trkpt>
      <trkpt lat="47.00412" lon="-0.86354">
        <ele>139</ele>
        <time>2021-03-03T22:35:28Z</time>
      </trkpt>
      <trkpt lat="47.00412" lon="-0.86322">
        <ele>138</ele>
        <time>2021-03-03T22:35:32Z</time>
      </trkpt>
      <trkpt lat="47.0041" lon="-0.86259">
        <ele>137</ele>
        <time>2021-03-03T22:35:40Z</time>
      </trkpt>
      <trkpt lat="47.0041" lon="-0.86184">
        <ele>136</ele>
        <time>2021-03-03T22:35:49Z</time>
      </trkpt>
      <trkpt lat="47.0041" lon="-0.86003">
        <ele>136</ele>
        <time>2021-03-03T22:36:11Z</time>
      </trkpt>
      <trkpt lat="47.00421" lon="-0.85878">
        <ele>134</ele>
        <time>2021-03-03T22:36:26Z</time>
      </trkpt>
      <trkpt lat="47.00422" lon="-0.85848">
        <ele>133</ele>
        <time>2021-03-03T22:36:30Z</time>
      </trkpt>
      <trkpt lat="47.00423" lon="-0.85775">
        <ele>132</ele>
        <time>2021-03-03T22:36:39Z</time>
      </trkpt>
      <trkpt lat="47.00426" lon="-0.85762">
        <ele>132</ele>
        <time>2021-03-03T22:36:40Z</time>
      </trkpt>
      <trkpt lat="47.00438" lon="-0.85713">
        <ele>132</ele>
        <time>2021-03-03T22:36:47Z</time>
      </trkpt>
      <trkpt lat="47.00449" lon="-0.85663">
        <ele>132</ele>
        <time>2021-03-03T22:36:53Z</time>
      </trkpt>
      <trkpt lat="47.00453" lon="-0.85644">
        <ele>132</ele>
        <time>2021-03-03T22:36:55Z</time>
      </trkpt>
      <trkpt lat="47.00457" lon="-0.85601">
        <ele>132</ele>
        <time>2021-03-03T22:37:01Z</time>
      </trkpt>
      <trkpt lat="47.00455" lon="-0.85575">
        <ele>131</ele>
        <time>2021-03-03T22:37:04Z</time>
      </trkpt>
      <trkpt lat="47.00454" lon="-0.85571">
        <ele>131</ele>
        <time>2021-03-03T22:37:04Z</time>
      </trkpt>
      <trkpt lat="47.00452" lon="-0.85571">
        <ele>131</ele>
        <time>2021-03-03T22:37:05Z</time>
      </trkpt>
      <trkpt lat="47.00448" lon="-0.85568">
        <ele>132</ele>
        <time>2021-03-03T22:37:05Z</time>
      </trkpt>
      <trkpt lat="47.00447" lon="-0.85563">
        <ele>131</ele>
        <time>2021-03-03T22:37:06Z</time>
      </trkpt>
      <trkpt lat="47.00447" lon="-0.8556">
        <ele>131</ele>
        <time>2021-03-03T22:37:06Z</time>
      </trkpt>
      <trkpt lat="47.00448" lon="-0.85558">
        <ele>131</ele>
        <time>2021-03-03T22:37:07Z</time>
      </trkpt>
      <trkpt lat="47.00449" lon="-0.85556">
        <ele>131</ele>
        <time>2021-03-03T22:37:07Z</time>
      </trkpt>
      <trkpt lat="47.0045" lon="-0.85554">
        <ele>131</ele>
        <time>2021-03-03T22:37:07Z</time>
      </trkpt>
      <trkpt lat="47.00452" lon="-0.85554">
        <ele>131</ele>
        <time>2021-03-03T22:37:08Z</time>
      </trkpt>
      <trkpt lat="47.00454" lon="-0.85554">
        <ele>131</ele>
        <time>2021-03-03T22:37:08Z</time>
      </trkpt>
      <trkpt lat="47.00456" lon="-0.85549">
        <ele>131</ele>
        <time>2021-03-03T22:37:09Z</time>
      </trkpt>
      <trkpt lat="47.0046" lon="-0.85528">
        <ele>131</ele>
        <time>2021-03-03T22:37:11Z</time>
      </trkpt>
      <trkpt lat="47.00461" lon="-0.85472">
        <ele>131</ele>
        <time>2021-03-03T22:37:18Z</time>
      </trkpt>
      <trkpt lat="47.00463" lon="-0.85441">
        <ele>131</ele>
        <time>2021-03-03T22:37:22Z</time>
      </trkpt>
      <trkpt lat="47.00464" lon="-0.85429">
        <ele>131</ele>
        <time>2021-03-03T22:37:23Z</time>
      </trkpt>
      <trkpt lat="47.00467" lon="-0.85406">
        <ele>130</ele>
        <time>2021-03-03T22:37:26Z</time>
      </trkpt>
      <trkpt lat="47.00481" lon="-0.85314">
        <ele>128</ele>
        <time>2021-03-03T22:37:38Z</time>
      </trkpt>
      <trkpt lat="47.00487" lon="-0.85262">
        <ele>126</ele>
        <time>2021-03-03T22:37:44Z</time>
      </trkpt>
      <trkpt lat="47.00488" lon="-0.85246">
        <ele>126</ele>
        <time>2021-03-03T22:37:46Z</time>
      </trkpt>
      <trkpt lat="47.00487" lon="-0.85239">
        <ele>126</ele>
        <time>2021-03-03T22:37:47Z</time>
      </trkpt>
      <trkpt lat="47.00488" lon="-0.85229">
        <ele>125</ele>
        <time>2021-03-03T22:37:48Z</time>
      </trkpt>
      <trkpt lat="47.0049" lon="-0.85222">
        <ele>125</ele>
        <time>2021-03-03T22:37:49Z</time>
      </trkpt>
      <trkpt lat="47.00493" lon="-0.8521">
        <ele>125</ele>
        <time>2021-03-03T22:37:51Z</time>
      </trkpt>
      <trkpt lat="47.00496" lon="-0.85202">
        <ele>125</ele>
        <time>2021-03-03T22:37:52Z</time>
      </trkpt>
      <trkpt lat="47.00499" lon="-0.85191">
        <ele>125</ele>
        <time>2021-03-03T22:37:53Z</time>
      </trkpt>
      <trkpt lat="47.00488" lon="-0.8518">
        <ele>124</ele>
        <time>2021-03-03T22:37:56Z</time>
      </trkpt>
      <trkpt lat="47.00482" lon="-0.8517">
        <ele>124</ele>
        <time>2021-03-03T22:37:57Z</time>
      </trkpt>
      <trkpt lat="47.00474" lon="-0.85152">
        <ele>123</ele>
        <time>2021-03-03T22:38:00Z</time>
      </trkpt>
      <trkpt lat="47.0047" lon="-0.85134">
        <ele>123</ele>
        <time>2021-03-03T22:38:02Z</time>
      </trkpt>
      <trkpt lat="47.00461" lon="-0.85084">
        <ele>122</ele>
        <time>2021-03-03T22:38:08Z</time>
      </trkpt>
      <trkpt lat="47.00467" lon="-0.85079">
        <ele>122</ele>
        <time>2021-03-03T22:38:10Z</time>
      </trkpt>
      <trkpt lat="47.00491" lon="-0.85051">
        <ele>120</ele>
        <time>2021-03-03T22:38:15Z</time>
      </trkpt>
      <trkpt lat="47.00495" lon="-0.85044">
        <ele>120</ele>
        <time>2021-03-03T22:38:16Z</time>
      </trkpt>
      <trkpt lat="47.00502" lon="-0.85034">
        <ele>120</ele>
        <time>2021-03-03T22:38:18Z</time>
      </trkpt>
      <trkpt lat="47.00514" lon="-0.85007">
        <ele>118</ele>
        <time>2021-03-03T22:38:22Z</time>
      </trkpt>
      <trkpt lat="47.00527" lon="-0.84987">
        <ele>116</ele>
        <time>2021-03-03T22:38:25Z</time>
      </trkpt>
      <trkpt lat="47.00529" lon="-0.84986">
        <ele>116</ele>
        <time>2021-03-03T22:38:26Z</time>
      </trkpt>
      <trkpt lat="47.00533" lon="-0.84984">
        <ele>116</ele>
        <time>2021-03-03T22:38:26Z</time>
      </trkpt>
      <trkpt lat="47.00533" lon="-0.84949">
        <ele>115</ele>
        <time>2021-03-03T22:38:31Z</time>
      </trkpt>
      <trkpt lat="47.00536" lon="-0.84912">
        <ele>113</ele>
        <time>2021-03-03T22:38:35Z</time>
      </trkpt>
      <trkpt lat="47.00541" lon="-0.84883">
        <ele>113</ele>
        <time>2021-03-03T22:38:39Z</time>
      </trkpt>
      <trkpt lat="47.0055" lon="-0.84868">
        <ele>112</ele>
        <time>2021-03-03T22:38:41Z</time>
      </trkpt>
      <trkpt lat="47.00557" lon="-0.84859">
        <ele>112</ele>
        <time>2021-03-03T22:38:43Z</time>
      </trkpt>
      <trkpt lat="47.00566" lon="-0.84853">
        <ele>112</ele>
        <time>2021-03-03T22:38:45Z</time>
      </trkpt>
      <trkpt lat="47.00583" lon="-0.84849">
        <ele>111</ele>
        <time>2021-03-03T22:38:48Z</time>
      </trkpt>
      <trkpt lat="47.00626" lon="-0.84836">
        <ele>113</ele>
        <time>2021-03-03T22:38:55Z</time>
      </trkpt>
      <trkpt lat="47.0065" lon="-0.84828">
        <ele>114</ele>
        <time>2021-03-03T22:39:00Z</time>
      </trkpt>
      <trkpt lat="47.00663" lon="-0.84823">
        <ele>115</ele>
        <time>2021-03-03T22:39:02Z</time>
      </trkpt>
      <trkpt lat="47.00666" lon="-0.84821">
        <ele>115</ele>
        <time>2021-03-03T22:39:03Z</time>
      </trkpt>
      <trkpt lat="47.00721" lon="-0.84795">
        <ele>116</ele>
        <time>2021-03-03T22:39:13Z</time>
      </trkpt>
      <trkpt lat="47.00734" lon="-0.84791">
        <ele>116</ele>
        <time>2021-03-03T22:39:15Z</time>
      </trkpt>
      <trkpt lat="47.00739" lon="-0.84789">
        <ele>116</ele>
        <time>2021-03-03T22:39:16Z</time>
      </trkpt>
      <trkpt lat="47.00808" lon="-0.84781">
        <ele>115</ele>
        <time>2021-03-03T22:39:29Z</time>
      </trkpt>
      <trkpt lat="47.00808" lon="-0.84777">
        <ele>115</ele>
        <time>2021-03-03T22:39:29Z</time>
      </trkpt>
      <trkpt lat="47.00808" lon="-0.84773">
        <ele>115</ele>
        <time>2021-03-03T22:39:30Z</time>
      </trkpt>
      <trkpt lat="47.0081" lon="-0.84769">
        <ele>116</ele>
        <time>2021-03-03T22:39:30Z</time>
      </trkpt>
      <trkpt lat="47.00812" lon="-0.84767">
        <ele>116</ele>
        <time>2021-03-03T22:39:31Z</time>
      </trkpt>
      <trkpt lat="47.00815" lon="-0.84765">
        <ele>116</ele>
        <time>2021-03-03T22:39:31Z</time>
      </trkpt>
      <trkpt lat="47.00818" lon="-0.84765">
        <ele>116</ele>
        <time>2021-03-03T22:39:32Z</time>
      </trkpt>
      <trkpt lat="47.00821" lon="-0.84766">
        <ele>116</ele>
        <time>2021-03-03T22:39:32Z</time>
      </trkpt>
      <trkpt lat="47.00826" lon="-0.84773">
        <ele>115</ele>
        <time>2021-03-03T22:39:34Z</time>
      </trkpt>
      <trkpt lat="47.00827" lon="-0.84777">
        <ele>115</ele>
        <time>2021-03-03T22:39:34Z</time>
      </trkpt>
      <trkpt lat="47.00875" lon="-0.84769">
        <ele>116</ele>
        <time>2021-03-03T22:39:43Z</time>
      </trkpt>
      <trkpt lat="47.00897" lon="-0.84762">
        <ele>117</ele>
        <time>2021-03-03T22:39:47Z</time>
      </trkpt>
      <trkpt lat="47.00914" lon="-0.84753">
        <ele>118</ele>
        <time>2021-03-03T22:39:50Z</time>
      </trkpt>
      <trkpt lat="47.00946" lon="-0.84728">
        <ele>118</ele>
        <time>2021-03-03T22:39:56Z</time>
      </trkpt>
      <trkpt lat="47.01081" lon="-0.84582">
        <ele>120</ele>
        <time>2021-03-03T22:40:26Z</time>
      </trkpt>
      <trkpt lat="47.01112" lon="-0.84542">
        <ele>118</ele>
        <time>2021-03-03T22:40:34Z</time>
      </trkpt>
      <trkpt lat="47.0113" lon="-0.84514">
        <ele>117</ele>
        <time>2021-03-03T22:40:38Z</time>
      </trkpt>
      <trkpt lat="47.01161" lon="-0.84469">
        <ele>116</ele>
        <time>2021-03-03T22:40:46Z</time>
      </trkpt>
      <trkpt lat="47.01213" lon="-0.84395">
        <ele>113</ele>
        <time>2021-03-03T22:40:59Z</time>
      </trkpt>
      <trkpt lat="47.01248" lon="-0.84361">
        <ele>110</ele>
        <time>2021-03-03T22:41:06Z</time>
      </trkpt>
      <trkpt lat="47.0144" lon="-0.84207">
        <ele>100</ele>
        <time>2021-03-03T22:41:45Z</time>
      </trkpt>
      <trkpt lat="47.01479" lon="-0.84178">
        <ele>101</ele>
        <time>2021-03-03T22:41:53Z</time>
      </trkpt>
      <trkpt lat="47.01501" lon="-0.84168">
        <ele>101</ele>
        <time>2021-03-03T22:41:57Z</time>
      </trkpt>
      <trkpt lat="47.0152" lon="-0.84161">
        <ele>102</ele>
        <time>2021-03-03T22:42:01Z</time>
      </trkpt>
      <trkpt lat="47.01612" lon="-0.84132">
        <ele>104</ele>
        <time>2021-03-03T22:42:17Z</time>
      </trkpt>
      <trkpt lat="47.01679" lon="-0.84111">
        <ele>106</ele>
        <time>2021-03-03T22:42:30Z</time>
      </trkpt>
      <trkpt lat="47.01686" lon="-0.84109">
        <ele>106</ele>
        <time>2021-03-03T22:42:31Z</time>
      </trkpt>
      <trkpt lat="47.01701" lon="-0.84105">
        <ele>106</ele>
        <time>2021-03-03T22:42:34Z</time>
      </trkpt>
      <trkpt lat="47.01835" lon="-0.84064">
        <ele>110</ele>
        <time>2021-03-03T22:42:58Z</time>
      </trkpt>
      <trkpt lat="47.0188" lon="-0.84041">
        <ele>110</ele>
        <time>2021-03-03T22:43:06Z</time>
      </trkpt>
      <trkpt lat="47.02115" lon="-0.83888">
        <ele>114</ele>
        <time>2021-03-03T22:43:52Z</time>
      </trkpt>
      <trkpt lat="47.02184" lon="-0.83839">
        <ele>114</ele>
        <time>2021-03-03T22:44:06Z</time>
      </trkpt>
      <trkpt lat="47.02196" lon="-0.8383">
        <ele>114</ele>
        <time>2021-03-03T22:44:08Z</time>
      </trkpt>
      <trkpt lat="47.02215" lon="-0.83813">
        <ele>114</ele>
        <time>2021-03-03T22:44:12Z</time>
      </trkpt>
      <trkpt lat="47.02446" lon="-0.83578">
        <ele>111</ele>
        <time>2021-03-03T22:45:02Z</time>
      </trkpt>
      <trkpt lat="47.02474" lon="-0.83551">
        <ele>110</ele>
        <time>2021-03-03T22:45:08Z</time>
      </trkpt>
      <trkpt lat="47.02584" lon="-0.83439">
        <ele>106</ele>
        <time>2021-03-03T22:45:32Z</time>
      </trkpt>
      <trkpt lat="47.02596" lon="-0.83427">
        <ele>105</ele>
        <time>2021-03-03T22:45:35Z</time>
      </trkpt>
      <trkpt lat="47.02787" lon="-0.83234">
        <ele>101</ele>
        <time>2021-03-03T22:46:16Z</time>
      </trkpt>
      <trkpt lat="47.02958" lon="-0.83056">
        <ele>94</ele>
        <time>2021-03-03T22:46:53Z</time>
      </trkpt>
      <trkpt lat="47.02991" lon="-0.83023">
        <ele>92</ele>
        <time>2021-03-03T22:47:00Z</time>
      </trkpt>
      <trkpt lat="47.03104" lon="-0.82908">
        <ele>87</ele>
        <time>2021-03-03T22:47:25Z</time>
      </trkpt>
      <trkpt lat="47.03149" lon="-0.82862">
        <ele>86</ele>
        <time>2021-03-03T22:47:34Z</time>
      </trkpt>
      <trkpt lat="47.03201" lon="-0.82809">
        <ele>85</ele>
        <time>2021-03-03T22:47:46Z</time>
      </trkpt>
      <trkpt lat="47.03557" lon="-0.82452">
        <ele>98</ele>
        <time>2021-03-03T22:49:02Z</time>
      </trkpt>
      <trkpt lat="47.03609" lon="-0.82408">
        <ele>100</ele>
        <time>2021-03-03T22:49:13Z</time>
      </trkpt>
      <trkpt lat="47.03623" lon="-0.824">
        <ele>101</ele>
        <time>2021-03-03T22:49:16Z</time>
      </trkpt>
      <trkpt lat="47.03641" lon="-0.82394">
        <ele>101</ele>
        <time>2021-03-03T22:49:19Z</time>
      </trkpt>
      <trkpt lat="47.03697" lon="-0.82393">
        <ele>100</ele>
        <time>2021-03-03T22:49:29Z</time>
      </trkpt>
      <trkpt lat="47.03727" lon="-0.82382">
        <ele>100</ele>
        <time>2021-03-03T22:49:35Z</time>
      </trkpt>
      <trkpt lat="47.03757" lon="-0.82363">
        <ele>99</ele>
        <time>2021-03-03T22:49:40Z</time>
      </trkpt>
      <trkpt lat="47.03809" lon="-0.82339">
        <ele>98</ele>
        <time>2021-03-03T22:49:50Z</time>
      </trkpt>
      <trkpt lat="47.03824" lon="-0.8233">
        <ele>97</ele>
        <time>2021-03-03T22:49:53Z</time>
      </trkpt>
      <trkpt lat="47.03864" lon="-0.82283">
        <ele>95</ele>
        <time>2021-03-03T22:50:02Z</time>
      </trkpt>
      <trkpt lat="47.03873" lon="-0.82275">
        <ele>95</ele>
        <time>2021-03-03T22:50:04Z</time>
      </trkpt>
      <trkpt lat="47.03892" lon="-0.82264">
        <ele>93</ele>
        <time>2021-03-03T22:50:08Z</time>
      </trkpt>
      <trkpt lat="47.03945" lon="-0.82245">
        <ele>90</ele>
        <time>2021-03-03T22:50:17Z</time>
      </trkpt>
      <trkpt lat="47.03978" lon="-0.82229">
        <ele>89</ele>
        <time>2021-03-03T22:50:23Z</time>
      </trkpt>
      <trkpt lat="47.04035" lon="-0.82203">
        <ele>89</ele>
        <time>2021-03-03T22:50:34Z</time>
      </trkpt>
      <trkpt lat="47.04051" lon="-0.82195">
        <ele>89</ele>
        <time>2021-03-03T22:50:37Z</time>
      </trkpt>
      <trkpt lat="47.04102" lon="-0.82173">
        <ele>91</ele>
        <time>2021-03-03T22:50:47Z</time>
      </trkpt>
      <trkpt lat="47.04111" lon="-0.82171">
        <ele>91</ele>
        <time>2021-03-03T22:50:48Z</time>
      </trkpt>
      <trkpt lat="47.04116" lon="-0.82168">
        <ele>92</ele>
        <time>2021-03-03T22:50:49Z</time>
      </trkpt>
      <trkpt lat="47.04133" lon="-0.82162">
        <ele>93</ele>
        <time>2021-03-03T22:50:52Z</time>
      </trkpt>
      <trkpt lat="47.04146" lon="-0.82147">
        <ele>94</ele>
        <time>2021-03-03T22:50:55Z</time>
      </trkpt>
      <trkpt lat="47.04154" lon="-0.82145">
        <ele>95</ele>
        <time>2021-03-03T22:50:57Z</time>
      </trkpt>
      <trkpt lat="47.04162" lon="-0.82137">
        <ele>96</ele>
        <time>2021-03-03T22:50:58Z</time>
      </trkpt>
      <trkpt lat="47.04172" lon="-0.82124">
        <ele>97</ele>
        <time>2021-03-03T22:51:01Z</time>
      </trkpt>
      <trkpt lat="47.04184" lon="-0.82118">
        <ele>98</ele>
        <time>2021-03-03T22:51:03Z</time>
      </trkpt>
      <trkpt lat="47.042" lon="-0.8212">
        <ele>99</ele>
        <time>2021-03-03T22:51:06Z</time>
      </trkpt>
      <trkpt lat="47.04215" lon="-0.82117">
        <ele>100</ele>
        <time>2021-03-03T22:51:09Z</time>
      </trkpt>
      <trkpt lat="47.04252" lon="-0.821">
        <ele>103</ele>
        <time>2021-03-03T22:51:15Z</time>
      </trkpt>
      <trkpt lat="47.04333" lon="-0.82062">
        <ele>108</ele>
        <time>2021-03-03T22:51:31Z</time>
      </trkpt>
      <trkpt lat="47.04377" lon="-0.82042">
        <ele>111</ele>
        <time>2021-03-03T22:51:39Z</time>
      </trkpt>
      <trkpt lat="47.04461" lon="-0.82004">
        <ele>115</ele>
        <time>2021-03-03T22:51:54Z</time>
      </trkpt>
      <trkpt lat="47.0447" lon="-0.81999">
        <ele>116</ele>
        <time>2021-03-03T22:51:56Z</time>
      </trkpt>
      <trkpt lat="47.0451" lon="-0.81977">
        <ele>118</ele>
        <time>2021-03-03T22:52:04Z</time>
      </trkpt>
      <trkpt lat="47.04521" lon="-0.81968">
        <ele>118</ele>
        <time>2021-03-03T22:52:06Z</time>
      </trkpt>
      <trkpt lat="47.04529" lon="-0.81962">
        <ele>119</ele>
        <time>2021-03-03T22:52:08Z</time>
      </trkpt>
      <trkpt lat="47.04534" lon="-0.81959">
        <ele>119</ele>
        <time>2021-03-03T22:52:08Z</time>
      </trkpt>
      <trkpt lat="47.04534" lon="-0.81941">
        <ele>120</ele>
        <time>2021-03-03T22:52:11Z</time>
      </trkpt>
      <trkpt lat="47.04537" lon="-0.81894">
        <ele>120</ele>
        <time>2021-03-03T22:52:16Z</time>
      </trkpt>
      <trkpt lat="47.04539" lon="-0.81858">
        <ele>120</ele>
        <time>2021-03-03T22:52:21Z</time>
      </trkpt>
      <trkpt lat="47.04541" lon="-0.81828">
        <ele>119</ele>
        <time>2021-03-03T22:52:24Z</time>
      </trkpt>
      <trkpt lat="47.0454" lon="-0.81809">
        <ele>119</ele>
        <time>2021-03-03T22:52:27Z</time>
      </trkpt>
      <trkpt lat="47.04542" lon="-0.81799">
        <ele>119</ele>
        <time>2021-03-03T22:52:28Z</time>
      </trkpt>
      <trkpt lat="47.04544" lon="-0.81788">
        <ele>119</ele>
        <time>2021-03-03T22:52:29Z</time>
      </trkpt>
      <trkpt lat="47.04557" lon="-0.81766">
        <ele>120</ele>
        <time>2021-03-03T22:52:33Z</time>
      </trkpt>
      <trkpt lat="47.04561" lon="-0.81755">
        <ele>120</ele>
        <time>2021-03-03T22:52:34Z</time>
      </trkpt>
      <trkpt lat="47.04566" lon="-0.81742">
        <ele>120</ele>
        <time>2021-03-03T22:52:36Z</time>
      </trkpt>
      <trkpt lat="47.04568" lon="-0.81736">
        <ele>120</ele>
        <time>2021-03-03T22:52:37Z</time>
      </trkpt>
      <trkpt lat="47.0457" lon="-0.81731">
        <ele>120</ele>
        <time>2021-03-03T22:52:38Z</time>
      </trkpt>
      <trkpt lat="47.04573" lon="-0.81716">
        <ele>120</ele>
        <time>2021-03-03T22:52:40Z</time>
      </trkpt>
      <trkpt lat="47.0459" lon="-0.81671">
        <ele>120</ele>
        <time>2021-03-03T22:52:46Z</time>
      </trkpt>
      <trkpt lat="47.04599" lon="-0.81655">
        <ele>120</ele>
        <time>2021-03-03T22:52:48Z</time>
      </trkpt>
      <trkpt lat="47.0461" lon="-0.81642">
        <ele>120</ele>
        <time>2021-03-03T22:52:51Z</time>
      </trkpt>
      <trkpt lat="47.0462" lon="-0.81615">
        <ele>120</ele>
        <time>2021-03-03T22:52:55Z</time>
      </trkpt>
      <trkpt lat="47.04622" lon="-0.81612">
        <ele>120</ele>
        <time>2021-03-03T22:52:55Z</time>
      </trkpt>
      <trkpt lat="47.04626" lon="-0.8161">
        <ele>120</ele>
        <time>2021-03-03T22:52:56Z</time>
      </trkpt>
      <trkpt lat="47.0465" lon="-0.8161">
        <ele>120</ele>
        <time>2021-03-03T22:53:00Z</time>
      </trkpt>
      <trkpt lat="47.04658" lon="-0.81607">
        <ele>120</ele>
        <time>2021-03-03T22:53:02Z</time>
      </trkpt>
      <trkpt lat="47.04692" lon="-0.81581">
        <ele>121</ele>
        <time>2021-03-03T22:53:08Z</time>
      </trkpt>
      <trkpt lat="47.04706" lon="-0.81571">
        <ele>121</ele>
        <time>2021-03-03T22:53:11Z</time>
      </trkpt>
      <trkpt lat="47.0475" lon="-0.81536">
        <ele>122</ele>
        <time>2021-03-03T22:53:20Z</time>
      </trkpt>
      <trkpt lat="47.04794" lon="-0.81502">
        <ele>125</ele>
        <time>2021-03-03T22:53:29Z</time>
      </trkpt>
      <trkpt lat="47.04824" lon="-0.81478">
        <ele>126</ele>
        <time>2021-03-03T22:53:35Z</time>
      </trkpt>
      <trkpt lat="47.04846" lon="-0.81454">
        <ele>127</ele>
        <time>2021-03-03T22:53:40Z</time>
      </trkpt>
      <trkpt lat="47.04856" lon="-0.81448">
        <ele>128</ele>
        <time>2021-03-03T22:53:42Z</time>
      </trkpt>
      <trkpt lat="47.04862" lon="-0.81446">
        <ele>128</ele>
        <time>2021-03-03T22:53:43Z</time>
      </trkpt>
      <trkpt lat="47.04861" lon="-0.81439">
        <ele>128</ele>
        <time>2021-03-03T22:53:44Z</time>
      </trkpt>
      <trkpt lat="47.04864" lon="-0.81426">
        <ele>128</ele>
        <time>2021-03-03T22:53:45Z</time>
      </trkpt>
      <trkpt lat="47.04867" lon="-0.8142">
        <ele>128</ele>
        <time>2021-03-03T22:53:46Z</time>
      </trkpt>
      <trkpt lat="47.04871" lon="-0.81416">
        <ele>128</ele>
        <time>2021-03-03T22:53:47Z</time>
      </trkpt>
      <trkpt lat="47.04876" lon="-0.81414">
        <ele>129</ele>
        <time>2021-03-03T22:53:48Z</time>
      </trkpt>
      <trkpt lat="47.04886" lon="-0.81415">
        <ele>129</ele>
        <time>2021-03-03T22:53:50Z</time>
      </trkpt>
      <trkpt lat="47.0489" lon="-0.81419">
        <ele>129</ele>
        <time>2021-03-03T22:53:51Z</time>
      </trkpt>
      <trkpt lat="47.04896" lon="-0.81406">
        <ele>130</ele>
        <time>2021-03-03T22:53:53Z</time>
      </trkpt>
      <trkpt lat="47.04909" lon="-0.81378">
        <ele>131</ele>
        <time>2021-03-03T22:53:57Z</time>
      </trkpt>
      <trkpt lat="47.04922" lon="-0.81359">
        <ele>131</ele>
        <time>2021-03-03T22:54:00Z</time>
      </trkpt>
      <trkpt lat="47.04946" lon="-0.81332">
        <ele>132</ele>
        <time>2021-03-03T22:54:05Z</time>
      </trkpt>
      <trkpt lat="47.0497" lon="-0.81314">
        <ele>133</ele>
        <time>2021-03-03T22:54:10Z</time>
      </trkpt>
      <trkpt lat="47.05037" lon="-0.81277">
        <ele>136</ele>
        <time>2021-03-03T22:54:23Z</time>
      </trkpt>
      <trkpt lat="47.05082" lon="-0.81249">
        <ele>138</ele>
        <time>2021-03-03T22:54:32Z</time>
      </trkpt>
      <trkpt lat="47.05122" lon="-0.81215">
        <ele>139</ele>
        <time>2021-03-03T22:54:40Z</time>
      </trkpt>
      <trkpt lat="47.05383" lon="-0.80975">
        <ele>142</ele>
        <time>2021-03-03T22:55:35Z</time>
      </trkpt>
      <trkpt lat="47.05412" lon="-0.80945">
        <ele>141</ele>
        <time>2021-03-03T22:55:41Z</time>
      </trkpt>
      <trkpt lat="47.05434" lon="-0.80918">
        <ele>142</ele>
        <time>2021-03-03T22:55:46Z</time>
      </trkpt>
      <trkpt lat="47.0546" lon="-0.80881">
        <ele>142</ele>
        <time>2021-03-03T22:55:53Z</time>
      </trkpt>
      <trkpt lat="47.05509" lon="-0.80798">
        <ele>143</ele>
        <time>2021-03-03T22:56:06Z</time>
      </trkpt>
      <trkpt lat="47.05524" lon="-0.80776">
        <ele>144</ele>
        <time>2021-03-03T22:56:10Z</time>
      </trkpt>
      <trkpt lat="47.05542" lon="-0.80754">
        <ele>145</ele>
        <time>2021-03-03T22:56:14Z</time>
      </trkpt>
      <trkpt lat="47.05585" lon="-0.80708">
        <ele>147</ele>
        <time>2021-03-03T22:56:23Z</time>
      </trkpt>
      <trkpt lat="47.05663" lon="-0.80627">
        <ele>148</ele>
        <time>2021-03-03T22:56:40Z</time>
      </trkpt>
      <trkpt lat="47.05685" lon="-0.806">
        <ele>148</ele>
        <time>2021-03-03T22:56:45Z</time>
      </trkpt>
      <trkpt lat="47.05705" lon="-0.80573">
        <ele>148</ele>
        <time>2021-03-03T22:56:50Z</time>
      </trkpt>
      <trkpt lat="47.05723" lon="-0.80545">
        <ele>148</ele>
        <time>2021-03-03T22:56:55Z</time>
      </trkpt>
      <trkpt lat="47.05757" lon="-0.80483">
        <ele>148</ele>
        <time>2021-03-03T22:57:05Z</time>
      </trkpt>
      <trkpt lat="47.05774" lon="-0.8045">
        <ele>149</ele>
        <time>2021-03-03T22:57:10Z</time>
      </trkpt>
      <trkpt lat="47.05776" lon="-0.80443">
        <ele>149</ele>
        <time>2021-03-03T22:57:10Z</time>
      </trkpt>
      <trkpt lat="47.05806" lon="-0.80374">
        <ele>151</ele>
        <time>2021-03-03T22:57:20Z</time>
      </trkpt>
      <trkpt lat="47.05821" lon="-0.80334">
        <ele>151</ele>
        <time>2021-03-03T22:57:26Z</time>
      </trkpt>
      <trkpt lat="47.0584" lon="-0.80261">
        <ele>152</ele>
        <time>2021-03-03T22:57:35Z</time>
      </trkpt>
      <trkpt lat="47.05858" lon="-0.80155">
        <ele>152</ele>
        <time>2021-03-03T22:57:49Z</time>
      </trkpt>
      <trkpt lat="47.05866" lon="-0.80123">
        <ele>152</ele>
        <time>2021-03-03T22:57:53Z</time>
      </trkpt>
      <trkpt lat="47.05879" lon="-0.80096">
        <ele>152</ele>
        <time>2021-03-03T22:57:57Z</time>
      </trkpt>
      <trkpt lat="47.05894" lon="-0.80071">
        <ele>152</ele>
        <time>2021-03-03T22:58:01Z</time>
      </trkpt>
      <trkpt lat="47.05908" lon="-0.80056">
        <ele>152</ele>
        <time>2021-03-03T22:58:04Z</time>
      </trkpt>
      <trkpt lat="47.05914" lon="-0.80051">
        <ele>152</ele>
        <time>2021-03-03T22:58:05Z</time>
      </trkpt>
      <trkpt lat="47.0586" lon="-0.79925">
        <ele>152</ele>
        <time>2021-03-03T22:58:23Z</time>
      </trkpt>
      <trkpt lat="47.05841" lon="-0.79871">
        <ele>152</ele>
        <time>2021-03-03T22:58:31Z</time>
      </trkpt>
      <trkpt lat="47.05819" lon="-0.79799">
        <ele>152</ele>
        <time>2021-03-03T22:58:40Z</time>
      </trkpt>
      <trkpt lat="47.05796" lon="-0.79707">
        <ele>152</ele>
        <time>2021-03-03T22:58:52Z</time>
      </trkpt>
      <trkpt lat="47.05775" lon="-0.79637">
        <ele>151</ele>
        <time>2021-03-03T22:59:01Z</time>
      </trkpt>
      <trkpt lat="47.05752" lon="-0.79566">
        <ele>149</ele>
        <time>2021-03-03T22:59:11Z</time>
      </trkpt>
      <trkpt lat="47.05708" lon="-0.79444">
        <ele>149</ele>
        <time>2021-03-03T22:59:28Z</time>
      </trkpt>
      <trkpt lat="47.05675" lon="-0.79339">
        <ele>149</ele>
        <time>2021-03-03T22:59:42Z</time>
      </trkpt>
      <trkpt lat="47.05648" lon="-0.79231">
        <ele>149</ele>
        <time>2021-03-03T22:59:56Z</time>
      </trkpt>
      <trkpt lat="47.05633" lon="-0.79145">
        <ele>148</ele>
        <time>2021-03-03T23:00:06Z</time>
      </trkpt>
      <trkpt lat="47.0562" lon="-0.79043">
        <ele>148</ele>
        <time>2021-03-03T23:00:19Z</time>
      </trkpt>
      <trkpt lat="47.05616" lon="-0.78992">
        <ele>147</ele>
        <time>2021-03-03T23:00:25Z</time>
      </trkpt>
      <trkpt lat="47.05613" lon="-0.78886">
        <ele>146</ele>
        <time>2021-03-03T23:00:38Z</time>
      </trkpt>
      <trkpt lat="47.05615" lon="-0.78827">
        <ele>146</ele>
        <time>2021-03-03T23:00:45Z</time>
      </trkpt>
      <trkpt lat="47.05618" lon="-0.78782">
        <ele>145</ele>
        <time>2021-03-03T23:00:51Z</time>
      </trkpt>
      <trkpt lat="47.05633" lon="-0.78681">
        <ele>144</ele>
        <time>2021-03-03T23:01:03Z</time>
      </trkpt>
      <trkpt lat="47.05645" lon="-0.78623">
        <ele>143</ele>
        <time>2021-03-03T23:01:10Z</time>
      </trkpt>
      <trkpt lat="47.05706" lon="-0.78411">
        <ele>141</ele>
        <time>2021-03-03T23:01:38Z</time>
      </trkpt>
      <trkpt lat="47.05718" lon="-0.78356">
        <ele>137</ele>
        <time>2021-03-03T23:01:45Z</time>
      </trkpt>
      <trkpt lat="47.05726" lon="-0.783">
        <ele>134</ele>
        <time>2021-03-03T23:01:52Z</time>
      </trkpt>
      <trkpt lat="47.05759" lon="-0.77974">
        <ele>121</ele>
        <time>2021-03-03T23:02:32Z</time>
      </trkpt>
      <trkpt lat="47.0576" lon="-0.77936">
        <ele>120</ele>
        <time>2021-03-03T23:02:37Z</time>
      </trkpt>
      <trkpt lat="47.05758" lon="-0.77899">
        <ele>120</ele>
        <time>2021-03-03T23:02:41Z</time>
      </trkpt>
      <trkpt lat="47.05747" lon="-0.77827">
        <ele>124</ele>
        <time>2021-03-03T23:02:50Z</time>
      </trkpt>
      <trkpt lat="47.05739" lon="-0.77797">
        <ele>127</ele>
        <time>2021-03-03T23:02:54Z</time>
      </trkpt>
      <trkpt lat="47.05727" lon="-0.77765">
        <ele>129</ele>
        <time>2021-03-03T23:02:59Z</time>
      </trkpt>
      <trkpt lat="47.05709" lon="-0.77727">
        <ele>131</ele>
        <time>2021-03-03T23:03:04Z</time>
      </trkpt>
      <trkpt lat="47.05689" lon="-0.77695">
        <ele>131</ele>
        <time>2021-03-03T23:03:09Z</time>
      </trkpt>
      <trkpt lat="47.05596" lon="-0.77564">
        <ele>136</ele>
        <time>2021-03-03T23:03:32Z</time>
      </trkpt>
      <trkpt lat="47.0557" lon="-0.77522">
        <ele>136</ele>
        <time>2021-03-03T23:03:39Z</time>
      </trkpt>
      <trkpt lat="47.05557" lon="-0.77498">
        <ele>137</ele>
        <time>2021-03-03T23:03:43Z</time>
      </trkpt>
      <trkpt lat="47.05547" lon="-0.77474">
        <ele>137</ele>
        <time>2021-03-03T23:03:46Z</time>
      </trkpt>
      <trkpt lat="47.05503" lon="-0.77351">
        <ele>137</ele>
        <time>2021-03-03T23:04:03Z</time>
      </trkpt>
      <trkpt lat="47.05493" lon="-0.77311">
        <ele>137</ele>
        <time>2021-03-03T23:04:08Z</time>
      </trkpt>
      <trkpt lat="47.0549" lon="-0.77312">
        <ele>137</ele>
        <time>2021-03-03T23:04:09Z</time>
      </trkpt>
      <trkpt lat="47.05482" lon="-0.77308">
        <ele>136</ele>
        <time>2021-03-03T23:04:10Z</time>
      </trkpt>
      <trkpt lat="47.05479" lon="-0.773">
        <ele>136</ele>
        <time>2021-03-03T23:04:12Z</time>
      </trkpt>
      <trkpt lat="47.05479" lon="-0.77291">
        <ele>136</ele>
        <time>2021-03-03T23:04:13Z</time>
      </trkpt>
      <trkpt lat="47.05481" lon="-0.77287">
        <ele>136</ele>
        <time>2021-03-03T23:04:13Z</time>
      </trkpt>
      <trkpt lat="47.05486" lon="-0.77282">
        <ele>136</ele>
        <time>2021-03-03T23:04:14Z</time>
      </trkpt>
      <trkpt lat="47.0549" lon="-0.77281">
        <ele>137</ele>
        <time>2021-03-03T23:04:15Z</time>
      </trkpt>
      <trkpt lat="47.05489" lon="-0.77259">
        <ele>136</ele>
        <time>2021-03-03T23:04:18Z</time>
      </trkpt>
      <trkpt lat="47.05495" lon="-0.77084">
        <ele>135</ele>
        <time>2021-03-03T23:04:39Z</time>
      </trkpt>
      <trkpt lat="47.05501" lon="-0.76952">
        <ele>133</ele>
        <time>2021-03-03T23:04:55Z</time>
      </trkpt>
      <trkpt lat="47.05529" lon="-0.76784">
        <ele>133</ele>
        <time>2021-03-03T23:05:16Z</time>
      </trkpt>
      <trkpt lat="47.05543" lon="-0.76687">
        <ele>132</ele>
        <time>2021-03-03T23:05:28Z</time>
      </trkpt>
      <trkpt lat="47.05561" lon="-0.76639">
        <ele>132</ele>
        <time>2021-03-03T23:05:35Z</time>
      </trkpt>
      <trkpt lat="47.05571" lon="-0.76632">
        <ele>132</ele>
        <time>2021-03-03T23:05:37Z</time>
      </trkpt>
      <trkpt lat="47.05585" lon="-0.76628">
        <ele>133</ele>
        <time>2021-03-03T23:05:39Z</time>
      </trkpt>
      <trkpt lat="47.05586" lon="-0.766">
        <ele>133</ele>
        <time>2021-03-03T23:05:43Z</time>
      </trkpt>
      <trkpt lat="47.05589" lon="-0.76589">
        <ele>133</ele>
        <time>2021-03-03T23:05:44Z</time>
      </trkpt>
      <trkpt lat="47.05644" lon="-0.76459">
        <ele>130</ele>
        <time>2021-03-03T23:06:03Z</time>
      </trkpt>
      <trkpt lat="47.05749" lon="-0.76265">
        <ele>136</ele>
        <time>2021-03-03T23:06:33Z</time>
      </trkpt>
      <trkpt lat="47.05763" lon="-0.76245">
        <ele>136</ele>
        <time>2021-03-03T23:06:36Z</time>
      </trkpt>
      <trkpt lat="47.05775" lon="-0.76237">
        <ele>136</ele>
        <time>2021-03-03T23:06:38Z</time>
      </trkpt>
      <trkpt lat="47.05822" lon="-0.76216">
        <ele>136</ele>
        <time>2021-03-03T23:06:47Z</time>
      </trkpt>
      <trkpt lat="47.05925" lon="-0.76182">
        <ele>136</ele>
        <time>2021-03-03T23:07:06Z</time>
      </trkpt>
      <trkpt lat="47.06138" lon="-0.76118">
        <ele>136</ele>
        <time>2021-03-03T23:07:45Z</time>
      </trkpt>
      <trkpt lat="47.06182" lon="-0.76113">
        <ele>137</ele>
        <time>2021-03-03T23:07:52Z</time>
      </trkpt>
      <trkpt lat="47.06235" lon="-0.76119">
        <ele>138</ele>
        <time>2021-03-03T23:08:02Z</time>
      </trkpt>
      <trkpt lat="47.06287" lon="-0.7613">
        <ele>139</ele>
        <time>2021-03-03T23:08:11Z</time>
      </trkpt>
      <trkpt lat="47.06344" lon="-0.76145">
        <ele>140</ele>
        <time>2021-03-03T23:08:22Z</time>
      </trkpt>
      <trkpt lat="47.06367" lon="-0.76147">
        <ele>140</ele>
        <time>2021-03-03T23:08:26Z</time>
      </trkpt>
      <trkpt lat="47.06394" lon="-0.76143">
        <ele>141</ele>
        <time>2021-03-03T23:08:31Z</time>
      </trkpt>
      <trkpt lat="47.06455" lon="-0.76124">
        <ele>141</ele>
        <time>2021-03-03T23:08:42Z</time>
      </trkpt>
      <trkpt lat="47.06466" lon="-0.76116">
        <ele>142</ele>
        <time>2021-03-03T23:08:44Z</time>
      </trkpt>
      <trkpt lat="47.06485" lon="-0.76095">
        <ele>142</ele>
        <time>2021-03-03T23:08:48Z</time>
      </trkpt>
      <trkpt lat="47.06529" lon="-0.76011">
        <ele>146</ele>
        <time>2021-03-03T23:09:01Z</time>
      </trkpt>
      <trkpt lat="47.06592" lon="-0.75909">
        <ele>148</ele>
        <time>2021-03-03T23:09:18Z</time>
      </trkpt>
      <trkpt lat="47.06683" lon="-0.75744">
        <ele>151</ele>
        <time>2021-03-03T23:09:43Z</time>
      </trkpt>
      <trkpt lat="47.06714" lon="-0.75697">
        <ele>152</ele>
        <time>2021-03-03T23:09:51Z</time>
      </trkpt>
      <trkpt lat="47.06782" lon="-0.75613">
        <ele>154</ele>
        <time>2021-03-03T23:10:07Z</time>
      </trkpt>
      <trkpt lat="47.06811" lon="-0.7557">
        <ele>155</ele>
        <time>2021-03-03T23:10:14Z</time>
      </trkpt>
      <trkpt lat="47.06838" lon="-0.75523">
        <ele>154</ele>
        <time>2021-03-03T23:10:22Z</time>
      </trkpt>
      <trkpt lat="47.06962" lon="-0.75278">
        <ele>159</ele>
        <time>2021-03-03T23:10:59Z</time>
      </trkpt>
      <trkpt lat="47.06988" lon="-0.75241">
        <ele>161</ele>
        <time>2021-03-03T23:11:05Z</time>
      </trkpt>
      <trkpt lat="47.07171" lon="-0.75002">
        <ele>167</ele>
        <time>2021-03-03T23:11:49Z</time>
      </trkpt>
      <trkpt lat="47.0719" lon="-0.74974">
        <ele>167</ele>
        <time>2021-03-03T23:11:54Z</time>
      </trkpt>
      <trkpt lat="47.07343" lon="-0.74693">
        <ele>170</ele>
        <time>2021-03-03T23:12:37Z</time>
      </trkpt>
      <trkpt lat="47.07429" lon="-0.74532">
        <ele>170</ele>
        <time>2021-03-03T23:13:02Z</time>
      </trkpt>
      <trkpt lat="47.07449" lon="-0.74504">
        <ele>170</ele>
        <time>2021-03-03T23:13:07Z</time>
      </trkpt>
      <trkpt lat="47.0748" lon="-0.74468">
        <ele>171</ele>
        <time>2021-03-03T23:13:14Z</time>
      </trkpt>
      <trkpt lat="47.07495" lon="-0.74458">
        <ele>171</ele>
        <time>2021-03-03T23:13:17Z</time>
      </trkpt>
      <trkpt lat="47.0751" lon="-0.74453">
        <ele>171</ele>
        <time>2021-03-03T23:13:20Z</time>
      </trkpt>
      <trkpt lat="47.07549" lon="-0.74444">
        <ele>172</ele>
        <time>2021-03-03T23:13:27Z</time>
      </trkpt>
      <trkpt lat="47.07658" lon="-0.7443">
        <ele>175</ele>
        <time>2021-03-03T23:13:46Z</time>
      </trkpt>
      <trkpt lat="47.07664" lon="-0.74427">
        <ele>175</ele>
        <time>2021-03-03T23:13:47Z</time>
      </trkpt>
      <trkpt lat="47.07677" lon="-0.74415">
        <ele>175</ele>
        <time>2021-03-03T23:13:50Z</time>
      </trkpt>
      <trkpt lat="47.07838" lon="-0.74154">
        <ele>175</ele>
        <time>2021-03-03T23:14:33Z</time>
      </trkpt>
      <trkpt lat="47.0786" lon="-0.74129">
        <ele>175</ele>
        <time>2021-03-03T23:14:38Z</time>
      </trkpt>
      <trkpt lat="47.07991" lon="-0.74014">
        <ele>173</ele>
        <time>2021-03-03T23:15:05Z</time>
      </trkpt>
      <trkpt lat="47.08008" lon="-0.73996">
        <ele>173</ele>
        <time>2021-03-03T23:15:08Z</time>
      </trkpt>
      <trkpt lat="47.08017" lon="-0.73982">
        <ele>173</ele>
        <time>2021-03-03T23:15:11Z</time>
      </trkpt>
      <trkpt lat="47.08045" lon="-0.73925">
        <ele>174</ele>
        <time>2021-03-03T23:15:19Z</time>
      </trkpt>
      <trkpt lat="47.08094" lon="-0.73813">
        <ele>176</ele>
        <time>2021-03-03T23:15:35Z</time>
      </trkpt>
      <trkpt lat="47.08195" lon="-0.73593">
        <ele>180</ele>
        <time>2021-03-03T23:16:08Z</time>
      </trkpt>
      <trkpt lat="47.08218" lon="-0.73524">
        <ele>183</ele>
        <time>2021-03-03T23:16:17Z</time>
      </trkpt>
      <trkpt lat="47.08382" lon="-0.72884">
        <ele>190</ele>
        <time>2021-03-03T23:17:40Z</time>
      </trkpt>
      <trkpt lat="47.08412" lon="-0.7275">
        <ele>191</ele>
        <time>2021-03-03T23:17:57Z</time>
      </trkpt>
      <trkpt lat="47.08456" lon="-0.72494">
        <ele>189</ele>
        <time>2021-03-03T23:18:29Z</time>
      </trkpt>
      <trkpt lat="47.08471" lon="-0.72387">
        <ele>189</ele>
        <time>2021-03-03T23:18:42Z</time>
      </trkpt>
      <trkpt lat="47.08482" lon="-0.72331">
        <ele>189</ele>
        <time>2021-03-03T23:18:49Z</time>
      </trkpt>
      <trkpt lat="47.08548" lon="-0.72068">
        <ele>187</ele>
        <time>2021-03-03T23:19:23Z</time>
      </trkpt>
      <trkpt lat="47.08587" lon="-0.71988">
        <ele>187</ele>
        <time>2021-03-03T23:19:35Z</time>
      </trkpt>
      <trkpt lat="47.08615" lon="-0.71925">
        <ele>187</ele>
        <time>2021-03-03T23:19:44Z</time>
      </trkpt>
      <trkpt lat="47.08619" lon="-0.71909">
        <ele>186</ele>
        <time>2021-03-03T23:19:46Z</time>
      </trkpt>
      <trkpt lat="47.08671" lon="-0.71476">
        <ele>182</ele>
        <time>2021-03-03T23:20:39Z</time>
      </trkpt>
      <trkpt lat="47.08703" lon="-0.71147">
        <ele>176</ele>
        <time>2021-03-03T23:21:20Z</time>
      </trkpt>
      <trkpt lat="47.08717" lon="-0.71024">
        <ele>174</ele>
        <time>2021-03-03T23:21:35Z</time>
      </trkpt>
      <trkpt lat="47.08722" lon="-0.70908">
        <ele>172</ele>
        <time>2021-03-03T23:21:49Z</time>
      </trkpt>
      <trkpt lat="47.08737" lon="-0.70785">
        <ele>172</ele>
        <time>2021-03-03T23:22:04Z</time>
      </trkpt>
      <trkpt lat="47.08759" lon="-0.70672">
        <ele>171</ele>
        <time>2021-03-03T23:22:18Z</time>
      </trkpt>
      <trkpt lat="47.08759" lon="-0.7065">
        <ele>172</ele>
        <time>2021-03-03T23:22:21Z</time>
      </trkpt>
      <trkpt lat="47.08758" lon="-0.70627">
        <ele>172</ele>
        <time>2021-03-03T23:22:24Z</time>
      </trkpt>
      <trkpt lat="47.08756" lon="-0.70605">
        <ele>173</ele>
        <time>2021-03-03T23:22:26Z</time>
      </trkpt>
      <trkpt lat="47.08689" lon="-0.70366">
        <ele>173</ele>
        <time>2021-03-03T23:22:58Z</time>
      </trkpt>
      <trkpt lat="47.08686" lon="-0.70346">
        <ele>173</ele>
        <time>2021-03-03T23:23:00Z</time>
      </trkpt>
      <trkpt lat="47.08686" lon="-0.70326">
        <ele>173</ele>
        <time>2021-03-03T23:23:03Z</time>
      </trkpt>
      <trkpt lat="47.08688" lon="-0.70307">
        <ele>172</ele>
        <time>2021-03-03T23:23:05Z</time>
      </trkpt>
      <trkpt lat="47.08695" lon="-0.70285">
        <ele>172</ele>
        <time>2021-03-03T23:23:08Z</time>
      </trkpt>
      <trkpt lat="47.08701" lon="-0.70272">
        <ele>172</ele>
        <time>2021-03-03T23:23:10Z</time>
      </trkpt>
      <trkpt lat="47.0878" lon="-0.70164">
        <ele>174</ele>
        <time>2021-03-03T23:23:29Z</time>
      </trkpt>
      <trkpt lat="47.08799" lon="-0.70134">
        <ele>174</ele>
        <time>2021-03-03T23:23:34Z</time>
      </trkpt>
      <trkpt lat="47.08814" lon="-0.70104">
        <ele>174</ele>
        <time>2021-03-03T23:23:39Z</time>
      </trkpt>
      <trkpt lat="47.08846" lon="-0.70031">
        <ele>174</ele>
        <time>2021-03-03T23:23:49Z</time>
      </trkpt>
      <trkpt lat="47.08856" lon="-0.70004">
        <ele>174</ele>
        <time>2021-03-03T23:23:53Z</time>
      </trkpt>
      <trkpt lat="47.08867" lon="-0.69963">
        <ele>174</ele>
        <time>2021-03-03T23:23:58Z</time>
      </trkpt>
      <trkpt lat="47.08891" lon="-0.698">
        <ele>173</ele>
        <time>2021-03-03T23:24:18Z</time>
      </trkpt>
      <trkpt lat="47.08898" lon="-0.69765">
        <ele>173</ele>
        <time>2021-03-03T23:24:23Z</time>
      </trkpt>
      <trkpt lat="47.08904" lon="-0.69742">
        <ele>174</ele>
        <time>2021-03-03T23:24:26Z</time>
      </trkpt>
      <trkpt lat="47.08912" lon="-0.69717">
        <ele>173</ele>
        <time>2021-03-03T23:24:29Z</time>
      </trkpt>
      <trkpt lat="47.0893" lon="-0.69673">
        <ele>173</ele>
        <time>2021-03-03T23:24:35Z</time>
      </trkpt>
      <trkpt lat="47.0896" lon="-0.69602">
        <ele>174</ele>
        <time>2021-03-03T23:24:45Z</time>
      </trkpt>
      <trkpt lat="47.08998" lon="-0.6948">
        <ele>177</ele>
        <time>2021-03-03T23:25:02Z</time>
      </trkpt>
      <trkpt lat="47.09013" lon="-0.69439">
        <ele>178</ele>
        <time>2021-03-03T23:25:07Z</time>
      </trkpt>
      <trkpt lat="47.09027" lon="-0.69388">
        <ele>177</ele>
        <time>2021-03-03T23:25:14Z</time>
      </trkpt>
      <trkpt lat="47.0903" lon="-0.69363">
        <ele>177</ele>
        <time>2021-03-03T23:25:17Z</time>
      </trkpt>
      <trkpt lat="47.0903" lon="-0.69341">
        <ele>177</ele>
        <time>2021-03-03T23:25:20Z</time>
      </trkpt>
      <trkpt lat="47.0903" lon="-0.69323">
        <ele>176</ele>
        <time>2021-03-03T23:25:22Z</time>
      </trkpt>
      <trkpt lat="47.09027" lon="-0.69304">
        <ele>176</ele>
        <time>2021-03-03T23:25:24Z</time>
      </trkpt>
      <trkpt lat="47.08993" lon="-0.69178">
        <ele>176</ele>
        <time>2021-03-03T23:25:41Z</time>
      </trkpt>
      <trkpt lat="47.08935" lon="-0.68978">
        <ele>172</ele>
        <time>2021-03-03T23:26:07Z</time>
      </trkpt>
      <trkpt lat="47.08931" lon="-0.68954">
        <ele>172</ele>
        <time>2021-03-03T23:26:10Z</time>
      </trkpt>
      <trkpt lat="47.0893" lon="-0.68928">
        <ele>171</ele>
        <time>2021-03-03T23:26:13Z</time>
      </trkpt>
      <trkpt lat="47.08936" lon="-0.68898">
        <ele>170</ele>
        <time>2021-03-03T23:26:17Z</time>
      </trkpt>
      <trkpt lat="47.08954" lon="-0.68849">
        <ele>170</ele>
        <time>2021-03-03T23:26:24Z</time>
      </trkpt>
      <trkpt lat="47.08896" lon="-0.68828">
        <ele>169</ele>
        <time>2021-03-03T23:26:34Z</time>
      </trkpt>
      <trkpt lat="47.08842" lon="-0.68804">
        <ele>169</ele>
        <time>2021-03-03T23:26:44Z</time>
      </trkpt>
      <trkpt lat="47.08653" lon="-0.68714">
        <ele>174</ele>
        <time>2021-03-03T23:27:20Z</time>
      </trkpt>
      <trkpt lat="47.08357" lon="-0.68578">
        <ele>184</ele>
        <time>2021-03-03T23:28:15Z</time>
      </trkpt>
      <trkpt lat="47.08197" lon="-0.68551">
        <ele>181</ele>
        <time>2021-03-03T23:28:44Z</time>
      </trkpt>
      <trkpt lat="47.08094" lon="-0.68548">
        <ele>180</ele>
        <time>2021-03-03T23:29:02Z</time>
      </trkpt>
      <trkpt lat="47.07956" lon="-0.6855">
        <ele>180</ele>
        <time>2021-03-03T23:29:26Z</time>
      </trkpt>
      <trkpt lat="47.07794" lon="-0.68511">
        <ele>183</ele>
        <time>2021-03-03T23:29:56Z</time>
      </trkpt>
      <trkpt lat="47.07699" lon="-0.68465">
        <ele>186</ele>
        <time>2021-03-03T23:30:13Z</time>
      </trkpt>
      <trkpt lat="47.07681" lon="-0.68459">
        <ele>186</ele>
        <time>2021-03-03T23:30:17Z</time>
      </trkpt>
      <trkpt lat="47.07648" lon="-0.68456">
        <ele>185</ele>
        <time>2021-03-03T23:30:23Z</time>
      </trkpt>
      <trkpt lat="47.07603" lon="-0.68459">
        <ele>184</ele>
        <time>2021-03-03T23:30:31Z</time>
      </trkpt>
      <trkpt lat="47.07572" lon="-0.6847">
        <ele>183</ele>
        <time>2021-03-03T23:30:36Z</time>
      </trkpt>
      <trkpt lat="47.07382" lon="-0.68598">
        <ele>180</ele>
        <time>2021-03-03T23:31:13Z</time>
      </trkpt>
      <trkpt lat="47.07215" lon="-0.68717">
        <ele>175</ele>
        <time>2021-03-03T23:31:46Z</time>
      </trkpt>
      <trkpt lat="47.07164" lon="-0.6875">
        <ele>173</ele>
        <time>2021-03-03T23:31:56Z</time>
      </trkpt>
      <trkpt lat="47.06554" lon="-0.69172">
        <ele>167</ele>
        <time>2021-03-03T23:33:56Z</time>
      </trkpt>
      <trkpt lat="47.06485" lon="-0.69215">
        <ele>167</ele>
        <time>2021-03-03T23:34:10Z</time>
      </trkpt>
      <trkpt lat="47.05749" lon="-0.69731">
        <ele>173</ele>
        <time>2021-03-03T23:36:35Z</time>
      </trkpt>
      <trkpt lat="47.05328" lon="-0.70016">
        <ele>170</ele>
        <time>2021-03-03T23:37:57Z</time>
      </trkpt>
      <trkpt lat="47.04819" lon="-0.70374">
        <ele>164</ele>
        <time>2021-03-03T23:39:38Z</time>
      </trkpt>
      <trkpt lat="47.04609" lon="-0.70511">
        <ele>160</ele>
        <time>2021-03-03T23:40:19Z</time>
      </trkpt>
      <trkpt lat="47.04467" lon="-0.70611">
        <ele>162</ele>
        <time>2021-03-03T23:40:47Z</time>
      </trkpt>
      <trkpt lat="47.04251" lon="-0.70737">
        <ele>161</ele>
        <time>2021-03-03T23:41:28Z</time>
      </trkpt>
      <trkpt lat="47.04112" lon="-0.70813">
        <ele>159</ele>
        <time>2021-03-03T23:41:54Z</time>
      </trkpt>
      <trkpt lat="47.0408" lon="-0.70828">
        <ele>159</ele>
        <time>2021-03-03T23:42:00Z</time>
      </trkpt>
      <trkpt lat="47.03705" lon="-0.70976">
        <ele>161</ele>
        <time>2021-03-03T23:43:09Z</time>
      </trkpt>
      <trkpt lat="47.03463" lon="-0.71079">
        <ele>165</ele>
        <time>2021-03-03T23:43:54Z</time>
      </trkpt>
      <trkpt lat="47.03216" lon="-0.71189">
        <ele>173</ele>
        <time>2021-03-03T23:44:40Z</time>
      </trkpt>
      <trkpt lat="47.03187" lon="-0.71197">
        <ele>173</ele>
        <time>2021-03-03T23:44:46Z</time>
      </trkpt>
      <trkpt lat="47.03158" lon="-0.71203">
        <ele>174</ele>
        <time>2021-03-03T23:44:51Z</time>
      </trkpt>
      <trkpt lat="47.0313" lon="-0.71205">
        <ele>174</ele>
        <time>2021-03-03T23:44:56Z</time>
      </trkpt>
      <trkpt lat="47.0303" lon="-0.71202">
        <ele>175</ele>
        <time>2021-03-03T23:45:14Z</time>
      </trkpt>
      <trkpt lat="47.02996" lon="-0.71209">
        <ele>175</ele>
        <time>2021-03-03T23:45:20Z</time>
      </trkpt>
      <trkpt lat="47.02834" lon="-0.71277">
        <ele>176</ele>
        <time>2021-03-03T23:45:50Z</time>
      </trkpt>
      <trkpt lat="47.02789" lon="-0.71298">
        <ele>176</ele>
        <time>2021-03-03T23:45:58Z</time>
      </trkpt>
      <trkpt lat="47.02794" lon="-0.71311">
        <ele>176</ele>
        <time>2021-03-03T23:46:00Z</time>
      </trkpt>
      <trkpt lat="47.02799" lon="-0.71338">
        <ele>175</ele>
        <time>2021-03-03T23:46:03Z</time>
      </trkpt>
      <trkpt lat="47.02799" lon="-0.71351">
        <ele>174</ele>
        <time>2021-03-03T23:46:05Z</time>
      </trkpt>
      <trkpt lat="47.02797" lon="-0.71367">
        <ele>174</ele>
        <time>2021-03-03T23:46:07Z</time>
      </trkpt>
      <trkpt lat="47.0274" lon="-0.71632">
        <ele>175</ele>
        <time>2021-03-03T23:46:40Z</time>
      </trkpt>
      <trkpt lat="47.0274" lon="-0.71647">
        <ele>175</ele>
        <time>2021-03-03T23:46:42Z</time>
      </trkpt>
      <trkpt lat="47.02741" lon="-0.71656">
        <ele>175</ele>
        <time>2021-03-03T23:46:43Z</time>
      </trkpt>
      <trkpt lat="47.02736" lon="-0.71658">
        <ele>175</ele>
        <time>2021-03-03T23:46:44Z</time>
      </trkpt>
      <trkpt lat="47.0273" lon="-0.71666">
        <ele>176</ele>
        <time>2021-03-03T23:46:46Z</time>
      </trkpt>
      <trkpt lat="47.02722" lon="-0.71688">
        <ele>175</ele>
        <time>2021-03-03T23:46:49Z</time>
      </trkpt>
      <trkpt lat="47.02652" lon="-0.71851">
        <ele>175</ele>
        <time>2021-03-03T23:47:12Z</time>
      </trkpt>
      <trkpt lat="47.02613" lon="-0.7193">
        <ele>174</ele>
        <time>2021-03-03T23:47:24Z</time>
      </trkpt>
      <trkpt lat="47.02608" lon="-0.71944">
        <ele>175</ele>
        <time>2021-03-03T23:47:26Z</time>
      </trkpt>
      <trkpt lat="47.02538" lon="-0.7221">
        <ele>175</ele>
        <time>2021-03-03T23:48:00Z</time>
      </trkpt>
      <trkpt lat="47.02518" lon="-0.72263">
        <ele>174</ele>
        <time>2021-03-03T23:48:08Z</time>
      </trkpt>
      <trkpt lat="47.02494" lon="-0.72303">
        <ele>173</ele>
        <time>2021-03-03T23:48:14Z</time>
      </trkpt>
      <trkpt lat="47.02487" lon="-0.72319">
        <ele>173</ele>
        <time>2021-03-03T23:48:17Z</time>
      </trkpt>
      <trkpt lat="47.02473" lon="-0.72362">
        <ele>173</ele>
        <time>2021-03-03T23:48:22Z</time>
      </trkpt>
      <trkpt lat="47.02466" lon="-0.72387">
        <ele>173</ele>
        <time>2021-03-03T23:48:26Z</time>
      </trkpt>
      <trkpt lat="47.02462" lon="-0.7241">
        <ele>174</ele>
        <time>2021-03-03T23:48:29Z</time>
      </trkpt>
      <trkpt lat="47.02436" lon="-0.72585">
        <ele>174</ele>
        <time>2021-03-03T23:48:50Z</time>
      </trkpt>
      <trkpt lat="47.02431" lon="-0.72601">
        <ele>175</ele>
        <time>2021-03-03T23:48:52Z</time>
      </trkpt>
      <trkpt lat="47.02425" lon="-0.72617">
        <ele>175</ele>
        <time>2021-03-03T23:48:55Z</time>
      </trkpt>
      <trkpt lat="47.02408" lon="-0.72644">
        <ele>176</ele>
        <time>2021-03-03T23:48:59Z</time>
      </trkpt>
      <trkpt lat="47.02398" lon="-0.7266">
        <ele>175</ele>
        <time>2021-03-03T23:49:02Z</time>
      </trkpt>
      <trkpt lat="47.02355" lon="-0.72731">
        <ele>173</ele>
        <time>2021-03-03T23:49:13Z</time>
      </trkpt>
      <trkpt lat="47.02329" lon="-0.72781">
        <ele>170</ele>
        <time>2021-03-03T23:49:21Z</time>
      </trkpt>
      <trkpt lat="47.02305" lon="-0.7283">
        <ele>168</ele>
        <time>2021-03-03T23:49:28Z</time>
      </trkpt>
      <trkpt lat="47.02287" lon="-0.72874">
        <ele>167</ele>
        <time>2021-03-03T23:49:34Z</time>
      </trkpt>
      <trkpt lat="47.02271" lon="-0.72927">
        <ele>165</ele>
        <time>2021-03-03T23:49:41Z</time>
      </trkpt>
      <trkpt lat="47.02258" lon="-0.72978">
        <ele>164</ele>
        <time>2021-03-03T23:49:48Z</time>
      </trkpt>
      <trkpt lat="47.02217" lon="-0.73161">
        <ele>163</ele>
        <time>2021-03-03T23:50:11Z</time>
      </trkpt>
      <trkpt lat="47.02187" lon="-0.73275">
        <ele>161</ele>
        <time>2021-03-03T23:50:26Z</time>
      </trkpt>
      <trkpt lat="47.02175" lon="-0.73305">
        <ele>161</ele>
        <time>2021-03-03T23:50:30Z</time>
      </trkpt>
      <trkpt lat="47.02169" lon="-0.73318">
        <ele>161</ele>
        <time>2021-03-03T23:50:32Z</time>
      </trkpt>
      <trkpt lat="47.02163" lon="-0.73331">
        <ele>161</ele>
        <time>2021-03-03T23:50:34Z</time>
      </trkpt>
      <trkpt lat="47.02088" lon="-0.7347">
        <ele>158</ele>
        <time>2021-03-03T23:50:56Z</time>
      </trkpt>
      <trkpt lat="47.0206" lon="-0.73521">
        <ele>156</ele>
        <time>2021-03-03T23:51:04Z</time>
      </trkpt>
      <trkpt lat="47.02041" lon="-0.73551">
        <ele>155</ele>
        <time>2021-03-03T23:51:09Z</time>
      </trkpt>
      <trkpt lat="47.02019" lon="-0.73578">
        <ele>155</ele>
        <time>2021-03-03T23:51:14Z</time>
      </trkpt>
      <trkpt lat="47.01988" lon="-0.73606">
        <ele>153</ele>
        <time>2021-03-03T23:51:20Z</time>
      </trkpt>
      <trkpt lat="47.0194" lon="-0.7364">
        <ele>151</ele>
        <time>2021-03-03T23:51:30Z</time>
      </trkpt>
      <trkpt lat="47.01887" lon="-0.73685">
        <ele>149</ele>
        <time>2021-03-03T23:51:41Z</time>
      </trkpt>
      <trkpt lat="47.01848" lon="-0.73735">
        <ele>147</ele>
        <time>2021-03-03T23:51:50Z</time>
      </trkpt>
      <trkpt lat="47.01831" lon="-0.73752">
        <ele>147</ele>
        <time>2021-03-03T23:51:53Z</time>
      </trkpt>
      <trkpt lat="47.01789" lon="-0.73784">
        <ele>145</ele>
        <time>2021-03-03T23:52:02Z</time>
      </trkpt>
      <trkpt lat="47.01773" lon="-0.738">
        <ele>145</ele>
        <time>2021-03-03T23:52:05Z</time>
      </trkpt>
      <trkpt lat="47.01708" lon="-0.73869">
        <ele>145</ele>
        <time>2021-03-03T23:52:20Z</time>
      </trkpt>
      <trkpt lat="47.01681" lon="-0.73894">
        <ele>145</ele>
        <time>2021-03-03T23:52:25Z</time>
      </trkpt>
      <trkpt lat="47.01633" lon="-0.73932">
        <ele>146</ele>
        <time>2021-03-03T23:52:35Z</time>
      </trkpt>
      <trkpt lat="47.01531" lon="-0.73992">
        <ele>150</ele>
        <time>2021-03-03T23:52:55Z</time>
      </trkpt>
      <trkpt lat="47.01516" lon="-0.74003">
        <ele>151</ele>
        <time>2021-03-03T23:52:58Z</time>
      </trkpt>
      <trkpt lat="47.01499" lon="-0.7402">
        <ele>151</ele>
        <time>2021-03-03T23:53:01Z</time>
      </trkpt>
      <trkpt lat="47.01481" lon="-0.74035">
        <ele>151</ele>
        <time>2021-03-03T23:53:05Z</time>
      </trkpt>
      <trkpt lat="47.01468" lon="-0.74043">
        <ele>151</ele>
        <time>2021-03-03T23:53:07Z</time>
      </trkpt>
      <trkpt lat="47.01462" lon="-0.74045">
        <ele>151</ele>
        <time>2021-03-03T23:53:08Z</time>
      </trkpt>
      <trkpt lat="47.01457" lon="-0.74046">
        <ele>150</ele>
        <time>2021-03-03T23:53:09Z</time>
      </trkpt>
      <trkpt lat="47.01419" lon="-0.74069">
        <ele>149</ele>
        <time>2021-03-03T23:53:17Z</time>
      </trkpt>
      <trkpt lat="47.01396" lon="-0.74081">
        <ele>149</ele>
        <time>2021-03-03T23:53:21Z</time>
      </trkpt>
      <trkpt lat="47.01358" lon="-0.74099">
        <ele>148</ele>
        <time>2021-03-03T23:53:28Z</time>
      </trkpt>
      <trkpt lat="47.01337" lon="-0.74106">
        <ele>148</ele>
        <time>2021-03-03T23:53:32Z</time>
      </trkpt>
      <trkpt lat="47.01287" lon="-0.74116">
        <ele>146</ele>
        <time>2021-03-03T23:53:41Z</time>
      </trkpt>
      <trkpt lat="47.01255" lon="-0.74126">
        <ele>144</ele>
        <time>2021-03-03T23:53:47Z</time>
      </trkpt>
      <trkpt lat="47.01227" lon="-0.74139">
        <ele>143</ele>
        <time>2021-03-03T23:53:52Z</time>
      </trkpt>
      <trkpt lat="47.01202" lon="-0.74154">
        <ele>142</ele>
        <time>2021-03-03T23:53:57Z</time>
      </trkpt>
      <trkpt lat="47.01176" lon="-0.74171">
        <ele>141</ele>
        <time>2021-03-03T23:54:02Z</time>
      </trkpt>
      <trkpt lat="47.01153" lon="-0.74189">
        <ele>141</ele>
        <time>2021-03-03T23:54:07Z</time>
      </trkpt>
      <trkpt lat="47.01144" lon="-0.74196">
        <ele>140</ele>
        <time>2021-03-03T23:54:08Z</time>
      </trkpt>
      <trkpt lat="47.01102" lon="-0.7422">
        <ele>138</ele>
        <time>2021-03-03T23:54:16Z</time>
      </trkpt>
      <trkpt lat="47.01089" lon="-0.74226">
        <ele>138</ele>
        <time>2021-03-03T23:54:19Z</time>
      </trkpt>
      <trkpt lat="47.01046" lon="-0.7424">
        <ele>136</ele>
        <time>2021-03-03T23:54:27Z</time>
      </trkpt>
      <trkpt lat="47.01015" lon="-0.74254">
        <ele>135</ele>
        <time>2021-03-03T23:54:32Z</time>
      </trkpt>
      <trkpt lat="47.00959" lon="-0.74282">
        <ele>133</ele>
        <time>2021-03-03T23:54:43Z</time>
      </trkpt>
      <trkpt lat="47.00951" lon="-0.74284">
        <ele>133</ele>
        <time>2021-03-03T23:54:44Z</time>
      </trkpt>
      <trkpt lat="47.00947" lon="-0.74285">
        <ele>132</ele>
        <time>2021-03-03T23:54:45Z</time>
      </trkpt>
      <trkpt lat="47.00916" lon="-0.74289">
        <ele>131</ele>
        <time>2021-03-03T23:54:51Z</time>
      </trkpt>
      <trkpt lat="47.0091" lon="-0.74289">
        <ele>131</ele>
        <time>2021-03-03T23:54:52Z</time>
      </trkpt>
      <trkpt lat="47.00928" lon="-0.74229">
        <ele>132</ele>
        <time>2021-03-03T23:55:00Z</time>
      </trkpt>
      <trkpt lat="47.00913" lon="-0.74227">
        <ele>131</ele>
        <time>2021-03-03T23:55:02Z</time>
      </trkpt>
      <trkpt lat="47.009" lon="-0.74233">
        <ele>131</ele>
        <time>2021-03-03T23:55:05Z</time>
      </trkpt>
      <trkpt lat="47.00798" lon="-0.74289">
        <ele>126</ele>
        <time>2021-03-03T23:55:24Z</time>
      </trkpt>
      <trkpt lat="47.00783" lon="-0.74296">
        <ele>125</ele>
        <time>2021-03-03T23:55:27Z</time>
      </trkpt>
      <trkpt lat="47.00753" lon="-0.74305">
        <ele>123</ele>
        <time>2021-03-03T23:55:32Z</time>
      </trkpt>
      <trkpt lat="47.00754" lon="-0.74314">
        <ele>123</ele>
        <time>2021-03-03T23:55:33Z</time>
      </trkpt>
      <trkpt lat="47.00755" lon="-0.74367">
        <ele>123</ele>
        <time>2021-03-03T23:55:40Z</time>
      </trkpt>
      <trkpt lat="47.00752" lon="-0.74389">
        <ele>123</ele>
        <time>2021-03-03T23:55:43Z</time>
      </trkpt>
      <trkpt lat="47.00746" lon="-0.74413">
        <ele>124</ele>
        <time>2021-03-03T23:55:46Z</time>
      </trkpt>
      <trkpt lat="47.00742" lon="-0.74424">
        <ele>124</ele>
        <time>2021-03-03T23:55:47Z</time>
      </trkpt>
      <trkpt lat="47.00738" lon="-0.74432">
        <ele>124</ele>
        <time>2021-03-03T23:55:48Z</time>
      </trkpt>
      <trkpt lat="47.00724" lon="-0.74445">
        <ele>123</ele>
        <time>2021-03-03T23:55:51Z</time>
      </trkpt>
      <trkpt lat="47.00725" lon="-0.74449">
        <ele>123</ele>
        <time>2021-03-03T23:55:52Z</time>
      </trkpt>
      <trkpt lat="47.00725" lon="-0.74453">
        <ele>123</ele>
        <time>2021-03-03T23:55:52Z</time>
      </trkpt>
      <trkpt lat="47.00724" lon="-0.74456">
        <ele>123</ele>
        <time>2021-03-03T23:55:53Z</time>
      </trkpt>
      <trkpt lat="47.00722" lon="-0.74459">
        <ele>123</ele>
        <time>2021-03-03T23:55:53Z</time>
      </trkpt>
      <trkpt lat="47.0072" lon="-0.74461">
        <ele>123</ele>
        <time>2021-03-03T23:55:54Z</time>
      </trkpt>
      <trkpt lat="47.00718" lon="-0.74462">
        <ele>123</ele>
        <time>2021-03-03T23:55:54Z</time>
      </trkpt>
      <trkpt lat="47.00715" lon="-0.74462">
        <ele>123</ele>
        <time>2021-03-03T23:55:55Z</time>
      </trkpt>
      <trkpt lat="47.00711" lon="-0.74458">
        <ele>122</ele>
        <time>2021-03-03T23:55:56Z</time>
      </trkpt>
      <trkpt lat="47.0071" lon="-0.74455">
        <ele>122</ele>
        <time>2021-03-03T23:55:56Z</time>
      </trkpt>
      <trkpt lat="47.00704" lon="-0.74457">
        <ele>122</ele>
        <time>2021-03-03T23:55:57Z</time>
      </trkpt>
      <trkpt lat="47.00691" lon="-0.74464">
        <ele>121</ele>
        <time>2021-03-03T23:55:59Z</time>
      </trkpt>
      <trkpt lat="47.00665" lon="-0.7447">
        <ele>120</ele>
        <time>2021-03-03T23:56:04Z</time>
      </trkpt>
      <trkpt lat="47.00655" lon="-0.74472">
        <ele>120</ele>
        <time>2021-03-03T23:56:06Z</time>
      </trkpt>
      <trkpt lat="47.00644" lon="-0.74472">
        <ele>120</ele>
        <time>2021-03-03T23:56:08Z</time>
      </trkpt>
      <trkpt lat="47.00626" lon="-0.74465">
        <ele>120</ele>
        <time>2021-03-03T23:56:11Z</time>
      </trkpt>
      <trkpt lat="47.00609" lon="-0.7445">
        <ele>120</ele>
        <time>2021-03-03T23:56:15Z</time>
      </trkpt>
      <trkpt lat="47.00594" lon="-0.74435">
        <ele>120</ele>
        <time>2021-03-03T23:56:18Z</time>
      </trkpt>
      <trkpt lat="47.00575" lon="-0.74418">
        <ele>122</ele>
        <time>2021-03-03T23:56:22Z</time>
      </trkpt>
      <trkpt lat="47.00557" lon="-0.74403">
        <ele>124</ele>
        <time>2021-03-03T23:56:26Z</time>
      </trkpt>
      <trkpt lat="47.00539" lon="-0.74387">
        <ele>125</ele>
        <time>2021-03-03T23:56:29Z</time>
      </trkpt>
      <trkpt lat="47.00521" lon="-0.74368">
        <ele>126</ele>
        <time>2021-03-03T23:56:33Z</time>
      </trkpt>
      <trkpt lat="47.00494" lon="-0.74346">
        <ele>128</ele>
        <time>2021-03-03T23:56:39Z</time>
      </trkpt>
      <trkpt lat="47.0048" lon="-0.74338">
        <ele>129</ele>
        <time>2021-03-03T23:56:41Z</time>
      </trkpt>
      <trkpt lat="47.00462" lon="-0.74331">
        <ele>131</ele>
        <time>2021-03-03T23:56:45Z</time>
      </trkpt>
      <trkpt lat="47.00422" lon="-0.7433">
        <ele>134</ele>
        <time>2021-03-03T23:56:52Z</time>
      </trkpt>
      <trkpt lat="47.00339" lon="-0.74333">
        <ele>137</ele>
        <time>2021-03-03T23:57:07Z</time>
      </trkpt>
      <trkpt lat="47.00328" lon="-0.74333">
        <ele>137</ele>
        <time>2021-03-03T23:57:09Z</time>
      </trkpt>
      <trkpt lat="47.00152" lon="-0.74338">
        <ele>141</ele>
        <time>2021-03-03T23:57:40Z</time>
      </trkpt>
      <trkpt lat="47.00095" lon="-0.74341">
        <ele>144</ele>
        <time>2021-03-03T23:57:50Z</time>
      </trkpt>
      <trkpt lat="46.99989" lon="-0.74346">
        <ele>149</ele>
        <time>2021-03-03T23:58:09Z</time>
      </trkpt>
      <trkpt lat="46.99805" lon="-0.74352">
        <ele>154</ele>
        <time>2021-03-03T23:58:42Z</time>
      </trkpt>
      <trkpt lat="46.99547" lon="-0.74361">
        <ele>161</ele>
        <time>2021-03-03T23:59:28Z</time>
      </trkpt>
      <trkpt lat="46.99421" lon="-0.74363">
        <ele>163</ele>
        <time>2021-03-03T23:59:50Z</time>
      </trkpt>
      <trkpt lat="46.99415" lon="-0.74362">
        <ele>163</ele>
        <time>2021-03-03T23:59:51Z</time>
      </trkpt>
      <trkpt lat="46.99396" lon="-0.74358">
        <ele>162</ele>
        <time>2021-03-03T23:59:55Z</time>
      </trkpt>
      <trkpt lat="46.99364" lon="-0.74349">
        <ele>161</ele>
        <time>2021-03-04T00:00:00Z</time>
      </trkpt>
      <trkpt lat="46.99297" lon="-0.74328">
        <ele>158</ele>
        <time>2021-03-04T00:00:13Z</time>
      </trkpt>
      <trkpt lat="46.99239" lon="-0.7431">
        <ele>155</ele>
        <time>2021-03-04T00:00:23Z</time>
      </trkpt>
      <trkpt lat="46.99212" lon="-0.74302">
        <ele>153</ele>
        <time>2021-03-04T00:00:28Z</time>
      </trkpt>
      <trkpt lat="46.99206" lon="-0.743">
        <ele>153</ele>
        <time>2021-03-04T00:00:29Z</time>
      </trkpt>
      <trkpt lat="46.99202" lon="-0.74299">
        <ele>153</ele>
        <time>2021-03-04T00:00:30Z</time>
      </trkpt>
      <trkpt lat="46.99149" lon="-0.7428">
        <ele>150</ele>
        <time>2021-03-04T00:00:40Z</time>
      </trkpt>
      <trkpt lat="46.99136" lon="-0.74276">
        <ele>150</ele>
        <time>2021-03-04T00:00:42Z</time>
      </trkpt>
      <trkpt lat="46.99127" lon="-0.74277">
        <ele>150</ele>
        <time>2021-03-04T00:00:44Z</time>
      </trkpt>
      <trkpt lat="46.99115" lon="-0.74281">
        <ele>151</ele>
        <time>2021-03-04T00:00:46Z</time>
      </trkpt>
      <trkpt lat="46.99095" lon="-0.74294">
        <ele>151</ele>
        <time>2021-03-04T00:00:50Z</time>
      </trkpt>
      <trkpt lat="46.99094" lon="-0.74294">
        <ele>151</ele>
        <time>2021-03-04T00:00:50Z</time>
      </trkpt>
      <trkpt lat="46.99054" lon="-0.74319">
        <ele>151</ele>
        <time>2021-03-04T00:00:57Z</time>
      </trkpt>
      <trkpt lat="46.99036" lon="-0.7433">
        <ele>152</ele>
        <time>2021-03-04T00:01:01Z</time>
      </trkpt>
      <trkpt lat="46.99029" lon="-0.74333">
        <ele>152</ele>
        <time>2021-03-04T00:01:02Z</time>
      </trkpt>
      <trkpt lat="46.99023" lon="-0.74335">
        <ele>152</ele>
        <time>2021-03-04T00:01:03Z</time>
      </trkpt>
      <trkpt lat="46.99019" lon="-0.74336">
        <ele>152</ele>
        <time>2021-03-04T00:01:04Z</time>
      </trkpt>
      <trkpt lat="46.99014" lon="-0.74335">
        <ele>152</ele>
        <time>2021-03-04T00:01:05Z</time>
      </trkpt>
      <trkpt lat="46.99013" lon="-0.74448">
        <ele>151</ele>
        <time>2021-03-04T00:01:19Z</time>
      </trkpt>
      <trkpt lat="46.99015" lon="-0.74455">
        <ele>151</ele>
        <time>2021-03-04T00:01:20Z</time>
      </trkpt>
      <trkpt lat="46.99018" lon="-0.7446">
        <ele>150</ele>
        <time>2021-03-04T00:01:20Z</time>
      </trkpt>
      <trkpt lat="46.98945" lon="-0.74604">
        <ele>148</ele>
        <time>2021-03-04T00:01:42Z</time>
      </trkpt>
      <trkpt lat="46.98866" lon="-0.7468">
        <ele>147</ele>
        <time>2021-03-04T00:01:59Z</time>
      </trkpt>
      <trkpt lat="46.98803" lon="-0.74782">
        <ele>144</ele>
        <time>2021-03-04T00:02:16Z</time>
      </trkpt>
      <trkpt lat="46.98776" lon="-0.74883">
        <ele>144</ele>
        <time>2021-03-04T00:02:29Z</time>
      </trkpt>
      <trkpt lat="46.98755" lon="-0.74938">
        <ele>143</ele>
        <time>2021-03-04T00:02:37Z</time>
      </trkpt>
      <trkpt lat="46.98705" lon="-0.75063">
        <ele>140</ele>
        <time>2021-03-04T00:02:54Z</time>
      </trkpt>
      <trkpt lat="46.98702" lon="-0.75078">
        <ele>140</ele>
        <time>2021-03-04T00:02:56Z</time>
      </trkpt>
      <trkpt lat="46.98694" lon="-0.75263">
        <ele>139</ele>
        <time>2021-03-04T00:03:19Z</time>
      </trkpt>
      <trkpt lat="46.98655" lon="-0.75552">
        <ele>150</ele>
        <time>2021-03-04T00:03:54Z</time>
      </trkpt>
      <trkpt lat="46.98648" lon="-0.75638">
        <ele>154</ele>
        <time>2021-03-04T00:04:05Z</time>
      </trkpt>
      <trkpt lat="46.98648" lon="-0.75729">
        <ele>155</ele>
        <time>2021-03-04T00:04:16Z</time>
      </trkpt>
      <trkpt lat="46.98647" lon="-0.75756">
        <ele>155</ele>
        <time>2021-03-04T00:04:19Z</time>
      </trkpt>
      <trkpt lat="46.98638" lon="-0.75812">
        <ele>154</ele>
        <time>2021-03-04T00:04:26Z</time>
      </trkpt>
      <trkpt lat="46.98617" lon="-0.75892">
        <ele>153</ele>
        <time>2021-03-04T00:04:37Z</time>
      </trkpt>
      <trkpt lat="46.98574" lon="-0.76019">
        <ele>150</ele>
        <time>2021-03-04T00:04:54Z</time>
      </trkpt>
      <trkpt lat="46.98521" lon="-0.7614">
        <ele>146</ele>
        <time>2021-03-04T00:05:11Z</time>
      </trkpt>
      <trkpt lat="46.98505" lon="-0.76185">
        <ele>145</ele>
        <time>2021-03-04T00:05:17Z</time>
      </trkpt>
      <trkpt lat="46.98499" lon="-0.76226">
        <ele>144</ele>
        <time>2021-03-04T00:05:22Z</time>
      </trkpt>
      <trkpt lat="46.98492" lon="-0.76257">
        <ele>144</ele>
        <time>2021-03-04T00:05:26Z</time>
      </trkpt>
      <trkpt lat="46.9848" lon="-0.76299">
        <ele>145</ele>
        <time>2021-03-04T00:05:32Z</time>
      </trkpt>
      <trkpt lat="46.98449" lon="-0.76389">
        <ele>149</ele>
        <time>2021-03-04T00:05:44Z</time>
      </trkpt>
      <trkpt lat="46.98441" lon="-0.7639">
        <ele>149</ele>
        <time>2021-03-04T00:05:46Z</time>
      </trkpt>
      <trkpt lat="46.98399" lon="-0.7642">
        <ele>151</ele>
        <time>2021-03-04T00:05:54Z</time>
      </trkpt>
      <trkpt lat="46.98361" lon="-0.76454">
        <ele>152</ele>
        <time>2021-03-04T00:06:02Z</time>
      </trkpt>
      <trkpt lat="46.98274" lon="-0.76552">
        <ele>156</ele>
        <time>2021-03-04T00:06:21Z</time>
      </trkpt>
      <trkpt lat="46.98257" lon="-0.76569">
        <ele>157</ele>
        <time>2021-03-04T00:06:25Z</time>
      </trkpt>
      <trkpt lat="46.98192" lon="-0.76616">
        <ele>158</ele>
        <time>2021-03-04T00:06:38Z</time>
      </trkpt>
      <trkpt lat="46.98094" lon="-0.7668">
        <ele>159</ele>
        <time>2021-03-04T00:06:57Z</time>
      </trkpt>
      <trkpt lat="46.98066" lon="-0.76702">
        <ele>158</ele>
        <time>2021-03-04T00:07:03Z</time>
      </trkpt>
      <trkpt lat="46.98047" lon="-0.76723">
        <ele>158</ele>
        <time>2021-03-04T00:07:07Z</time>
      </trkpt>
      <trkpt lat="46.98024" lon="-0.76759">
        <ele>158</ele>
        <time>2021-03-04T00:07:13Z</time>
      </trkpt>
      <trkpt lat="46.97987" lon="-0.7683">
        <ele>157</ele>
        <time>2021-03-04T00:07:24Z</time>
      </trkpt>
      <trkpt lat="46.97972" lon="-0.76869">
        <ele>157</ele>
        <time>2021-03-04T00:07:29Z</time>
      </trkpt>
      <trkpt lat="46.97965" lon="-0.7692">
        <ele>155</ele>
        <time>2021-03-04T00:07:35Z</time>
      </trkpt>
      <trkpt lat="46.97951" lon="-0.76962">
        <ele>155</ele>
        <time>2021-03-04T00:07:41Z</time>
      </trkpt>
      <trkpt lat="46.97704" lon="-0.77458">
        <ele>171</ele>
        <time>2021-03-04T00:08:56Z</time>
      </trkpt>
      <trkpt lat="46.97677" lon="-0.7752">
        <ele>173</ele>
        <time>2021-03-04T00:09:05Z</time>
      </trkpt>
      <trkpt lat="46.97632" lon="-0.77636">
        <ele>176</ele>
        <time>2021-03-04T00:09:21Z</time>
      </trkpt>
      <trkpt lat="46.97612" lon="-0.77692">
        <ele>176</ele>
        <time>2021-03-04T00:09:28Z</time>
      </trkpt>
      <trkpt lat="46.97592" lon="-0.77736">
        <ele>176</ele>
        <time>2021-03-04T00:09:35Z</time>
      </trkpt>
      <trkpt lat="46.97552" lon="-0.77802">
        <ele>176</ele>
        <time>2021-03-04T00:09:46Z</time>
      </trkpt>
      <trkpt lat="46.97455" lon="-0.77972">
        <ele>172</ele>
        <time>2021-03-04T00:10:13Z</time>
      </trkpt>
      <trkpt lat="46.97408" lon="-0.78057">
        <ele>171</ele>
        <time>2021-03-04T00:10:26Z</time>
      </trkpt>
      <trkpt lat="46.974" lon="-0.78077">
        <ele>171</ele>
        <time>2021-03-04T00:10:29Z</time>
      </trkpt>
      <trkpt lat="46.97316" lon="-0.78335">
        <ele>170</ele>
        <time>2021-03-04T00:11:03Z</time>
      </trkpt>
      <trkpt lat="46.97296" lon="-0.78444">
        <ele>170</ele>
        <time>2021-03-04T00:11:17Z</time>
      </trkpt>
      <trkpt lat="46.97284" lon="-0.78558">
        <ele>169</ele>
        <time>2021-03-04T00:11:31Z</time>
      </trkpt>
      <trkpt lat="46.97279" lon="-0.78592">
        <ele>168</ele>
        <time>2021-03-04T00:11:35Z</time>
      </trkpt>
      <trkpt lat="46.97271" lon="-0.78637">
        <ele>167</ele>
        <time>2021-03-04T00:11:41Z</time>
      </trkpt>
      <trkpt lat="46.97264" lon="-0.78662">
        <ele>166</ele>
        <time>2021-03-04T00:11:44Z</time>
      </trkpt>
      <trkpt lat="46.97215" lon="-0.7878">
        <ele>162</ele>
        <time>2021-03-04T00:12:01Z</time>
      </trkpt>
      <trkpt lat="46.97182" lon="-0.78869">
        <ele>160</ele>
        <time>2021-03-04T00:12:13Z</time>
      </trkpt>
      <trkpt lat="46.9717" lon="-0.78898">
        <ele>159</ele>
        <time>2021-03-04T00:12:17Z</time>
      </trkpt>
      <trkpt lat="46.97145" lon="-0.78942">
        <ele>158</ele>
        <time>2021-03-04T00:12:24Z</time>
      </trkpt>
      <trkpt lat="46.97105" lon="-0.79003">
        <ele>155</ele>
        <time>2021-03-04T00:12:35Z</time>
      </trkpt>
      <trkpt lat="46.97097" lon="-0.79017">
        <ele>155</ele>
        <time>2021-03-04T00:12:37Z</time>
      </trkpt>
      <trkpt lat="46.9709" lon="-0.7904">
        <ele>155</ele>
        <time>2021-03-04T00:12:40Z</time>
      </trkpt>
      <trkpt lat="46.97089" lon="-0.79061">
        <ele>155</ele>
        <time>2021-03-04T00:12:42Z</time>
      </trkpt>
      <trkpt lat="46.97092" lon="-0.79113">
        <ele>155</ele>
        <time>2021-03-04T00:12:49Z</time>
      </trkpt>
      <trkpt lat="46.9708" lon="-0.79193">
        <ele>153</ele>
        <time>2021-03-04T00:12:59Z</time>
      </trkpt>
      <trkpt lat="46.9707" lon="-0.79248">
        <ele>152</ele>
        <time>2021-03-04T00:13:06Z</time>
      </trkpt>
      <trkpt lat="46.97056" lon="-0.79312">
        <ele>151</ele>
        <time>2021-03-04T00:13:14Z</time>
      </trkpt>
      <trkpt lat="46.96991" lon="-0.79508">
        <ele>150</ele>
        <time>2021-03-04T00:13:40Z</time>
      </trkpt>
      <trkpt lat="46.96956" lon="-0.79631">
        <ele>149</ele>
        <time>2021-03-04T00:13:56Z</time>
      </trkpt>
      <trkpt lat="46.96925" lon="-0.79724">
        <ele>148</ele>
        <time>2021-03-04T00:14:09Z</time>
      </trkpt>
      <trkpt lat="46.96889" lon="-0.79808">
        <ele>147</ele>
        <time>2021-03-04T00:14:21Z</time>
      </trkpt>
      <trkpt lat="46.96863" lon="-0.7988">
        <ele>147</ele>
        <time>2021-03-04T00:14:31Z</time>
      </trkpt>
      <trkpt lat="46.96851" lon="-0.79902">
        <ele>147</ele>
        <time>2021-03-04T00:14:34Z</time>
      </trkpt>
      <trkpt lat="46.96843" lon="-0.79923">
        <ele>147</ele>
        <time>2021-03-04T00:14:37Z</time>
      </trkpt>
      <trkpt lat="46.9684" lon="-0.79948">
        <ele>146</ele>
        <time>2021-03-04T00:14:40Z</time>
      </trkpt>
      <trkpt lat="46.96843" lon="-0.79969">
        <ele>145</ele>
        <time>2021-03-04T00:14:43Z</time>
      </trkpt>
      <trkpt lat="46.96852" lon="-0.79992">
        <ele>144</ele>
        <time>2021-03-04T00:14:46Z</time>
      </trkpt>
      <trkpt lat="46.96868" lon="-0.80017">
        <ele>143</ele>
        <time>2021-03-04T00:14:50Z</time>
      </trkpt>
      <trkpt lat="46.96874" lon="-0.80047">
        <ele>142</ele>
        <time>2021-03-04T00:14:54Z</time>
      </trkpt>
      <trkpt lat="46.96875" lon="-0.80057">
        <ele>141</ele>
        <time>2021-03-04T00:14:55Z</time>
      </trkpt>
      <trkpt lat="46.96854" lon="-0.80054">
        <ele>142</ele>
        <time>2021-03-04T00:14:59Z</time>
      </trkpt>
      <trkpt lat="46.96782" lon="-0.80056">
        <ele>141</ele>
        <time>2021-03-04T00:15:12Z</time>
      </trkpt>
      <trkpt lat="46.96723" lon="-0.80056">
        <ele>140</ele>
        <time>2021-03-04T00:15:22Z</time>
      </trkpt>
      <trkpt lat="46.96694" lon="-0.80055">
        <ele>139</ele>
        <time>2021-03-04T00:15:28Z</time>
      </trkpt>
      <trkpt lat="46.96603" lon="-0.80042">
        <ele>136</ele>
        <time>2021-03-04T00:15:44Z</time>
      </trkpt>
      <trkpt lat="46.96528" lon="-0.80027">
        <ele>132</ele>
        <time>2021-03-04T00:15:57Z</time>
      </trkpt>
      <trkpt lat="46.96516" lon="-0.80023">
        <ele>131</ele>
        <time>2021-03-04T00:15:59Z</time>
      </trkpt>
      <trkpt lat="46.96507" lon="-0.80019">
        <ele>130</ele>
        <time>2021-03-04T00:16:01Z</time>
      </trkpt>
      <trkpt lat="46.96491" lon="-0.80007">
        <ele>129</ele>
        <time>2021-03-04T00:16:04Z</time>
      </trkpt>
      <trkpt lat="46.96452" lon="-0.79966">
        <ele>127</ele>
        <time>2021-03-04T00:16:13Z</time>
      </trkpt>
      <trkpt lat="46.96444" lon="-0.79961">
        <ele>127</ele>
        <time>2021-03-04T00:16:14Z</time>
      </trkpt>
      <trkpt lat="46.96437" lon="-0.79961">
        <ele>126</ele>
        <time>2021-03-04T00:16:16Z</time>
      </trkpt>
      <trkpt lat="46.9643" lon="-0.79964">
        <ele>126</ele>
        <time>2021-03-04T00:16:17Z</time>
      </trkpt>
      <trkpt lat="46.96424" lon="-0.79967">
        <ele>125</ele>
        <time>2021-03-04T00:16:18Z</time>
      </trkpt>
      <trkpt lat="46.96412" lon="-0.79984">
        <ele>124</ele>
        <time>2021-03-04T00:16:21Z</time>
      </trkpt>
      <trkpt lat="46.96401" lon="-0.79996">
        <ele>125</ele>
        <time>2021-03-04T00:16:24Z</time>
      </trkpt>
      <trkpt lat="46.96386" lon="-0.79999">
        <ele>125</ele>
        <time>2021-03-04T00:16:26Z</time>
      </trkpt>
      <trkpt lat="46.96377" lon="-0.79996">
        <ele>125</ele>
        <time>2021-03-04T00:16:28Z</time>
      </trkpt>
      <trkpt lat="46.96369" lon="-0.79991">
        <ele>126</ele>
        <time>2021-03-04T00:16:29Z</time>
      </trkpt>
      <trkpt lat="46.96361" lon="-0.79985">
        <ele>126</ele>
        <time>2021-03-04T00:16:31Z</time>
      </trkpt>
      <trkpt lat="46.9635" lon="-0.79972">
        <ele>126</ele>
        <time>2021-03-04T00:16:34Z</time>
      </trkpt>
      <trkpt lat="46.96313" lon="-0.79918">
        <ele>126</ele>
        <time>2021-03-04T00:16:43Z</time>
      </trkpt>
      <trkpt lat="46.963" lon="-0.79906">
        <ele>127</ele>
        <time>2021-03-04T00:16:46Z</time>
      </trkpt>
      <trkpt lat="46.96273" lon="-0.7989">
        <ele>128</ele>
        <time>2021-03-04T00:16:51Z</time>
      </trkpt>
      <trkpt lat="46.96257" lon="-0.79886">
        <ele>129</ele>
        <time>2021-03-04T00:16:54Z</time>
      </trkpt>
      <trkpt lat="46.96239" lon="-0.79885">
        <ele>130</ele>
        <time>2021-03-04T00:16:57Z</time>
      </trkpt>
      <trkpt lat="46.96203" lon="-0.79889">
        <ele>130</ele>
        <time>2021-03-04T00:17:03Z</time>
      </trkpt>
      <trkpt lat="46.96125" lon="-0.79915">
        <ele>133</ele>
        <time>2021-03-04T00:17:17Z</time>
      </trkpt>
      <trkpt lat="46.96103" lon="-0.7992">
        <ele>134</ele>
        <time>2021-03-04T00:17:21Z</time>
      </trkpt>
      <trkpt lat="46.96078" lon="-0.79923">
        <ele>135</ele>
        <time>2021-03-04T00:17:26Z</time>
      </trkpt>
      <trkpt lat="46.96048" lon="-0.79923">
        <ele>137</ele>
        <time>2021-03-04T00:17:31Z</time>
      </trkpt>
      <trkpt lat="46.96017" lon="-0.7992">
        <ele>138</ele>
        <time>2021-03-04T00:17:37Z</time>
      </trkpt>
      <trkpt lat="46.95991" lon="-0.79914">
        <ele>139</ele>
        <time>2021-03-04T00:17:41Z</time>
      </trkpt>
      <trkpt lat="46.95972" lon="-0.79907">
        <ele>140</ele>
        <time>2021-03-04T00:17:45Z</time>
      </trkpt>
      <trkpt lat="46.95953" lon="-0.79895">
        <ele>141</ele>
        <time>2021-03-04T00:17:49Z</time>
      </trkpt>
      <trkpt lat="46.9592" lon="-0.79864">
        <ele>143</ele>
        <time>2021-03-04T00:17:56Z</time>
      </trkpt>
      <trkpt lat="46.95886" lon="-0.79828">
        <ele>144</ele>
        <time>2021-03-04T00:18:03Z</time>
      </trkpt>
      <trkpt lat="46.95873" lon="-0.79817">
        <ele>145</ele>
        <time>2021-03-04T00:18:06Z</time>
      </trkpt>
      <trkpt lat="46.95857" lon="-0.79804">
        <ele>146</ele>
        <time>2021-03-04T00:18:09Z</time>
      </trkpt>
      <trkpt lat="46.95819" lon="-0.7978">
        <ele>147</ele>
        <time>2021-03-04T00:18:16Z</time>
      </trkpt>
      <trkpt lat="46.958" lon="-0.79771">
        <ele>148</ele>
        <time>2021-03-04T00:18:20Z</time>
      </trkpt>
      <trkpt lat="46.95778" lon="-0.79765">
        <ele>149</ele>
        <time>2021-03-04T00:18:24Z</time>
      </trkpt>
      <trkpt lat="46.95716" lon="-0.79758">
        <ele>150</ele>
        <time>2021-03-04T00:18:35Z</time>
      </trkpt>
      <trkpt lat="46.957" lon="-0.79752">
        <ele>150</ele>
        <time>2021-03-04T00:18:38Z</time>
      </trkpt>
      <trkpt lat="46.95688" lon="-0.79743">
        <ele>150</ele>
        <time>2021-03-04T00:18:40Z</time>
      </trkpt>
      <trkpt lat="46.9565" lon="-0.79691">
        <ele>148</ele>
        <time>2021-03-04T00:18:50Z</time>
      </trkpt>
      <trkpt lat="46.95625" lon="-0.79661">
        <ele>147</ele>
        <time>2021-03-04T00:18:55Z</time>
      </trkpt>
      <trkpt lat="46.95596" lon="-0.79632">
        <ele>146</ele>
        <time>2021-03-04T00:19:02Z</time>
      </trkpt>
      <trkpt lat="46.95549" lon="-0.79593">
        <ele>146</ele>
        <time>2021-03-04T00:19:11Z</time>
      </trkpt>
      <trkpt lat="46.95513" lon="-0.79569">
        <ele>146</ele>
        <time>2021-03-04T00:19:18Z</time>
      </trkpt>
      <trkpt lat="46.95496" lon="-0.79567">
        <ele>147</ele>
        <time>2021-03-04T00:19:21Z</time>
      </trkpt>
      <trkpt lat="46.95437" lon="-0.79581">
        <ele>148</ele>
        <time>2021-03-04T00:19:32Z</time>
      </trkpt>
      <trkpt lat="46.95432" lon="-0.7958">
        <ele>148</ele>
        <time>2021-03-04T00:19:33Z</time>
      </trkpt>
      <trkpt lat="46.95426" lon="-0.79577">
        <ele>148</ele>
        <time>2021-03-04T00:19:34Z</time>
      </trkpt>
      <trkpt lat="46.95359" lon="-0.79524">
        <ele>147</ele>
        <time>2021-03-04T00:19:47Z</time>
      </trkpt>
      <trkpt lat="46.95326" lon="-0.79516">
        <ele>146</ele>
        <time>2021-03-04T00:19:53Z</time>
      </trkpt>
      <trkpt lat="46.95313" lon="-0.79505">
        <ele>146</ele>
        <time>2021-03-04T00:19:56Z</time>
      </trkpt>
      <trkpt lat="46.9526" lon="-0.79414">
        <ele>147</ele>
        <time>2021-03-04T00:20:11Z</time>
      </trkpt>
      <trkpt lat="46.95216" lon="-0.79379">
        <ele>148</ele>
        <time>2021-03-04T00:20:19Z</time>
      </trkpt>
      <trkpt lat="46.95197" lon="-0.79361">
        <ele>148</ele>
        <time>2021-03-04T00:20:24Z</time>
      </trkpt>
      <trkpt lat="46.95181" lon="-0.79341">
        <ele>148</ele>
        <time>2021-03-04T00:20:27Z</time>
      </trkpt>
      <trkpt lat="46.95157" lon="-0.79307">
        <ele>148</ele>
        <time>2021-03-04T00:20:33Z</time>
      </trkpt>
      <trkpt lat="46.95149" lon="-0.7929">
        <ele>148</ele>
        <time>2021-03-04T00:20:36Z</time>
      </trkpt>
      <trkpt lat="46.95119" lon="-0.79206">
        <ele>148</ele>
        <time>2021-03-04T00:20:47Z</time>
      </trkpt>
      <trkpt lat="46.951" lon="-0.79163">
        <ele>148</ele>
        <time>2021-03-04T00:20:53Z</time>
      </trkpt>
      <trkpt lat="46.95066" lon="-0.79098">
        <ele>147</ele>
        <time>2021-03-04T00:21:03Z</time>
      </trkpt>
      <trkpt lat="46.95049" lon="-0.79072">
        <ele>147</ele>
        <time>2021-03-04T00:21:08Z</time>
      </trkpt>
      <trkpt lat="46.95031" lon="-0.7905">
        <ele>147</ele>
        <time>2021-03-04T00:21:12Z</time>
      </trkpt>
      <trkpt lat="46.9494" lon="-0.78962">
        <ele>148</ele>
        <time>2021-03-04T00:21:31Z</time>
      </trkpt>
      <trkpt lat="46.94904" lon="-0.7893">
        <ele>148</ele>
        <time>2021-03-04T00:21:39Z</time>
      </trkpt>
      <trkpt lat="46.94871" lon="-0.78906">
        <ele>149</ele>
        <time>2021-03-04T00:21:45Z</time>
      </trkpt>
      <trkpt lat="46.94818" lon="-0.78879">
        <ele>150</ele>
        <time>2021-03-04T00:21:55Z</time>
      </trkpt>
      <trkpt lat="46.94786" lon="-0.78865">
        <ele>150</ele>
        <time>2021-03-04T00:22:01Z</time>
      </trkpt>
      <trkpt lat="46.94676" lon="-0.78824">
        <ele>149</ele>
        <time>2021-03-04T00:22:21Z</time>
      </trkpt>
      <trkpt lat="46.94649" lon="-0.78817">
        <ele>149</ele>
        <time>2021-03-04T00:22:26Z</time>
      </trkpt>
      <trkpt lat="46.94578" lon="-0.78809">
        <ele>150</ele>
        <time>2021-03-04T00:22:39Z</time>
      </trkpt>
      <trkpt lat="46.94544" lon="-0.78795">
        <ele>150</ele>
        <time>2021-03-04T00:22:45Z</time>
      </trkpt>
      <trkpt lat="46.94514" lon="-0.78773">
        <ele>150</ele>
        <time>2021-03-04T00:22:51Z</time>
      </trkpt>
      <trkpt lat="46.94504" lon="-0.78759">
        <ele>150</ele>
        <time>2021-03-04T00:22:54Z</time>
      </trkpt>
      <trkpt lat="46.94499" lon="-0.78745">
        <ele>150</ele>
        <time>2021-03-04T00:22:56Z</time>
      </trkpt>
      <trkpt lat="46.94492" lon="-0.78699">
        <ele>150</ele>
        <time>2021-03-04T00:23:01Z</time>
      </trkpt>
      <trkpt lat="46.94479" lon="-0.78592">
        <ele>149</ele>
        <time>2021-03-04T00:23:15Z</time>
      </trkpt>
      <trkpt lat="46.94476" lon="-0.78498">
        <ele>148</ele>
        <time>2021-03-04T00:23:26Z</time>
      </trkpt>
      <trkpt lat="46.94469" lon="-0.78451">
        <ele>147</ele>
        <time>2021-03-04T00:23:32Z</time>
      </trkpt>
      <trkpt lat="46.94418" lon="-0.78223">
        <ele>140</ele>
        <time>2021-03-04T00:24:01Z</time>
      </trkpt>
      <trkpt lat="46.94411" lon="-0.78198">
        <ele>139</ele>
        <time>2021-03-04T00:24:04Z</time>
      </trkpt>
      <trkpt lat="46.94395" lon="-0.78154">
        <ele>138</ele>
        <time>2021-03-04T00:24:10Z</time>
      </trkpt>
      <trkpt lat="46.94373" lon="-0.78115">
        <ele>137</ele>
        <time>2021-03-04T00:24:17Z</time>
      </trkpt>
      <trkpt lat="46.94345" lon="-0.78079">
        <ele>135</ele>
        <time>2021-03-04T00:24:23Z</time>
      </trkpt>
      <trkpt lat="46.94328" lon="-0.78062">
        <ele>135</ele>
        <time>2021-03-04T00:24:27Z</time>
      </trkpt>
      <trkpt lat="46.94302" lon="-0.78044">
        <ele>135</ele>
        <time>2021-03-04T00:24:32Z</time>
      </trkpt>
      <trkpt lat="46.94121" lon="-0.77928">
        <ele>139</ele>
        <time>2021-03-04T00:25:07Z</time>
      </trkpt>
      <trkpt lat="46.94094" lon="-0.77906">
        <ele>138</ele>
        <time>2021-03-04T00:25:13Z</time>
      </trkpt>
      <trkpt lat="46.94085" lon="-0.77895">
        <ele>138</ele>
        <time>2021-03-04T00:25:15Z</time>
      </trkpt>
      <trkpt lat="46.94078" lon="-0.77881">
        <ele>137</ele>
        <time>2021-03-04T00:25:17Z</time>
      </trkpt>
      <trkpt lat="46.94065" lon="-0.77848">
        <ele>135</ele>
        <time>2021-03-04T00:25:21Z</time>
      </trkpt>
      <trkpt lat="46.94061" lon="-0.77829">
        <ele>135</ele>
        <time>2021-03-04T00:25:24Z</time>
      </trkpt>
      <trkpt lat="46.9406" lon="-0.77806">
        <ele>134</ele>
        <time>2021-03-04T00:25:27Z</time>
      </trkpt>
      <trkpt lat="46.94061" lon="-0.77784">
        <ele>134</ele>
        <time>2021-03-04T00:25:29Z</time>
      </trkpt>
      <trkpt lat="46.94065" lon="-0.7776">
        <ele>133</ele>
        <time>2021-03-04T00:25:32Z</time>
      </trkpt>
      <trkpt lat="46.94074" lon="-0.77706">
        <ele>135</ele>
        <time>2021-03-04T00:25:39Z</time>
      </trkpt>
      <trkpt lat="46.94076" lon="-0.77687">
        <ele>136</ele>
        <time>2021-03-04T00:25:41Z</time>
      </trkpt>
      <trkpt lat="46.94077" lon="-0.77678">
        <ele>136</ele>
        <time>2021-03-04T00:25:42Z</time>
      </trkpt>
      <trkpt lat="46.94077" lon="-0.77649">
        <ele>137</ele>
        <time>2021-03-04T00:25:46Z</time>
      </trkpt>
      <trkpt lat="46.94075" lon="-0.77623">
        <ele>138</ele>
        <time>2021-03-04T00:25:49Z</time>
      </trkpt>
      <trkpt lat="46.94071" lon="-0.77597">
        <ele>139</ele>
        <time>2021-03-04T00:25:52Z</time>
      </trkpt>
      <trkpt lat="46.9406" lon="-0.77553">
        <ele>140</ele>
        <time>2021-03-04T00:25:58Z</time>
      </trkpt>
      <trkpt lat="46.94041" lon="-0.77512">
        <ele>142</ele>
        <time>2021-03-04T00:26:04Z</time>
      </trkpt>
      <trkpt lat="46.94019" lon="-0.77479">
        <ele>144</ele>
        <time>2021-03-04T00:26:10Z</time>
      </trkpt>
      <trkpt lat="46.93994" lon="-0.77454">
        <ele>145</ele>
        <time>2021-03-04T00:26:15Z</time>
      </trkpt>
      <trkpt lat="46.93887" lon="-0.77381">
        <ele>143</ele>
        <time>2021-03-04T00:26:36Z</time>
      </trkpt>
      <trkpt lat="46.93696" lon="-0.77256">
        <ele>138</ele>
        <time>2021-03-04T00:27:13Z</time>
      </trkpt>
      <trkpt lat="46.93658" lon="-0.77228">
        <ele>138</ele>
        <time>2021-03-04T00:27:21Z</time>
      </trkpt>
      <trkpt lat="46.93623" lon="-0.77193">
        <ele>139</ele>
        <time>2021-03-04T00:27:28Z</time>
      </trkpt>
      <trkpt lat="46.93488" lon="-0.77029">
        <ele>142</ele>
        <time>2021-03-04T00:28:00Z</time>
      </trkpt>
      <trkpt lat="46.93426" lon="-0.76958">
        <ele>140</ele>
        <time>2021-03-04T00:28:14Z</time>
      </trkpt>
      <trkpt lat="46.9339" lon="-0.76908">
        <ele>139</ele>
        <time>2021-03-04T00:28:22Z</time>
      </trkpt>
      <trkpt lat="46.93377" lon="-0.76877">
        <ele>140</ele>
        <time>2021-03-04T00:28:27Z</time>
      </trkpt>
      <trkpt lat="46.93349" lon="-0.76808">
        <ele>141</ele>
        <time>2021-03-04T00:28:37Z</time>
      </trkpt>
      <trkpt lat="46.9332" lon="-0.76736">
        <ele>140</ele>
        <time>2021-03-04T00:28:47Z</time>
      </trkpt>
      <trkpt lat="46.9321" lon="-0.76462">
        <ele>139</ele>
        <time>2021-03-04T00:29:25Z</time>
      </trkpt>
      <trkpt lat="46.93198" lon="-0.76433">
        <ele>138</ele>
        <time>2021-03-04T00:29:30Z</time>
      </trkpt>
      <trkpt lat="46.93187" lon="-0.76406">
        <ele>137</ele>
        <time>2021-03-04T00:29:33Z</time>
      </trkpt>
      <trkpt lat="46.93131" lon="-0.76263">
        <ele>140</ele>
        <time>2021-03-04T00:29:53Z</time>
      </trkpt>
      <trkpt lat="46.93117" lon="-0.76236">
        <ele>141</ele>
        <time>2021-03-04T00:29:58Z</time>
      </trkpt>
      <trkpt lat="46.93104" lon="-0.76217">
        <ele>141</ele>
        <time>2021-03-04T00:30:01Z</time>
      </trkpt>
      <trkpt lat="46.93086" lon="-0.76196">
        <ele>141</ele>
        <time>2021-03-04T00:30:05Z</time>
      </trkpt>
      <trkpt lat="46.92949" lon="-0.76056">
        <ele>140</ele>
        <time>2021-03-04T00:30:35Z</time>
      </trkpt>
      <trkpt lat="46.92928" lon="-0.76023">
        <ele>140</ele>
        <time>2021-03-04T00:30:40Z</time>
      </trkpt>
      <trkpt lat="46.92918" lon="-0.76003">
        <ele>139</ele>
        <time>2021-03-04T00:30:43Z</time>
      </trkpt>
      <trkpt lat="46.92912" lon="-0.75984">
        <ele>140</ele>
        <time>2021-03-04T00:30:46Z</time>
      </trkpt>
      <trkpt lat="46.9288" lon="-0.75862">
        <ele>142</ele>
        <time>2021-03-04T00:31:02Z</time>
      </trkpt>
      <trkpt lat="46.92864" lon="-0.75824">
        <ele>142</ele>
        <time>2021-03-04T00:31:07Z</time>
      </trkpt>
      <trkpt lat="46.92854" lon="-0.75806">
        <ele>143</ele>
        <time>2021-03-04T00:31:10Z</time>
      </trkpt>
      <trkpt lat="46.9284" lon="-0.75788">
        <ele>143</ele>
        <time>2021-03-04T00:31:13Z</time>
      </trkpt>
      <trkpt lat="46.92826" lon="-0.75778">
        <ele>143</ele>
        <time>2021-03-04T00:31:16Z</time>
      </trkpt>
      <trkpt lat="46.92808" lon="-0.75772">
        <ele>144</ele>
        <time>2021-03-04T00:31:19Z</time>
      </trkpt>
      <trkpt lat="46.9278" lon="-0.75765">
        <ele>145</ele>
        <time>2021-03-04T00:31:24Z</time>
      </trkpt>
      <trkpt lat="46.92746" lon="-0.75757">
        <ele>146</ele>
        <time>2021-03-04T00:31:30Z</time>
      </trkpt>
      <trkpt lat="46.9273" lon="-0.75752">
        <ele>146</ele>
        <time>2021-03-04T00:31:33Z</time>
      </trkpt>
      <trkpt lat="46.92716" lon="-0.75744">
        <ele>146</ele>
        <time>2021-03-04T00:31:36Z</time>
      </trkpt>
      <trkpt lat="46.92691" lon="-0.75724">
        <ele>146</ele>
        <time>2021-03-04T00:31:41Z</time>
      </trkpt>
      <trkpt lat="46.92655" lon="-0.75684">
        <ele>146</ele>
        <time>2021-03-04T00:31:49Z</time>
      </trkpt>
      <trkpt lat="46.92634" lon="-0.75662">
        <ele>146</ele>
        <time>2021-03-04T00:31:54Z</time>
      </trkpt>
      <trkpt lat="46.92611" lon="-0.75647">
        <ele>146</ele>
        <time>2021-03-04T00:31:58Z</time>
      </trkpt>
      <trkpt lat="46.92596" lon="-0.7564">
        <ele>145</ele>
        <time>2021-03-04T00:32:01Z</time>
      </trkpt>
      <trkpt lat="46.92567" lon="-0.75628">
        <ele>145</ele>
        <time>2021-03-04T00:32:06Z</time>
      </trkpt>
      <trkpt lat="46.92549" lon="-0.75621">
        <ele>145</ele>
        <time>2021-03-04T00:32:10Z</time>
      </trkpt>
      <trkpt lat="46.92546" lon="-0.75619">
        <ele>145</ele>
        <time>2021-03-04T00:32:10Z</time>
      </trkpt>
      <trkpt lat="46.92525" lon="-0.75616">
        <ele>146</ele>
        <time>2021-03-04T00:32:14Z</time>
      </trkpt>
      <trkpt lat="46.9249" lon="-0.75628">
        <ele>146</ele>
        <time>2021-03-04T00:32:20Z</time>
      </trkpt>
      <trkpt lat="46.92478" lon="-0.75638">
        <ele>146</ele>
        <time>2021-03-04T00:32:23Z</time>
      </trkpt>
      <trkpt lat="46.92433" lon="-0.75671">
        <ele>145</ele>
        <time>2021-03-04T00:32:32Z</time>
      </trkpt>
      <trkpt lat="46.92388" lon="-0.7567">
        <ele>146</ele>
        <time>2021-03-04T00:32:40Z</time>
      </trkpt>
      <trkpt lat="46.92347" lon="-0.75657">
        <ele>149</ele>
        <time>2021-03-04T00:32:47Z</time>
      </trkpt>
      <trkpt lat="46.92274" lon="-0.75597">
        <ele>150</ele>
        <time>2021-03-04T00:33:02Z</time>
      </trkpt>
      <trkpt lat="46.92269" lon="-0.75596">
        <ele>149</ele>
        <time>2021-03-04T00:33:03Z</time>
      </trkpt>
      <trkpt lat="46.92262" lon="-0.75597">
        <ele>148</ele>
        <time>2021-03-04T00:33:04Z</time>
      </trkpt>
      <trkpt lat="46.92253" lon="-0.75601">
        <ele>148</ele>
        <time>2021-03-04T00:33:06Z</time>
      </trkpt>
      <trkpt lat="46.92247" lon="-0.75605">
        <ele>148</ele>
        <time>2021-03-04T00:33:07Z</time>
      </trkpt>
      <trkpt lat="46.92233" lon="-0.75617">
        <ele>149</ele>
        <time>2021-03-04T00:33:10Z</time>
      </trkpt>
      <trkpt lat="46.92226" lon="-0.75624">
        <ele>150</ele>
        <time>2021-03-04T00:33:11Z</time>
      </trkpt>
      <trkpt lat="46.92223" lon="-0.75631">
        <ele>150</ele>
        <time>2021-03-04T00:33:12Z</time>
      </trkpt>
      <trkpt lat="46.92221" lon="-0.75635">
        <ele>151</ele>
        <time>2021-03-04T00:33:13Z</time>
      </trkpt>
      <trkpt lat="46.92211" lon="-0.7563">
        <ele>150</ele>
        <time>2021-03-04T00:33:15Z</time>
      </trkpt>
      <trkpt lat="46.922" lon="-0.75626">
        <ele>150</ele>
        <time>2021-03-04T00:33:17Z</time>
      </trkpt>
      <trkpt lat="46.92167" lon="-0.75622">
        <ele>150</ele>
        <time>2021-03-04T00:33:23Z</time>
      </trkpt>
      <trkpt lat="46.92152" lon="-0.75624">
        <ele>150</ele>
        <time>2021-03-04T00:33:26Z</time>
      </trkpt>
      <trkpt lat="46.92125" lon="-0.75632">
        <ele>150</ele>
        <time>2021-03-04T00:33:30Z</time>
      </trkpt>
      <trkpt lat="46.9211" lon="-0.75642">
        <ele>150</ele>
        <time>2021-03-04T00:33:33Z</time>
      </trkpt>
      <trkpt lat="46.92095" lon="-0.75654">
        <ele>149</ele>
        <time>2021-03-04T00:33:36Z</time>
      </trkpt>
      <trkpt lat="46.92024" lon="-0.75724">
        <ele>152</ele>
        <time>2021-03-04T00:33:52Z</time>
      </trkpt>
      <trkpt lat="46.92009" lon="-0.75735">
        <ele>152</ele>
        <time>2021-03-04T00:33:55Z</time>
      </trkpt>
      <trkpt lat="46.91997" lon="-0.7574">
        <ele>152</ele>
        <time>2021-03-04T00:33:57Z</time>
      </trkpt>
      <trkpt lat="46.91954" lon="-0.75748">
        <ele>152</ele>
        <time>2021-03-04T00:34:05Z</time>
      </trkpt>
      <trkpt lat="46.91878" lon="-0.75767">
        <ele>152</ele>
        <time>2021-03-04T00:34:18Z</time>
      </trkpt>
      <trkpt lat="46.91868" lon="-0.75767">
        <ele>151</ele>
        <time>2021-03-04T00:34:20Z</time>
      </trkpt>
      <trkpt lat="46.91847" lon="-0.75764">
        <ele>150</ele>
        <time>2021-03-04T00:34:24Z</time>
      </trkpt>
      <trkpt lat="46.91833" lon="-0.75765">
        <ele>150</ele>
        <time>2021-03-04T00:34:26Z</time>
      </trkpt>
      <trkpt lat="46.91824" lon="-0.75768">
        <ele>150</ele>
        <time>2021-03-04T00:34:28Z</time>
      </trkpt>
      <trkpt lat="46.91812" lon="-0.75774">
        <ele>150</ele>
        <time>2021-03-04T00:34:30Z</time>
      </trkpt>
      <trkpt lat="46.918" lon="-0.75789">
        <ele>150</ele>
        <time>2021-03-04T00:34:33Z</time>
      </trkpt>
      <trkpt lat="46.91794" lon="-0.75799">
        <ele>151</ele>
        <time>2021-03-04T00:34:35Z</time>
      </trkpt>
      <trkpt lat="46.9179" lon="-0.75815">
        <ele>151</ele>
        <time>2021-03-04T00:34:37Z</time>
      </trkpt>
      <trkpt lat="46.91781" lon="-0.75873">
        <ele>152</ele>
        <time>2021-03-04T00:34:44Z</time>
      </trkpt>
      <trkpt lat="46.91776" lon="-0.75895">
        <ele>153</ele>
        <time>2021-03-04T00:34:47Z</time>
      </trkpt>
      <trkpt lat="46.91768" lon="-0.7592">
        <ele>153</ele>
        <time>2021-03-04T00:34:50Z</time>
      </trkpt>
      <trkpt lat="46.91744" lon="-0.75982">
        <ele>153</ele>
        <time>2021-03-04T00:34:59Z</time>
      </trkpt>
      <trkpt lat="46.91725" lon="-0.76025">
        <ele>153</ele>
        <time>2021-03-04T00:35:05Z</time>
      </trkpt>
      <trkpt lat="46.91704" lon="-0.76062">
        <ele>152</ele>
        <time>2021-03-04T00:35:11Z</time>
      </trkpt>
      <trkpt lat="46.91656" lon="-0.76119">
        <ele>151</ele>
        <time>2021-03-04T00:35:22Z</time>
      </trkpt>
      <trkpt lat="46.91643" lon="-0.76137">
        <ele>151</ele>
        <time>2021-03-04T00:35:25Z</time>
      </trkpt>
      <trkpt lat="46.91616" lon="-0.76186">
        <ele>153</ele>
        <time>2021-03-04T00:35:33Z</time>
      </trkpt>
      <trkpt lat="46.91594" lon="-0.7623">
        <ele>154</ele>
        <time>2021-03-04T00:35:39Z</time>
      </trkpt>
      <trkpt lat="46.9158" lon="-0.76263">
        <ele>155</ele>
        <time>2021-03-04T00:35:44Z</time>
      </trkpt>
      <trkpt lat="46.91568" lon="-0.76308">
        <ele>157</ele>
        <time>2021-03-04T00:35:50Z</time>
      </trkpt>
      <trkpt lat="46.91539" lon="-0.76428">
        <ele>161</ele>
        <time>2021-03-04T00:36:05Z</time>
      </trkpt>
      <trkpt lat="46.91533" lon="-0.76459">
        <ele>161</ele>
        <time>2021-03-04T00:36:09Z</time>
      </trkpt>
      <trkpt lat="46.91527" lon="-0.76514">
        <ele>161</ele>
        <time>2021-03-04T00:36:16Z</time>
      </trkpt>
      <trkpt lat="46.91521" lon="-0.7654">
        <ele>162</ele>
        <time>2021-03-04T00:36:19Z</time>
      </trkpt>
      <trkpt lat="46.91501" lon="-0.76592">
        <ele>163</ele>
        <time>2021-03-04T00:36:27Z</time>
      </trkpt>
      <trkpt lat="46.91484" lon="-0.7668">
        <ele>166</ele>
        <time>2021-03-04T00:36:38Z</time>
      </trkpt>
      <trkpt lat="46.91472" lon="-0.76724">
        <ele>167</ele>
        <time>2021-03-04T00:36:44Z</time>
      </trkpt>
      <trkpt lat="46.91451" lon="-0.76781">
        <ele>168</ele>
        <time>2021-03-04T00:36:51Z</time>
      </trkpt>
      <trkpt lat="46.91438" lon="-0.76806">
        <ele>168</ele>
        <time>2021-03-04T00:36:55Z</time>
      </trkpt>
      <trkpt lat="46.91416" lon="-0.7684">
        <ele>168</ele>
        <time>2021-03-04T00:37:01Z</time>
      </trkpt>
      <trkpt lat="46.9138" lon="-0.76877">
        <ele>170</ele>
        <time>2021-03-04T00:37:09Z</time>
      </trkpt>
      <trkpt lat="46.91329" lon="-0.76929">
        <ele>172</ele>
        <time>2021-03-04T00:37:20Z</time>
      </trkpt>
      <trkpt lat="46.91288" lon="-0.76978">
        <ele>174</ele>
        <time>2021-03-04T00:37:29Z</time>
      </trkpt>
      <trkpt lat="46.91229" lon="-0.77055">
        <ele>176</ele>
        <time>2021-03-04T00:37:43Z</time>
      </trkpt>
      <trkpt lat="46.91212" lon="-0.77074">
        <ele>177</ele>
        <time>2021-03-04T00:37:47Z</time>
      </trkpt>
      <trkpt lat="46.91158" lon="-0.77117">
        <ele>181</ele>
        <time>2021-03-04T00:37:58Z</time>
      </trkpt>
      <trkpt lat="46.91144" lon="-0.77132">
        <ele>182</ele>
        <time>2021-03-04T00:38:01Z</time>
      </trkpt>
      <trkpt lat="46.91139" lon="-0.7714">
        <ele>183</ele>
        <time>2021-03-04T00:38:02Z</time>
      </trkpt>
      <trkpt lat="46.91135" lon="-0.77149">
        <ele>183</ele>
        <time>2021-03-04T00:38:04Z</time>
      </trkpt>
      <trkpt lat="46.91129" lon="-0.77165">
        <ele>183</ele>
        <time>2021-03-04T00:38:06Z</time>
      </trkpt>
      <trkpt lat="46.91126" lon="-0.77188">
        <ele>184</ele>
        <time>2021-03-04T00:38:09Z</time>
      </trkpt>
      <trkpt lat="46.91125" lon="-0.77244">
        <ele>187</ele>
        <time>2021-03-04T00:38:16Z</time>
      </trkpt>
      <trkpt lat="46.91124" lon="-0.77271">
        <ele>188</ele>
        <time>2021-03-04T00:38:19Z</time>
      </trkpt>
      <trkpt lat="46.91115" lon="-0.77332">
        <ele>189</ele>
        <time>2021-03-04T00:38:26Z</time>
      </trkpt>
      <trkpt lat="46.91108" lon="-0.77356">
        <ele>189</ele>
        <time>2021-03-04T00:38:30Z</time>
      </trkpt>
      <trkpt lat="46.91098" lon="-0.77376">
        <ele>189</ele>
        <time>2021-03-04T00:38:33Z</time>
      </trkpt>
      <trkpt lat="46.9105" lon="-0.77447">
        <ele>189</ele>
        <time>2021-03-04T00:38:45Z</time>
      </trkpt>
      <trkpt lat="46.90873" lon="-0.77709">
        <ele>188</ele>
        <time>2021-03-04T00:39:30Z</time>
      </trkpt>
      <trkpt lat="46.90829" lon="-0.77774">
        <ele>189</ele>
        <time>2021-03-04T00:39:41Z</time>
      </trkpt>
      <trkpt lat="46.90796" lon="-0.77816">
        <ele>191</ele>
        <time>2021-03-04T00:39:48Z</time>
      </trkpt>
      <trkpt lat="46.90743" lon="-0.7787">
        <ele>194</ele>
        <time>2021-03-04T00:40:00Z</time>
      </trkpt>
      <trkpt lat="46.90706" lon="-0.77911">
        <ele>195</ele>
        <time>2021-03-04T00:40:08Z</time>
      </trkpt>
      <trkpt lat="46.9064" lon="-0.77993">
        <ele>198</ele>
        <time>2021-03-04T00:40:24Z</time>
      </trkpt>
      <trkpt lat="46.90614" lon="-0.78018">
        <ele>198</ele>
        <time>2021-03-04T00:40:29Z</time>
      </trkpt>
      <trkpt lat="46.90599" lon="-0.78028">
        <ele>199</ele>
        <time>2021-03-04T00:40:32Z</time>
      </trkpt>
      <trkpt lat="46.90542" lon="-0.78065">
        <ele>200</ele>
        <time>2021-03-04T00:40:43Z</time>
      </trkpt>
      <trkpt lat="46.90517" lon="-0.78083">
        <ele>201</ele>
        <time>2021-03-04T00:40:48Z</time>
      </trkpt>
      <trkpt lat="46.90447" lon="-0.78139">
        <ele>203</ele>
        <time>2021-03-04T00:41:02Z</time>
      </trkpt>
      <trkpt lat="46.90423" lon="-0.78163">
        <ele>204</ele>
        <time>2021-03-04T00:41:08Z</time>
      </trkpt>
      <trkpt lat="46.9039" lon="-0.78206">
        <ele>204</ele>
        <time>2021-03-04T00:41:15Z</time>
      </trkpt>
      <trkpt lat="46.9037" lon="-0.78242">
        <ele>204</ele>
        <time>2021-03-04T00:41:21Z</time>
      </trkpt>
      <trkpt lat="46.90355" lon="-0.78279">
        <ele>204</ele>
        <time>2021-03-04T00:41:26Z</time>
      </trkpt>
      <trkpt lat="46.9033" lon="-0.78351">
        <ele>203</ele>
        <time>2021-03-04T00:41:36Z</time>
      </trkpt>
      <trkpt lat="46.90307" lon="-0.78396">
        <ele>201</ele>
        <time>2021-03-04T00:41:43Z</time>
      </trkpt>
      <trkpt lat="46.90286" lon="-0.78433">
        <ele>200</ele>
        <time>2021-03-04T00:41:49Z</time>
      </trkpt>
      <trkpt lat="46.90227" lon="-0.78535">
        <ele>197</ele>
        <time>2021-03-04T00:42:05Z</time>
      </trkpt>
      <trkpt lat="46.89975" lon="-0.78957">
        <ele>196</ele>
        <time>2021-03-04T00:43:13Z</time>
      </trkpt>
      <trkpt lat="46.89921" lon="-0.79055">
        <ele>195</ele>
        <time>2021-03-04T00:43:28Z</time>
      </trkpt>
      <trkpt lat="46.89909" lon="-0.79074">
        <ele>194</ele>
        <time>2021-03-04T00:43:32Z</time>
      </trkpt>
      <trkpt lat="46.89877" lon="-0.79115">
        <ele>193</ele>
        <time>2021-03-04T00:43:39Z</time>
      </trkpt>
      <trkpt lat="46.89856" lon="-0.79138">
        <ele>192</ele>
        <time>2021-03-04T00:43:44Z</time>
      </trkpt>
      <trkpt lat="46.89765" lon="-0.79218">
        <ele>190</ele>
        <time>2021-03-04T00:44:03Z</time>
      </trkpt>
      <trkpt lat="46.89755" lon="-0.79226">
        <ele>190</ele>
        <time>2021-03-04T00:44:05Z</time>
      </trkpt>
      <trkpt lat="46.89737" lon="-0.79233">
        <ele>190</ele>
        <time>2021-03-04T00:44:08Z</time>
      </trkpt>
      <trkpt lat="46.89614" lon="-0.79261">
        <ele>189</ele>
        <time>2021-03-04T00:44:30Z</time>
      </trkpt>
      <trkpt lat="46.89416" lon="-0.79287">
        <ele>183</ele>
        <time>2021-03-04T00:45:06Z</time>
      </trkpt>
      <trkpt lat="46.89404" lon="-0.79289">
        <ele>183</ele>
        <time>2021-03-04T00:45:08Z</time>
      </trkpt>
      <trkpt lat="46.8937" lon="-0.79294">
        <ele>182</ele>
        <time>2021-03-04T00:45:14Z</time>
      </trkpt>
      <trkpt lat="46.89233" lon="-0.79311">
        <ele>177</ele>
        <time>2021-03-04T00:45:38Z</time>
      </trkpt>
      <trkpt lat="46.89207" lon="-0.79315">
        <ele>177</ele>
        <time>2021-03-04T00:45:43Z</time>
      </trkpt>
      <trkpt lat="46.89175" lon="-0.79324">
        <ele>177</ele>
        <time>2021-03-04T00:45:49Z</time>
      </trkpt>
      <trkpt lat="46.89134" lon="-0.79338">
        <ele>175</ele>
        <time>2021-03-04T00:45:56Z</time>
      </trkpt>
      <trkpt lat="46.89073" lon="-0.79358">
        <ele>170</ele>
        <time>2021-03-04T00:46:07Z</time>
      </trkpt>
      <trkpt lat="46.89059" lon="-0.7936">
        <ele>169</ele>
        <time>2021-03-04T00:46:10Z</time>
      </trkpt>
      <trkpt lat="46.89027" lon="-0.79358">
        <ele>167</ele>
        <time>2021-03-04T00:46:16Z</time>
      </trkpt>
      <trkpt lat="46.88786" lon="-0.79324">
        <ele>157</ele>
        <time>2021-03-04T00:46:59Z</time>
      </trkpt>
      <trkpt lat="46.88769" lon="-0.79322">
        <ele>156</ele>
        <time>2021-03-04T00:47:02Z</time>
      </trkpt>
      <trkpt lat="46.88722" lon="-0.79316">
        <ele>154</ele>
        <time>2021-03-04T00:47:10Z</time>
      </trkpt>
      <trkpt lat="46.88674" lon="-0.79319">
        <ele>152</ele>
        <time>2021-03-04T00:47:19Z</time>
      </trkpt>
      <trkpt lat="46.88639" lon="-0.79328">
        <ele>151</ele>
        <time>2021-03-04T00:47:25Z</time>
      </trkpt>
      <trkpt lat="46.886" lon="-0.79348">
        <ele>149</ele>
        <time>2021-03-04T00:47:32Z</time>
      </trkpt>
      <trkpt lat="46.88482" lon="-0.79422">
        <ele>145</ele>
        <time>2021-03-04T00:47:55Z</time>
      </trkpt>
      <trkpt lat="46.88439" lon="-0.79445">
        <ele>146</ele>
        <time>2021-03-04T00:48:03Z</time>
      </trkpt>
      <trkpt lat="46.8841" lon="-0.79455">
        <ele>147</ele>
        <time>2021-03-04T00:48:09Z</time>
      </trkpt>
      <trkpt lat="46.88374" lon="-0.79458">
        <ele>148</ele>
        <time>2021-03-04T00:48:15Z</time>
      </trkpt>
      <trkpt lat="46.88124" lon="-0.79446">
        <ele>152</ele>
        <time>2021-03-04T00:48:59Z</time>
      </trkpt>
      <trkpt lat="46.88107" lon="-0.79447">
        <ele>153</ele>
        <time>2021-03-04T00:49:03Z</time>
      </trkpt>
      <trkpt lat="46.88022" lon="-0.79447">
        <ele>155</ele>
        <time>2021-03-04T00:49:18Z</time>
      </trkpt>
      <trkpt lat="46.87998" lon="-0.7945">
        <ele>155</ele>
        <time>2021-03-04T00:49:22Z</time>
      </trkpt>
      <trkpt lat="46.87929" lon="-0.79464">
        <ele>157</ele>
        <time>2021-03-04T00:49:34Z</time>
      </trkpt>
      <trkpt lat="46.87864" lon="-0.79474">
        <ele>157</ele>
        <time>2021-03-04T00:49:46Z</time>
      </trkpt>
      <trkpt lat="46.87821" lon="-0.79471">
        <ele>157</ele>
        <time>2021-03-04T00:49:54Z</time>
      </trkpt>
      <trkpt lat="46.87742" lon="-0.79457">
        <ele>156</ele>
        <time>2021-03-04T00:50:08Z</time>
      </trkpt>
      <trkpt lat="46.87718" lon="-0.79458">
        <ele>156</ele>
        <time>2021-03-04T00:50:12Z</time>
      </trkpt>
      <trkpt lat="46.8763" lon="-0.79462">
        <ele>155</ele>
        <time>2021-03-04T00:50:28Z</time>
      </trkpt>
      <trkpt lat="46.87611" lon="-0.79465">
        <ele>155</ele>
        <time>2021-03-04T00:50:31Z</time>
      </trkpt>
      <trkpt lat="46.87611" lon="-0.79471">
        <ele>155</ele>
        <time>2021-03-04T00:50:32Z</time>
      </trkpt>
      <trkpt lat="46.87608" lon="-0.79478">
        <ele>155</ele>
        <time>2021-03-04T00:50:33Z</time>
      </trkpt>
      <trkpt lat="46.876" lon="-0.79485">
        <ele>155</ele>
        <time>2021-03-04T00:50:34Z</time>
      </trkpt>
      <trkpt lat="46.87591" lon="-0.79484">
        <ele>155</ele>
        <time>2021-03-04T00:50:36Z</time>
      </trkpt>
      <trkpt lat="46.87587" lon="-0.7948">
        <ele>155</ele>
        <time>2021-03-04T00:50:37Z</time>
      </trkpt>
      <trkpt lat="46.87584" lon="-0.79474">
        <ele>155</ele>
        <time>2021-03-04T00:50:38Z</time>
      </trkpt>
      <trkpt lat="46.87567" lon="-0.79485">
        <ele>155</ele>
        <time>2021-03-04T00:50:41Z</time>
      </trkpt>
      <trkpt lat="46.87542" lon="-0.79506">
        <ele>154</ele>
        <time>2021-03-04T00:50:46Z</time>
      </trkpt>
      <trkpt lat="46.87502" lon="-0.7955">
        <ele>153</ele>
        <time>2021-03-04T00:50:55Z</time>
      </trkpt>
      <trkpt lat="46.87371" lon="-0.79699">
        <ele>151</ele>
        <time>2021-03-04T00:51:25Z</time>
      </trkpt>
      <trkpt lat="46.87353" lon="-0.7972">
        <ele>150</ele>
        <time>2021-03-04T00:51:29Z</time>
      </trkpt>
      <trkpt lat="46.87339" lon="-0.79756">
        <ele>149</ele>
        <time>2021-03-04T00:51:34Z</time>
      </trkpt>
      <trkpt lat="46.87326" lon="-0.79782">
        <ele>149</ele>
        <time>2021-03-04T00:51:38Z</time>
      </trkpt>
      <trkpt lat="46.87323" lon="-0.79787">
        <ele>149</ele>
        <time>2021-03-04T00:51:39Z</time>
      </trkpt>
      <trkpt lat="46.87316" lon="-0.79779">
        <ele>149</ele>
        <time>2021-03-04T00:51:40Z</time>
      </trkpt>
      <trkpt lat="46.87292" lon="-0.7976">
        <ele>149</ele>
        <time>2021-03-04T00:51:45Z</time>
      </trkpt>
      <trkpt lat="46.87286" lon="-0.79756">
        <ele>149</ele>
        <time>2021-03-04T00:51:46Z</time>
      </trkpt>
      <trkpt lat="46.87262" lon="-0.79746">
        <ele>150</ele>
        <time>2021-03-04T00:51:51Z</time>
      </trkpt>
      <trkpt lat="46.87234" lon="-0.79738">
        <ele>150</ele>
        <time>2021-03-04T00:51:56Z</time>
      </trkpt>
      <trkpt lat="46.87146" lon="-0.79693">
        <ele>151</ele>
        <time>2021-03-04T00:52:12Z</time>
      </trkpt>
      <trkpt lat="46.87117" lon="-0.79681">
        <ele>150</ele>
        <time>2021-03-04T00:52:18Z</time>
      </trkpt>
      <trkpt lat="46.87095" lon="-0.79673">
        <ele>149</ele>
        <time>2021-03-04T00:52:22Z</time>
      </trkpt>
      <trkpt lat="46.8705" lon="-0.79658">
        <ele>149</ele>
        <time>2021-03-04T00:52:30Z</time>
      </trkpt>
      <trkpt lat="46.87016" lon="-0.79643">
        <ele>150</ele>
        <time>2021-03-04T00:52:36Z</time>
      </trkpt>
      <trkpt lat="46.8701" lon="-0.79641">
        <ele>150</ele>
        <time>2021-03-04T00:52:37Z</time>
      </trkpt>
      <trkpt lat="46.87007" lon="-0.79639">
        <ele>150</ele>
        <time>2021-03-04T00:52:38Z</time>
      </trkpt>
      <trkpt lat="46.86985" lon="-0.79627">
        <ele>149</ele>
        <time>2021-03-04T00:52:42Z</time>
      </trkpt>
      <trkpt lat="46.86972" lon="-0.79616">
        <ele>149</ele>
        <time>2021-03-04T00:52:45Z</time>
      </trkpt>
      <trkpt lat="46.86954" lon="-0.79597">
        <ele>149</ele>
        <time>2021-03-04T00:52:49Z</time>
      </trkpt>
      <trkpt lat="46.86929" lon="-0.79567">
        <ele>148</ele>
        <time>2021-03-04T00:52:54Z</time>
      </trkpt>
      <trkpt lat="46.86911" lon="-0.79544">
        <ele>148</ele>
        <time>2021-03-04T00:52:59Z</time>
      </trkpt>
      <trkpt lat="46.86903" lon="-0.79532">
        <ele>148</ele>
        <time>2021-03-04T00:53:01Z</time>
      </trkpt>
      <trkpt lat="46.86899" lon="-0.79523">
        <ele>148</ele>
        <time>2021-03-04T00:53:02Z</time>
      </trkpt>
      <trkpt lat="46.86897" lon="-0.79521">
        <ele>148</ele>
        <time>2021-03-04T00:53:02Z</time>
      </trkpt>
      <trkpt lat="46.86882" lon="-0.79489">
        <ele>149</ele>
        <time>2021-03-04T00:53:07Z</time>
      </trkpt>
      <trkpt lat="46.86866" lon="-0.79459">
        <ele>149</ele>
        <time>2021-03-04T00:53:12Z</time>
      </trkpt>
      <trkpt lat="46.8686" lon="-0.79449">
        <ele>149</ele>
        <time>2021-03-04T00:53:13Z</time>
      </trkpt>
      <trkpt lat="46.86857" lon="-0.79443">
        <ele>149</ele>
        <time>2021-03-04T00:53:14Z</time>
      </trkpt>
      <trkpt lat="46.86842" lon="-0.79419">
        <ele>149</ele>
        <time>2021-03-04T00:53:18Z</time>
      </trkpt>
      <trkpt lat="46.86819" lon="-0.79447">
        <ele>149</ele>
        <time>2021-03-04T00:53:24Z</time>
      </trkpt>
      <trkpt lat="46.86799" lon="-0.79479">
        <ele>149</ele>
        <time>2021-03-04T00:53:29Z</time>
      </trkpt>
      <trkpt lat="46.86796" lon="-0.79483">
        <ele>149</ele>
        <time>2021-03-04T00:53:30Z</time>
      </trkpt>
      <trkpt lat="46.86795" lon="-0.79486">
        <ele>149</ele>
        <time>2021-03-04T00:53:30Z</time>
      </trkpt>
      <trkpt lat="46.8676" lon="-0.79553">
        <ele>148</ele>
        <time>2021-03-04T00:53:40Z</time>
      </trkpt>
      <trkpt lat="46.86743" lon="-0.79583">
        <ele>148</ele>
        <time>2021-03-04T00:53:45Z</time>
      </trkpt>
      <trkpt lat="46.86723" lon="-0.79637">
        <ele>146</ele>
        <time>2021-03-04T00:53:53Z</time>
      </trkpt>
      <trkpt lat="46.86705" lon="-0.79689">
        <ele>146</ele>
        <time>2021-03-04T00:54:00Z</time>
      </trkpt>
      <trkpt lat="46.86696" lon="-0.79722">
        <ele>146</ele>
        <time>2021-03-04T00:54:04Z</time>
      </trkpt>
      <trkpt lat="46.86685" lon="-0.79784">
        <ele>145</ele>
        <time>2021-03-04T00:54:12Z</time>
      </trkpt>
      <trkpt lat="46.8667" lon="-0.79875">
        <ele>144</ele>
        <time>2021-03-04T00:54:23Z</time>
      </trkpt>
      <trkpt lat="46.86665" lon="-0.79897">
        <ele>144</ele>
        <time>2021-03-04T00:54:26Z</time>
      </trkpt>
      <trkpt lat="46.86651" lon="-0.79944">
        <ele>143</ele>
        <time>2021-03-04T00:54:32Z</time>
      </trkpt>
      <trkpt lat="46.86613" lon="-0.80035">
        <ele>141</ele>
        <time>2021-03-04T00:54:45Z</time>
      </trkpt>
      <trkpt lat="46.86607" lon="-0.80047">
        <ele>140</ele>
        <time>2021-03-04T00:54:47Z</time>
      </trkpt>
      <trkpt lat="46.86596" lon="-0.80063">
        <ele>140</ele>
        <time>2021-03-04T00:54:50Z</time>
      </trkpt>
      <trkpt lat="46.86587" lon="-0.80074">
        <ele>139</ele>
        <time>2021-03-04T00:54:52Z</time>
      </trkpt>
      <trkpt lat="46.86579" lon="-0.80082">
        <ele>139</ele>
        <time>2021-03-04T00:54:54Z</time>
      </trkpt>
      <trkpt lat="46.86531" lon="-0.80123">
        <ele>138</ele>
        <time>2021-03-04T00:55:03Z</time>
      </trkpt>
      <trkpt lat="46.86347" lon="-0.80282">
        <ele>141</ele>
        <time>2021-03-04T00:55:41Z</time>
      </trkpt>
      <trkpt lat="46.86326" lon="-0.80297">
        <ele>140</ele>
        <time>2021-03-04T00:55:46Z</time>
      </trkpt>
      <trkpt lat="46.86297" lon="-0.80315">
        <ele>140</ele>
        <time>2021-03-04T00:55:51Z</time>
      </trkpt>
      <trkpt lat="46.86268" lon="-0.80335">
        <ele>141</ele>
        <time>2021-03-04T00:55:57Z</time>
      </trkpt>
      <trkpt lat="46.86247" lon="-0.80353">
        <ele>141</ele>
        <time>2021-03-04T00:56:01Z</time>
      </trkpt>
      <trkpt lat="46.86173" lon="-0.80428">
        <ele>143</ele>
        <time>2021-03-04T00:56:17Z</time>
      </trkpt>
      <trkpt lat="46.86143" lon="-0.8046">
        <ele>146</ele>
        <time>2021-03-04T00:56:24Z</time>
      </trkpt>
      <trkpt lat="46.86072" lon="-0.80554">
        <ele>148</ele>
        <time>2021-03-04T00:56:41Z</time>
      </trkpt>
      <trkpt lat="46.86059" lon="-0.80575">
        <ele>148</ele>
        <time>2021-03-04T00:56:44Z</time>
      </trkpt>
      <trkpt lat="46.86045" lon="-0.806">
        <ele>149</ele>
        <time>2021-03-04T00:56:48Z</time>
      </trkpt>
      <trkpt lat="46.85997" lon="-0.80702">
        <ele>150</ele>
        <time>2021-03-04T00:57:03Z</time>
      </trkpt>
      <trkpt lat="46.8591" lon="-0.8092">
        <ele>154</ele>
        <time>2021-03-04T00:57:34Z</time>
      </trkpt>
      <trkpt lat="46.85894" lon="-0.80956">
        <ele>153</ele>
        <time>2021-03-04T00:57:39Z</time>
      </trkpt>
      <trkpt lat="46.85876" lon="-0.80988">
        <ele>153</ele>
        <time>2021-03-04T00:57:44Z</time>
      </trkpt>
      <trkpt lat="46.85857" lon="-0.81018">
        <ele>153</ele>
        <time>2021-03-04T00:57:49Z</time>
      </trkpt>
      <trkpt lat="46.8583" lon="-0.81054">
        <ele>154</ele>
        <time>2021-03-04T00:57:56Z</time>
      </trkpt>
      <trkpt lat="46.85809" lon="-0.81081">
        <ele>153</ele>
        <time>2021-03-04T00:58:01Z</time>
      </trkpt>
      <trkpt lat="46.85763" lon="-0.81142">
        <ele>153</ele>
        <time>2021-03-04T00:58:12Z</time>
      </trkpt>
      <trkpt lat="46.85733" lon="-0.81176">
        <ele>153</ele>
        <time>2021-03-04T00:58:19Z</time>
      </trkpt>
      <trkpt lat="46.85683" lon="-0.81221">
        <ele>152</ele>
        <time>2021-03-04T00:58:29Z</time>
      </trkpt>
      <trkpt lat="46.85617" lon="-0.81269">
        <ele>152</ele>
        <time>2021-03-04T00:58:42Z</time>
      </trkpt>
      <trkpt lat="46.856" lon="-0.81283">
        <ele>152</ele>
        <time>2021-03-04T00:58:46Z</time>
      </trkpt>
      <trkpt lat="46.85581" lon="-0.81298">
        <ele>152</ele>
        <time>2021-03-04T00:58:49Z</time>
      </trkpt>
      <trkpt lat="46.85512" lon="-0.8137">
        <ele>154</ele>
        <time>2021-03-04T00:59:05Z</time>
      </trkpt>
      <trkpt lat="46.8545" lon="-0.81442">
        <ele>156</ele>
        <time>2021-03-04T00:59:19Z</time>
      </trkpt>
      <trkpt lat="46.85384" lon="-0.8151">
        <ele>156</ele>
        <time>2021-03-04T00:59:33Z</time>
      </trkpt>
      <trkpt lat="46.85368" lon="-0.81531">
        <ele>156</ele>
        <time>2021-03-04T00:59:37Z</time>
      </trkpt>
      <trkpt lat="46.85356" lon="-0.81551">
        <ele>157</ele>
        <time>2021-03-04T00:59:40Z</time>
      </trkpt>
      <trkpt lat="46.85343" lon="-0.81586">
        <ele>157</ele>
        <time>2021-03-04T00:59:45Z</time>
      </trkpt>
      <trkpt lat="46.85312" lon="-0.81707">
        <ele>158</ele>
        <time>2021-03-04T01:00:01Z</time>
      </trkpt>
      <trkpt lat="46.8531" lon="-0.81716">
        <ele>158</ele>
        <time>2021-03-04T01:00:02Z</time>
      </trkpt>
      <trkpt lat="46.85297" lon="-0.81764">
        <ele>158</ele>
        <time>2021-03-04T01:00:08Z</time>
      </trkpt>
      <trkpt lat="46.85282" lon="-0.8182">
        <ele>158</ele>
        <time>2021-03-04T01:00:15Z</time>
      </trkpt>
      <trkpt lat="46.85278" lon="-0.81842">
        <ele>158</ele>
        <time>2021-03-04T01:00:18Z</time>
      </trkpt>
      <trkpt lat="46.85276" lon="-0.81866">
        <ele>158</ele>
        <time>2021-03-04T01:00:21Z</time>
      </trkpt>
      <trkpt lat="46.85277" lon="-0.81944">
        <ele>158</ele>
        <time>2021-03-04T01:00:31Z</time>
      </trkpt>
      <trkpt lat="46.85274" lon="-0.81972">
        <ele>158</ele>
        <time>2021-03-04T01:00:34Z</time>
      </trkpt>
      <trkpt lat="46.85266" lon="-0.82003">
        <ele>157</ele>
        <time>2021-03-04T01:00:38Z</time>
      </trkpt>
      <trkpt lat="46.85254" lon="-0.8204">
        <ele>154</ele>
        <time>2021-03-04T01:00:43Z</time>
      </trkpt>
      <trkpt lat="46.8525" lon="-0.82049">
        <ele>153</ele>
        <time>2021-03-04T01:00:44Z</time>
      </trkpt>
      <trkpt lat="46.85244" lon="-0.82063">
        <ele>153</ele>
        <time>2021-03-04T01:00:46Z</time>
      </trkpt>
      <trkpt lat="46.85231" lon="-0.82091">
        <ele>152</ele>
        <time>2021-03-04T01:00:50Z</time>
      </trkpt>
      <trkpt lat="46.85181" lon="-0.82182">
        <ele>152</ele>
        <time>2021-03-04T01:01:05Z</time>
      </trkpt>
      <trkpt lat="46.85171" lon="-0.82199">
        <ele>152</ele>
        <time>2021-03-04T01:01:07Z</time>
      </trkpt>
      <trkpt lat="46.85153" lon="-0.82235">
        <ele>151</ele>
        <time>2021-03-04T01:01:13Z</time>
      </trkpt>
      <trkpt lat="46.85044" lon="-0.82436">
        <ele>153</ele>
        <time>2021-03-04T01:01:44Z</time>
      </trkpt>
      <trkpt lat="46.85035" lon="-0.82447">
        <ele>153</ele>
        <time>2021-03-04T01:01:46Z</time>
      </trkpt>
      <trkpt lat="46.85039" lon="-0.8245">
        <ele>154</ele>
        <time>2021-03-04T01:01:47Z</time>
      </trkpt>
      <trkpt lat="46.85041" lon="-0.82455">
        <ele>154</ele>
        <time>2021-03-04T01:01:48Z</time>
      </trkpt>
      <trkpt lat="46.85042" lon="-0.82466">
        <ele>154</ele>
        <time>2021-03-04T01:01:49Z</time>
      </trkpt>
      <trkpt lat="46.85041" lon="-0.82472">
        <ele>154</ele>
        <time>2021-03-04T01:01:50Z</time>
      </trkpt>
      <trkpt lat="46.85039" lon="-0.82476">
        <ele>154</ele>
        <time>2021-03-04T01:01:50Z</time>
      </trkpt>
      <trkpt lat="46.85032" lon="-0.82482">
        <ele>154</ele>
        <time>2021-03-04T01:01:52Z</time>
      </trkpt>
      <trkpt lat="46.85025" lon="-0.82481">
        <ele>154</ele>
        <time>2021-03-04T01:01:53Z</time>
      </trkpt>
      <trkpt lat="46.85021" lon="-0.82478">
        <ele>153</ele>
        <time>2021-03-04T01:01:54Z</time>
      </trkpt>
      <trkpt lat="46.85015" lon="-0.82489">
        <ele>153</ele>
        <time>2021-03-04T01:01:56Z</time>
      </trkpt>
      <trkpt lat="46.84971" lon="-0.82572">
        <ele>154</ele>
        <time>2021-03-04T01:02:08Z</time>
      </trkpt>
      <trkpt lat="46.84967" lon="-0.82581">
        <ele>154</ele>
        <time>2021-03-04T01:02:10Z</time>
      </trkpt>
      <trkpt lat="46.84953" lon="-0.82613">
        <ele>154</ele>
        <time>2021-03-04T01:02:14Z</time>
      </trkpt>
      <trkpt lat="46.84938" lon="-0.82653">
        <ele>154</ele>
        <time>2021-03-04T01:02:20Z</time>
      </trkpt>
      <trkpt lat="46.84922" lon="-0.82704">
        <ele>154</ele>
        <time>2021-03-04T01:02:27Z</time>
      </trkpt>
      <trkpt lat="46.84899" lon="-0.82786">
        <ele>155</ele>
        <time>2021-03-04T01:02:37Z</time>
      </trkpt>
      <trkpt lat="46.84894" lon="-0.82805">
        <ele>155</ele>
        <time>2021-03-04T01:02:40Z</time>
      </trkpt>
      <trkpt lat="46.84889" lon="-0.82832">
        <ele>156</ele>
        <time>2021-03-04T01:02:43Z</time>
      </trkpt>
      <trkpt lat="46.8488" lon="-0.82882">
        <ele>156</ele>
        <time>2021-03-04T01:02:50Z</time>
      </trkpt>
      <trkpt lat="46.84876" lon="-0.82904">
        <ele>156</ele>
        <time>2021-03-04T01:02:52Z</time>
      </trkpt>
      <trkpt lat="46.84872" lon="-0.8292">
        <ele>156</ele>
        <time>2021-03-04T01:02:54Z</time>
      </trkpt>
      <trkpt lat="46.84869" lon="-0.8293">
        <ele>157</ele>
        <time>2021-03-04T01:02:56Z</time>
      </trkpt>
      <trkpt lat="46.84847" lon="-0.83">
        <ele>156</ele>
        <time>2021-03-04T01:03:05Z</time>
      </trkpt>
      <trkpt lat="46.8484" lon="-0.83033">
        <ele>157</ele>
        <time>2021-03-04T01:03:09Z</time>
      </trkpt>
      <trkpt lat="46.84838" lon="-0.83068">
        <ele>157</ele>
        <time>2021-03-04T01:03:14Z</time>
      </trkpt>
      <trkpt lat="46.84838" lon="-0.83117">
        <ele>158</ele>
        <time>2021-03-04T01:03:20Z</time>
      </trkpt>
      <trkpt lat="46.84839" lon="-0.83138">
        <ele>159</ele>
        <time>2021-03-04T01:03:22Z</time>
      </trkpt>
      <trkpt lat="46.84839" lon="-0.83167">
        <ele>159</ele>
        <time>2021-03-04T01:03:26Z</time>
      </trkpt>
      <trkpt lat="46.84835" lon="-0.832">
        <ele>160</ele>
        <time>2021-03-04T01:03:30Z</time>
      </trkpt>
      <trkpt lat="46.8483" lon="-0.83217">
        <ele>160</ele>
        <time>2021-03-04T01:03:32Z</time>
      </trkpt>
      <trkpt lat="46.84825" lon="-0.83227">
        <ele>160</ele>
        <time>2021-03-04T01:03:34Z</time>
      </trkpt>
      <trkpt lat="46.84813" lon="-0.83241">
        <ele>160</ele>
        <time>2021-03-04T01:03:36Z</time>
      </trkpt>
      <trkpt lat="46.84793" lon="-0.83257">
        <ele>161</ele>
        <time>2021-03-04T01:03:40Z</time>
      </trkpt>
      <trkpt lat="46.84753" lon="-0.8328">
        <ele>161</ele>
        <time>2021-03-04T01:03:48Z</time>
      </trkpt>
      <trkpt lat="46.84738" lon="-0.83288">
        <ele>162</ele>
        <time>2021-03-04T01:03:51Z</time>
      </trkpt>
      <trkpt lat="46.84716" lon="-0.83297">
        <ele>164</ele>
        <time>2021-03-04T01:03:55Z</time>
      </trkpt>
      <trkpt lat="46.84701" lon="-0.83305">
        <ele>166</ele>
        <time>2021-03-04T01:03:58Z</time>
      </trkpt>
      <trkpt lat="46.84692" lon="-0.83315">
        <ele>167</ele>
        <time>2021-03-04T01:04:00Z</time>
      </trkpt>
      <trkpt lat="46.84671" lon="-0.83351">
        <ele>168</ele>
        <time>2021-03-04T01:04:05Z</time>
      </trkpt>
      <trkpt lat="46.84653" lon="-0.83372">
        <ele>169</ele>
        <time>2021-03-04T01:04:10Z</time>
      </trkpt>
      <trkpt lat="46.84642" lon="-0.8338">
        <ele>169</ele>
        <time>2021-03-04T01:04:12Z</time>
      </trkpt>
      <trkpt lat="46.8459" lon="-0.8341">
        <ele>170</ele>
        <time>2021-03-04T01:04:22Z</time>
      </trkpt>
      <trkpt lat="46.84586" lon="-0.83415">
        <ele>170</ele>
        <time>2021-03-04T01:04:23Z</time>
      </trkpt>
      <trkpt lat="46.84584" lon="-0.83419">
        <ele>170</ele>
        <time>2021-03-04T01:04:23Z</time>
      </trkpt>
      <trkpt lat="46.84582" lon="-0.83425">
        <ele>170</ele>
        <time>2021-03-04T01:04:24Z</time>
      </trkpt>
      <trkpt lat="46.84582" lon="-0.83432">
        <ele>170</ele>
        <time>2021-03-04T01:04:25Z</time>
      </trkpt>
      <trkpt lat="46.84585" lon="-0.83442">
        <ele>169</ele>
        <time>2021-03-04T01:04:26Z</time>
      </trkpt>
      <trkpt lat="46.84595" lon="-0.83459">
        <ele>169</ele>
        <time>2021-03-04T01:04:29Z</time>
      </trkpt>
      <trkpt lat="46.846" lon="-0.83466">
        <ele>169</ele>
        <time>2021-03-04T01:04:30Z</time>
      </trkpt>
      <trkpt lat="46.84607" lon="-0.83485">
        <ele>168</ele>
        <time>2021-03-04T01:04:33Z</time>
      </trkpt>
      <trkpt lat="46.84618" lon="-0.83532">
        <ele>168</ele>
        <time>2021-03-04T01:04:39Z</time>
      </trkpt>
      <trkpt lat="46.84619" lon="-0.83545">
        <ele>169</ele>
        <time>2021-03-04T01:04:40Z</time>
      </trkpt>
      <trkpt lat="46.84618" lon="-0.8356">
        <ele>169</ele>
        <time>2021-03-04T01:04:42Z</time>
      </trkpt>
      <trkpt lat="46.84625" lon="-0.83567">
        <ele>169</ele>
        <time>2021-03-04T01:04:44Z</time>
      </trkpt>
      <trkpt lat="46.84653" lon="-0.8363">
        <ele>173</ele>
        <time>2021-03-04T01:04:53Z</time>
      </trkpt>
      <trkpt lat="46.84686" lon="-0.83696">
        <ele>177</ele>
        <time>2021-03-04T01:05:03Z</time>
      </trkpt>
      <trkpt lat="46.84702" lon="-0.83744">
        <ele>180</ele>
        <time>2021-03-04T01:05:09Z</time>
      </trkpt>
      <trkpt lat="46.84717" lon="-0.83801">
        <ele>181</ele>
        <time>2021-03-04T01:05:17Z</time>
      </trkpt>
      <trkpt lat="46.84725" lon="-0.83845">
        <ele>181</ele>
        <time>2021-03-04T01:05:22Z</time>
      </trkpt>
      <trkpt lat="46.84732" lon="-0.83873">
        <ele>181</ele>
        <time>2021-03-04T01:05:26Z</time>
      </trkpt>
      <trkpt lat="46.84762" lon="-0.83951">
        <ele>182</ele>
        <time>2021-03-04T01:05:37Z</time>
      </trkpt>
      <trkpt lat="46.84796" lon="-0.84034">
        <ele>184</ele>
        <time>2021-03-04T01:05:49Z</time>
      </trkpt>
      <trkpt lat="46.84822" lon="-0.84088">
        <ele>186</ele>
        <time>2021-03-04T01:05:57Z</time>
      </trkpt>
      <trkpt lat="46.84854" lon="-0.84134">
        <ele>186</ele>
        <time>2021-03-04T01:06:05Z</time>
      </trkpt>
      <trkpt lat="46.8499" lon="-0.8426">
        <ele>190</ele>
        <time>2021-03-04T01:06:33Z</time>
      </trkpt>
      <trkpt lat="46.85085" lon="-0.84335">
        <ele>192</ele>
        <time>2021-03-04T01:06:53Z</time>
      </trkpt>
      <trkpt lat="46.85146" lon="-0.84392">
        <ele>195</ele>
        <time>2021-03-04T01:07:05Z</time>
      </trkpt>
      <trkpt lat="46.85162" lon="-0.84412">
        <ele>196</ele>
        <time>2021-03-04T01:07:09Z</time>
      </trkpt>
      <trkpt lat="46.85179" lon="-0.84439">
        <ele>196</ele>
        <time>2021-03-04T01:07:14Z</time>
      </trkpt>
      <trkpt lat="46.85193" lon="-0.84468">
        <ele>196</ele>
        <time>2021-03-04T01:07:18Z</time>
      </trkpt>
      <trkpt lat="46.85208" lon="-0.84517">
        <ele>196</ele>
        <time>2021-03-04T01:07:24Z</time>
      </trkpt>
      <trkpt lat="46.8521" lon="-0.84552">
        <ele>195</ele>
        <time>2021-03-04T01:07:29Z</time>
      </trkpt>
      <trkpt lat="46.8521" lon="-0.84816">
        <ele>196</ele>
        <time>2021-03-04T01:08:01Z</time>
      </trkpt>
      <trkpt lat="46.85207" lon="-0.84861">
        <ele>196</ele>
        <time>2021-03-04T01:08:06Z</time>
      </trkpt>
      <trkpt lat="46.8517" lon="-0.84955">
        <ele>197</ele>
        <time>2021-03-04T01:08:20Z</time>
      </trkpt>
      <trkpt lat="46.85163" lon="-0.84989">
        <ele>197</ele>
        <time>2021-03-04T01:08:24Z</time>
      </trkpt>
      <trkpt lat="46.85167" lon="-0.85203">
        <ele>200</ele>
        <time>2021-03-04T01:08:50Z</time>
      </trkpt>
      <trkpt lat="46.85175" lon="-0.85251">
        <ele>202</ele>
        <time>2021-03-04T01:08:56Z</time>
      </trkpt>
      <trkpt lat="46.85202" lon="-0.85363">
        <ele>202</ele>
        <time>2021-03-04T01:09:10Z</time>
      </trkpt>
      <trkpt lat="46.85222" lon="-0.85421">
        <ele>203</ele>
        <time>2021-03-04T01:09:18Z</time>
      </trkpt>
      <trkpt lat="46.85306" lon="-0.85637">
        <ele>211</ele>
        <time>2021-03-04T01:09:49Z</time>
      </trkpt>
      <trkpt lat="46.85376" lon="-0.85808">
        <ele>218</ele>
        <time>2021-03-04T01:10:13Z</time>
      </trkpt>
      <trkpt lat="46.85392" lon="-0.85852">
        <ele>220</ele>
        <time>2021-03-04T01:10:19Z</time>
      </trkpt>
      <trkpt lat="46.85403" lon="-0.85887">
        <ele>221</ele>
        <time>2021-03-04T01:10:24Z</time>
      </trkpt>
      <trkpt lat="46.85412" lon="-0.85927">
        <ele>222</ele>
        <time>2021-03-04T01:10:29Z</time>
      </trkpt>
      <trkpt lat="46.8546" lon="-0.86194">
        <ele>225</ele>
        <time>2021-03-04T01:11:02Z</time>
      </trkpt>
      <trkpt lat="46.85475" lon="-0.86287">
        <ele>227</ele>
        <time>2021-03-04T01:11:14Z</time>
      </trkpt>
      <trkpt lat="46.85479" lon="-0.86334">
        <ele>229</ele>
        <time>2021-03-04T01:11:20Z</time>
      </trkpt>
      <trkpt lat="46.85478" lon="-0.86465">
        <ele>233</ele>
        <time>2021-03-04T01:11:36Z</time>
      </trkpt>
      <trkpt lat="46.8547" lon="-0.86694">
        <ele>237</ele>
        <time>2021-03-04T01:12:03Z</time>
      </trkpt>
      <trkpt lat="46.85476" lon="-0.86752">
        <ele>238</ele>
        <time>2021-03-04T01:12:11Z</time>
      </trkpt>
      <trkpt lat="46.8548" lon="-0.868">
        <ele>239</ele>
        <time>2021-03-04T01:12:16Z</time>
      </trkpt>
      <trkpt lat="46.85476" lon="-0.86856">
        <ele>241</ele>
        <time>2021-03-04T01:12:23Z</time>
      </trkpt>
      <trkpt lat="46.85467" lon="-0.8696">
        <ele>244</ele>
        <time>2021-03-04T01:12:36Z</time>
      </trkpt>
      <trkpt lat="46.85454" lon="-0.87069">
        <ele>247</ele>
        <time>2021-03-04T01:12:50Z</time>
      </trkpt>
      <trkpt lat="46.8544" lon="-0.87237">
        <ele>248</ele>
        <time>2021-03-04T01:13:10Z</time>
      </trkpt>
      <trkpt lat="46.85431" lon="-0.87319">
        <ele>251</ele>
        <time>2021-03-04T01:13:20Z</time>
      </trkpt>
      <trkpt lat="46.85425" lon="-0.87364">
        <ele>252</ele>
        <time>2021-03-04T01:13:26Z</time>
      </trkpt>
      <trkpt lat="46.85425" lon="-0.87559">
        <ele>253</ele>
        <time>2021-03-04T01:13:50Z</time>
      </trkpt>
      <trkpt lat="46.85433" lon="-0.87636">
        <ele>255</ele>
        <time>2021-03-04T01:13:59Z</time>
      </trkpt>
      <trkpt lat="46.85427" lon="-0.87966">
        <ele>259</ele>
        <time>2021-03-04T01:14:39Z</time>
      </trkpt>
      <trkpt lat="46.85428" lon="-0.88037">
        <ele>257</ele>
        <time>2021-03-04T01:14:48Z</time>
      </trkpt>
      <trkpt lat="46.85431" lon="-0.88087">
        <ele>256</ele>
        <time>2021-03-04T01:14:54Z</time>
      </trkpt>
      <trkpt lat="46.85442" lon="-0.88141">
        <ele>255</ele>
        <time>2021-03-04T01:15:01Z</time>
      </trkpt>
      <trkpt lat="46.85454" lon="-0.8818">
        <ele>254</ele>
        <time>2021-03-04T01:15:06Z</time>
      </trkpt>
      <trkpt lat="46.8547" lon="-0.88251">
        <ele>252</ele>
        <time>2021-03-04T01:15:15Z</time>
      </trkpt>
      <trkpt lat="46.85491" lon="-0.88384">
        <ele>248</ele>
        <time>2021-03-04T01:15:32Z</time>
      </trkpt>
      <trkpt lat="46.85493" lon="-0.88417">
        <ele>248</ele>
        <time>2021-03-04T01:15:36Z</time>
      </trkpt>
      <trkpt lat="46.85492" lon="-0.88506">
        <ele>245</ele>
        <time>2021-03-04T01:15:47Z</time>
      </trkpt>
      <trkpt lat="46.85494" lon="-0.88764">
        <ele>237</ele>
        <time>2021-03-04T01:16:18Z</time>
      </trkpt>
      <trkpt lat="46.85492" lon="-0.88813">
        <ele>236</ele>
        <time>2021-03-04T01:16:24Z</time>
      </trkpt>
      <trkpt lat="46.85487" lon="-0.8885">
        <ele>236</ele>
        <time>2021-03-04T01:16:29Z</time>
      </trkpt>
      <trkpt lat="46.85485" lon="-0.88848">
        <ele>236</ele>
        <time>2021-03-04T01:16:29Z</time>
      </trkpt>
      <trkpt lat="46.85444" lon="-0.89127">
        <ele>230</ele>
        <time>2021-03-04T01:17:04Z</time>
      </trkpt>
      <trkpt lat="46.85443" lon="-0.89128">
        <ele>230</ele>
        <time>2021-03-04T01:17:04Z</time>
      </trkpt>
      <trkpt lat="46.85443" lon="-0.89128">
        <ele>230</ele>
        <time>2021-03-04T01:17:04Z</time>
      </trkpt>
      <trkpt lat="46.85442" lon="-0.89171">
        <ele>230</ele>
        <time>2021-03-04T01:17:09Z</time>
      </trkpt>
      <trkpt lat="46.85436" lon="-0.89195">
        <ele>229</ele>
        <time>2021-03-04T01:17:12Z</time>
      </trkpt>
      <trkpt lat="46.85425" lon="-0.89225">
        <ele>227</ele>
        <time>2021-03-04T01:17:16Z</time>
      </trkpt>
      <trkpt lat="46.85412" lon="-0.89252">
        <ele>225</ele>
        <time>2021-03-04T01:17:20Z</time>
      </trkpt>
      <trkpt lat="46.85409" lon="-0.89278">
        <ele>223</ele>
        <time>2021-03-04T01:17:24Z</time>
      </trkpt>
      <trkpt lat="46.85411" lon="-0.89295">
        <ele>221</ele>
        <time>2021-03-04T01:17:26Z</time>
      </trkpt>
      <trkpt lat="46.85417" lon="-0.89313">
        <ele>221</ele>
        <time>2021-03-04T01:17:28Z</time>
      </trkpt>
      <trkpt lat="46.85446" lon="-0.89344">
        <ele>221</ele>
        <time>2021-03-04T01:17:35Z</time>
      </trkpt>
      <trkpt lat="46.85494" lon="-0.89392">
        <ele>221</ele>
        <time>2021-03-04T01:17:45Z</time>
      </trkpt>
      <trkpt lat="46.85502" lon="-0.89405">
        <ele>221</ele>
        <time>2021-03-04T01:17:47Z</time>
      </trkpt>
      <trkpt lat="46.85506" lon="-0.89419">
        <ele>221</ele>
        <time>2021-03-04T01:17:49Z</time>
      </trkpt>
      <trkpt lat="46.85508" lon="-0.8944">
        <ele>219</ele>
        <time>2021-03-04T01:17:51Z</time>
      </trkpt>
      <trkpt lat="46.85495" lon="-0.89725">
        <ele>220</ele>
        <time>2021-03-04T01:18:26Z</time>
      </trkpt>
      <trkpt lat="46.85491" lon="-0.89767">
        <ele>219</ele>
        <time>2021-03-04T01:18:31Z</time>
      </trkpt>
      <trkpt lat="46.85484" lon="-0.89798">
        <ele>218</ele>
        <time>2021-03-04T01:18:35Z</time>
      </trkpt>
      <trkpt lat="46.85457" lon="-0.89882">
        <ele>213</ele>
        <time>2021-03-04T01:18:47Z</time>
      </trkpt>
      <trkpt lat="46.85333" lon="-0.90163">
        <ele>190</ele>
        <time>2021-03-04T01:19:27Z</time>
      </trkpt>
      <trkpt lat="46.85324" lon="-0.90187">
        <ele>191</ele>
        <time>2021-03-04T01:19:31Z</time>
      </trkpt>
      <trkpt lat="46.85314" lon="-0.9021">
        <ele>192</ele>
        <time>2021-03-04T01:19:34Z</time>
      </trkpt>
      <trkpt lat="46.85294" lon="-0.90241">
        <ele>192</ele>
        <time>2021-03-04T01:19:39Z</time>
      </trkpt>
      <trkpt lat="46.85268" lon="-0.90259">
        <ele>192</ele>
        <time>2021-03-04T01:19:44Z</time>
      </trkpt>
      <trkpt lat="46.85251" lon="-0.90266">
        <ele>192</ele>
        <time>2021-03-04T01:19:47Z</time>
      </trkpt>
      <trkpt lat="46.85227" lon="-0.9027">
        <ele>191</ele>
        <time>2021-03-04T01:19:52Z</time>
      </trkpt>
      <trkpt lat="46.85224" lon="-0.9028">
        <ele>191</ele>
        <time>2021-03-04T01:19:53Z</time>
      </trkpt>
      <trkpt lat="46.85203" lon="-0.90308">
        <ele>190</ele>
        <time>2021-03-04T01:19:58Z</time>
      </trkpt>
      <trkpt lat="46.85198" lon="-0.90325">
        <ele>189</ele>
        <time>2021-03-04T01:20:00Z</time>
      </trkpt>
      <trkpt lat="46.85199" lon="-0.90364">
        <ele>189</ele>
        <time>2021-03-04T01:20:05Z</time>
      </trkpt>
      <trkpt lat="46.85203" lon="-0.9044">
        <ele>188</ele>
        <time>2021-03-04T01:20:14Z</time>
      </trkpt>
      <trkpt lat="46.8521" lon="-0.90468">
        <ele>187</ele>
        <time>2021-03-04T01:20:18Z</time>
      </trkpt>
      <trkpt lat="46.85226" lon="-0.90516">
        <ele>185</ele>
        <time>2021-03-04T01:20:25Z</time>
      </trkpt>
      <trkpt lat="46.85239" lon="-0.90576">
        <ele>180</ele>
        <time>2021-03-04T01:20:32Z</time>
      </trkpt>
      <trkpt lat="46.85251" lon="-0.9065">
        <ele>177</ele>
        <time>2021-03-04T01:20:41Z</time>
      </trkpt>
      <trkpt lat="46.85264" lon="-0.90708">
        <ele>178</ele>
        <time>2021-03-04T01:20:49Z</time>
      </trkpt>
      <trkpt lat="46.85322" lon="-0.90904">
        <ele>175</ele>
        <time>2021-03-04T01:21:15Z</time>
      </trkpt>
      <trkpt lat="46.85344" lon="-0.90964">
        <ele>174</ele>
        <time>2021-03-04T01:21:23Z</time>
      </trkpt>
      <trkpt lat="46.8537" lon="-0.91026">
        <ele>174</ele>
        <time>2021-03-04T01:21:32Z</time>
      </trkpt>
      <trkpt lat="46.85499" lon="-0.91285">
        <ele>170</ele>
        <time>2021-03-04T01:22:11Z</time>
      </trkpt>
      <trkpt lat="46.85522" lon="-0.91315">
        <ele>168</ele>
        <time>2021-03-04T01:22:16Z</time>
      </trkpt>
      <trkpt lat="46.8554" lon="-0.91329">
        <ele>167</ele>
        <time>2021-03-04T01:22:20Z</time>
      </trkpt>
      <trkpt lat="46.85596" lon="-0.91361">
        <ele>169</ele>
        <time>2021-03-04T01:22:31Z</time>
      </trkpt>
      <trkpt lat="46.85634" lon="-0.91386">
        <ele>169</ele>
        <time>2021-03-04T01:22:38Z</time>
      </trkpt>
      <trkpt lat="46.85653" lon="-0.91407">
        <ele>169</ele>
        <time>2021-03-04T01:22:42Z</time>
      </trkpt>
      <trkpt lat="46.85704" lon="-0.91487">
        <ele>172</ele>
        <time>2021-03-04T01:22:56Z</time>
      </trkpt>
      <trkpt lat="46.8573" lon="-0.91516">
        <ele>172</ele>
        <time>2021-03-04T01:23:02Z</time>
      </trkpt>
      <trkpt lat="46.85804" lon="-0.91583">
        <ele>167</ele>
        <time>2021-03-04T01:23:17Z</time>
      </trkpt>
      <trkpt lat="46.85827" lon="-0.91609">
        <ele>165</ele>
        <time>2021-03-04T01:23:22Z</time>
      </trkpt>
      <trkpt lat="46.85837" lon="-0.91623">
        <ele>164</ele>
        <time>2021-03-04T01:23:25Z</time>
      </trkpt>
      <trkpt lat="46.85861" lon="-0.91666">
        <ele>160</ele>
        <time>2021-03-04T01:23:31Z</time>
      </trkpt>
      <trkpt lat="46.85897" lon="-0.91733">
        <ele>156</ele>
        <time>2021-03-04T01:23:42Z</time>
      </trkpt>
      <trkpt lat="46.85933" lon="-0.91795">
        <ele>153</ele>
        <time>2021-03-04T01:23:52Z</time>
      </trkpt>
      <trkpt lat="46.85974" lon="-0.91865">
        <ele>150</ele>
        <time>2021-03-04T01:24:03Z</time>
      </trkpt>
      <trkpt lat="46.86002" lon="-0.91933">
        <ele>148</ele>
        <time>2021-03-04T01:24:13Z</time>
      </trkpt>
      <trkpt lat="46.86022" lon="-0.91968">
        <ele>147</ele>
        <time>2021-03-04T01:24:18Z</time>
      </trkpt>
      <trkpt lat="46.86081" lon="-0.92058">
        <ele>146</ele>
        <time>2021-03-04T01:24:33Z</time>
      </trkpt>
      <trkpt lat="46.86097" lon="-0.92088">
        <ele>146</ele>
        <time>2021-03-04T01:24:38Z</time>
      </trkpt>
      <trkpt lat="46.86137" lon="-0.92199">
        <ele>143</ele>
        <time>2021-03-04T01:24:53Z</time>
      </trkpt>
      <trkpt lat="46.86145" lon="-0.92257">
        <ele>142</ele>
        <time>2021-03-04T01:25:00Z</time>
      </trkpt>
      <trkpt lat="46.8615" lon="-0.9228">
        <ele>142</ele>
        <time>2021-03-04T01:25:03Z</time>
      </trkpt>
      <trkpt lat="46.86155" lon="-0.92294">
        <ele>142</ele>
        <time>2021-03-04T01:25:05Z</time>
      </trkpt>
      <trkpt lat="46.86208" lon="-0.92368">
        <ele>142</ele>
        <time>2021-03-04T01:25:18Z</time>
      </trkpt>
      <trkpt lat="46.86216" lon="-0.92385">
        <ele>143</ele>
        <time>2021-03-04T01:25:21Z</time>
      </trkpt>
      <trkpt lat="46.86228" lon="-0.92425">
        <ele>143</ele>
        <time>2021-03-04T01:25:26Z</time>
      </trkpt>
      <trkpt lat="46.86213" lon="-0.92434">
        <ele>143</ele>
        <time>2021-03-04T01:25:29Z</time>
      </trkpt>
      <trkpt lat="46.86175" lon="-0.92462">
        <ele>143</ele>
        <time>2021-03-04T01:25:37Z</time>
      </trkpt>
      <trkpt lat="46.86109" lon="-0.92567">
        <ele>141</ele>
        <time>2021-03-04T01:25:54Z</time>
      </trkpt>
      <trkpt lat="46.86089" lon="-0.92588">
        <ele>140</ele>
        <time>2021-03-04T01:25:58Z</time>
      </trkpt>
      <trkpt lat="46.86081" lon="-0.92604">
        <ele>139</ele>
        <time>2021-03-04T01:26:01Z</time>
      </trkpt>
      <trkpt lat="46.86067" lon="-0.92646">
        <ele>137</ele>
        <time>2021-03-04T01:26:06Z</time>
      </trkpt>
      <trkpt lat="46.86052" lon="-0.92705">
        <ele>133</ele>
        <time>2021-03-04T01:26:14Z</time>
      </trkpt>
      <trkpt lat="46.86043" lon="-0.92723">
        <ele>132</ele>
        <time>2021-03-04T01:26:17Z</time>
      </trkpt>
      <trkpt lat="46.86032" lon="-0.92739">
        <ele>132</ele>
        <time>2021-03-04T01:26:19Z</time>
      </trkpt>
      <trkpt lat="46.86002" lon="-0.92768">
        <ele>132</ele>
        <time>2021-03-04T01:26:26Z</time>
      </trkpt>
      <trkpt lat="46.85979" lon="-0.92779">
        <ele>132</ele>
        <time>2021-03-04T01:26:30Z</time>
      </trkpt>
      <trkpt lat="46.85961" lon="-0.92781">
        <ele>133</ele>
        <time>2021-03-04T01:26:33Z</time>
      </trkpt>
      <trkpt lat="46.85949" lon="-0.9278">
        <ele>133</ele>
        <time>2021-03-04T01:26:36Z</time>
      </trkpt>
      <trkpt lat="46.85938" lon="-0.92775">
        <ele>134</ele>
        <time>2021-03-04T01:26:38Z</time>
      </trkpt>
      <trkpt lat="46.85885" lon="-0.92737">
        <ele>138</ele>
        <time>2021-03-04T01:26:48Z</time>
      </trkpt>
      <trkpt lat="46.85864" lon="-0.92726">
        <ele>140</ele>
        <time>2021-03-04T01:26:52Z</time>
      </trkpt>
      <trkpt lat="46.85834" lon="-0.92717">
        <ele>142</ele>
        <time>2021-03-04T01:26:58Z</time>
      </trkpt>
      <trkpt lat="46.85819" lon="-0.92717">
        <ele>143</ele>
        <time>2021-03-04T01:27:00Z</time>
      </trkpt>
      <trkpt lat="46.85798" lon="-0.92721">
        <ele>143</ele>
        <time>2021-03-04T01:27:04Z</time>
      </trkpt>
      <trkpt lat="46.85777" lon="-0.92735">
        <ele>143</ele>
        <time>2021-03-04T01:27:08Z</time>
      </trkpt>
      <trkpt lat="46.85749" lon="-0.92774">
        <ele>144</ele>
        <time>2021-03-04T01:27:15Z</time>
      </trkpt>
      <trkpt lat="46.85734" lon="-0.92789">
        <ele>145</ele>
        <time>2021-03-04T01:27:18Z</time>
      </trkpt>
      <trkpt lat="46.85707" lon="-0.9281">
        <ele>146</ele>
        <time>2021-03-04T01:27:24Z</time>
      </trkpt>
      <trkpt lat="46.85685" lon="-0.92823">
        <ele>146</ele>
        <time>2021-03-04T01:27:28Z</time>
      </trkpt>
      <trkpt lat="46.85669" lon="-0.9283">
        <ele>147</ele>
        <time>2021-03-04T01:27:31Z</time>
      </trkpt>
      <trkpt lat="46.85588" lon="-0.92856">
        <ele>154</ele>
        <time>2021-03-04T01:27:46Z</time>
      </trkpt>
      <trkpt lat="46.85562" lon="-0.92872">
        <ele>155</ele>
        <time>2021-03-04T01:27:51Z</time>
      </trkpt>
      <trkpt lat="46.85527" lon="-0.92904">
        <ele>157</ele>
        <time>2021-03-04T01:27:58Z</time>
      </trkpt>
      <trkpt lat="46.85505" lon="-0.9293">
        <ele>158</ele>
        <time>2021-03-04T01:28:03Z</time>
      </trkpt>
      <trkpt lat="46.85484" lon="-0.92967">
        <ele>158</ele>
        <time>2021-03-04T01:28:09Z</time>
      </trkpt>
      <trkpt lat="46.85454" lon="-0.93027">
        <ele>158</ele>
        <time>2021-03-04T01:28:18Z</time>
      </trkpt>
      <trkpt lat="46.85435" lon="-0.9306">
        <ele>156</ele>
        <time>2021-03-04T01:28:23Z</time>
      </trkpt>
      <trkpt lat="46.85425" lon="-0.93075">
        <ele>155</ele>
        <time>2021-03-04T01:28:26Z</time>
      </trkpt>
      <trkpt lat="46.85405" lon="-0.93097">
        <ele>155</ele>
        <time>2021-03-04T01:28:30Z</time>
      </trkpt>
      <trkpt lat="46.85373" lon="-0.93124">
        <ele>156</ele>
        <time>2021-03-04T01:28:37Z</time>
      </trkpt>
      <trkpt lat="46.85233" lon="-0.93215">
        <ele>165</ele>
        <time>2021-03-04T01:29:04Z</time>
      </trkpt>
      <trkpt lat="46.85218" lon="-0.93221">
        <ele>165</ele>
        <time>2021-03-04T01:29:07Z</time>
      </trkpt>
      <trkpt lat="46.85201" lon="-0.93223">
        <ele>166</ele>
        <time>2021-03-04T01:29:10Z</time>
      </trkpt>
      <trkpt lat="46.85183" lon="-0.9322">
        <ele>166</ele>
        <time>2021-03-04T01:29:13Z</time>
      </trkpt>
      <trkpt lat="46.85113" lon="-0.93202">
        <ele>168</ele>
        <time>2021-03-04T01:29:26Z</time>
      </trkpt>
      <trkpt lat="46.85097" lon="-0.93194">
        <ele>169</ele>
        <time>2021-03-04T01:29:29Z</time>
      </trkpt>
      <trkpt lat="46.85071" lon="-0.93173">
        <ele>169</ele>
        <time>2021-03-04T01:29:34Z</time>
      </trkpt>
      <trkpt lat="46.85052" lon="-0.9316">
        <ele>170</ele>
        <time>2021-03-04T01:29:38Z</time>
      </trkpt>
      <trkpt lat="46.85044" lon="-0.93159">
        <ele>170</ele>
        <time>2021-03-04T01:29:39Z</time>
      </trkpt>
      <trkpt lat="46.85032" lon="-0.93162">
        <ele>169</ele>
        <time>2021-03-04T01:29:41Z</time>
      </trkpt>
      <trkpt lat="46.85055" lon="-0.93247">
        <ele>165</ele>
        <time>2021-03-04T01:29:52Z</time>
      </trkpt>
      <trkpt lat="46.85085" lon="-0.93368">
        <ele>162</ele>
        <time>2021-03-04T01:30:08Z</time>
      </trkpt>
      <trkpt lat="46.85115" lon="-0.93521">
        <ele>160</ele>
        <time>2021-03-04T01:30:27Z</time>
      </trkpt>
      <trkpt lat="46.85166" lon="-0.93823">
        <ele>151</ele>
        <time>2021-03-04T01:31:05Z</time>
      </trkpt>
      <trkpt lat="46.85174" lon="-0.93895">
        <ele>148</ele>
        <time>2021-03-04T01:31:14Z</time>
      </trkpt>
      <trkpt lat="46.8518" lon="-0.93973">
        <ele>146</ele>
        <time>2021-03-04T01:31:24Z</time>
      </trkpt>
      <trkpt lat="46.85181" lon="-0.94024">
        <ele>146</ele>
        <time>2021-03-04T01:31:30Z</time>
      </trkpt>
      <trkpt lat="46.85178" lon="-0.94214">
        <ele>144</ele>
        <time>2021-03-04T01:31:53Z</time>
      </trkpt>
      <trkpt lat="46.85174" lon="-0.9428">
        <ele>142</ele>
        <time>2021-03-04T01:32:01Z</time>
      </trkpt>
      <trkpt lat="46.85165" lon="-0.94357">
        <ele>139</ele>
        <time>2021-03-04T01:32:11Z</time>
      </trkpt>
      <trkpt lat="46.85153" lon="-0.94435">
        <ele>137</ele>
        <time>2021-03-04T01:32:20Z</time>
      </trkpt>
      <trkpt lat="46.85134" lon="-0.94539">
        <ele>133</ele>
        <time>2021-03-04T01:32:33Z</time>
      </trkpt>
      <trkpt lat="46.85125" lon="-0.94585">
        <ele>132</ele>
        <time>2021-03-04T01:32:39Z</time>
      </trkpt>
      <trkpt lat="46.85112" lon="-0.94638">
        <ele>131</ele>
        <time>2021-03-04T01:32:46Z</time>
      </trkpt>
      <trkpt lat="46.85079" lon="-0.94748">
        <ele>129</ele>
        <time>2021-03-04T01:33:01Z</time>
      </trkpt>
      <trkpt lat="46.8507" lon="-0.94787">
        <ele>129</ele>
        <time>2021-03-04T01:33:06Z</time>
      </trkpt>
      <trkpt lat="46.85057" lon="-0.94862">
        <ele>128</ele>
        <time>2021-03-04T01:33:15Z</time>
      </trkpt>
      <trkpt lat="46.85052" lon="-0.94908">
        <ele>127</ele>
        <time>2021-03-04T01:33:21Z</time>
      </trkpt>
      <trkpt lat="46.85047" lon="-0.94956">
        <ele>125</ele>
        <time>2021-03-04T01:33:27Z</time>
      </trkpt>
      <trkpt lat="46.85044" lon="-0.95044">
        <ele>122</ele>
        <time>2021-03-04T01:33:37Z</time>
      </trkpt>
      <trkpt lat="46.85046" lon="-0.95081">
        <ele>121</ele>
        <time>2021-03-04T01:33:42Z</time>
      </trkpt>
      <trkpt lat="46.85049" lon="-0.95118">
        <ele>121</ele>
        <time>2021-03-04T01:33:46Z</time>
      </trkpt>
      <trkpt lat="46.85054" lon="-0.95155">
        <ele>121</ele>
        <time>2021-03-04T01:33:51Z</time>
      </trkpt>
      <trkpt lat="46.85062" lon="-0.9519">
        <ele>121</ele>
        <time>2021-03-04T01:33:56Z</time>
      </trkpt>
      <trkpt lat="46.8507" lon="-0.95223">
        <ele>121</ele>
        <time>2021-03-04T01:34:00Z</time>
      </trkpt>
      <trkpt lat="46.85103" lon="-0.95322">
        <ele>120</ele>
        <time>2021-03-04T01:34:13Z</time>
      </trkpt>
      <trkpt lat="46.85131" lon="-0.95388">
        <ele>120</ele>
        <time>2021-03-04T01:34:23Z</time>
      </trkpt>
      <trkpt lat="46.85165" lon="-0.95452">
        <ele>117</ele>
        <time>2021-03-04T01:34:33Z</time>
      </trkpt>
      <trkpt lat="46.85238" lon="-0.95565">
        <ele>110</ele>
        <time>2021-03-04T01:34:51Z</time>
      </trkpt>
      <trkpt lat="46.85289" lon="-0.95626">
        <ele>105</ele>
        <time>2021-03-04T01:35:03Z</time>
      </trkpt>
      <trkpt lat="46.85397" lon="-0.95734">
        <ele>104</ele>
        <time>2021-03-04T01:35:26Z</time>
      </trkpt>
      <trkpt lat="46.85428" lon="-0.95768">
        <ele>106</ele>
        <time>2021-03-04T01:35:33Z</time>
      </trkpt>
      <trkpt lat="46.85455" lon="-0.95802">
        <ele>107</ele>
        <time>2021-03-04T01:35:40Z</time>
      </trkpt>
      <trkpt lat="46.85503" lon="-0.9587">
        <ele>109</ele>
        <time>2021-03-04T01:35:52Z</time>
      </trkpt>
      <trkpt lat="46.85521" lon="-0.95899">
        <ele>108</ele>
        <time>2021-03-04T01:35:56Z</time>
      </trkpt>
      <trkpt lat="46.85593" lon="-0.96019">
        <ele>109</ele>
        <time>2021-03-04T01:36:16Z</time>
      </trkpt>
      <trkpt lat="46.85868" lon="-0.96506">
        <ele>130</ele>
        <time>2021-03-04T01:37:33Z</time>
      </trkpt>
      <trkpt lat="46.86147" lon="-0.96996">
        <ele>137</ele>
        <time>2021-03-04T01:38:50Z</time>
      </trkpt>
      <trkpt lat="46.86221" lon="-0.97131">
        <ele>137</ele>
        <time>2021-03-04T01:39:11Z</time>
      </trkpt>
      <trkpt lat="46.86237" lon="-0.97154">
        <ele>137</ele>
        <time>2021-03-04T01:39:15Z</time>
      </trkpt>
      <trkpt lat="46.86247" lon="-0.97162">
        <ele>137</ele>
        <time>2021-03-04T01:39:17Z</time>
      </trkpt>
      <trkpt lat="46.86261" lon="-0.97164">
        <ele>137</ele>
        <time>2021-03-04T01:39:20Z</time>
      </trkpt>
      <trkpt lat="46.86272" lon="-0.97175">
        <ele>138</ele>
        <time>2021-03-04T01:39:22Z</time>
      </trkpt>
      <trkpt lat="46.86278" lon="-0.97193">
        <ele>138</ele>
        <time>2021-03-04T01:39:25Z</time>
      </trkpt>
      <trkpt lat="46.86278" lon="-0.97207">
        <ele>137</ele>
        <time>2021-03-04T01:39:26Z</time>
      </trkpt>
      <trkpt lat="46.86277" lon="-0.97214">
        <ele>137</ele>
        <time>2021-03-04T01:39:27Z</time>
      </trkpt>
      <trkpt lat="46.86278" lon="-0.97223">
        <ele>137</ele>
        <time>2021-03-04T01:39:28Z</time>
      </trkpt>
      <trkpt lat="46.86281" lon="-0.97233">
        <ele>137</ele>
        <time>2021-03-04T01:39:30Z</time>
      </trkpt>
      <trkpt lat="46.86289" lon="-0.97252">
        <ele>137</ele>
        <time>2021-03-04T01:39:32Z</time>
      </trkpt>
      <trkpt lat="46.863" lon="-0.97267">
        <ele>137</ele>
        <time>2021-03-04T01:39:35Z</time>
      </trkpt>
      <trkpt lat="46.86454" lon="-0.97538">
        <ele>144</ele>
        <time>2021-03-04T01:40:18Z</time>
      </trkpt>
      <trkpt lat="46.86483" lon="-0.97597">
        <ele>147</ele>
        <time>2021-03-04T01:40:27Z</time>
      </trkpt>
      <trkpt lat="46.86513" lon="-0.97669">
        <ele>148</ele>
        <time>2021-03-04T01:40:37Z</time>
      </trkpt>
      <trkpt lat="46.86545" lon="-0.97754">
        <ele>149</ele>
        <time>2021-03-04T01:40:49Z</time>
      </trkpt>
      <trkpt lat="46.86572" lon="-0.97844">
        <ele>151</ele>
        <time>2021-03-04T01:41:01Z</time>
      </trkpt>
      <trkpt lat="46.86596" lon="-0.97947">
        <ele>152</ele>
        <time>2021-03-04T01:41:14Z</time>
      </trkpt>
      <trkpt lat="46.86608" lon="-0.98008">
        <ele>152</ele>
        <time>2021-03-04T01:41:22Z</time>
      </trkpt>
      <trkpt lat="46.86618" lon="-0.98076">
        <ele>151</ele>
        <time>2021-03-04T01:41:30Z</time>
      </trkpt>
      <trkpt lat="46.86624" lon="-0.98135">
        <ele>150</ele>
        <time>2021-03-04T01:41:37Z</time>
      </trkpt>
      <trkpt lat="46.86628" lon="-0.98189">
        <ele>148</ele>
        <time>2021-03-04T01:41:44Z</time>
      </trkpt>
      <trkpt lat="46.86631" lon="-0.98434">
        <ele>145</ele>
        <time>2021-03-04T01:42:14Z</time>
      </trkpt>
      <trkpt lat="46.86623" lon="-0.98433">
        <ele>146</ele>
        <time>2021-03-04T01:42:15Z</time>
      </trkpt>
      <trkpt lat="46.86611" lon="-0.98442">
        <ele>148</ele>
        <time>2021-03-04T01:42:18Z</time>
      </trkpt>
      <trkpt lat="46.86601" lon="-0.98456">
        <ele>149</ele>
        <time>2021-03-04T01:42:20Z</time>
      </trkpt>
      <trkpt lat="46.86563" lon="-0.98597">
        <ele>148</ele>
        <time>2021-03-04T01:42:39Z</time>
      </trkpt>
      <trkpt lat="46.86531" lon="-0.98695">
        <ele>146</ele>
        <time>2021-03-04T01:42:52Z</time>
      </trkpt>
      <trkpt lat="46.86514" lon="-0.98737">
        <ele>145</ele>
        <time>2021-03-04T01:42:58Z</time>
      </trkpt>
      <trkpt lat="46.86448" lon="-0.98872">
        <ele>139</ele>
        <time>2021-03-04T01:43:18Z</time>
      </trkpt>
      <trkpt lat="46.8644" lon="-0.98872">
        <ele>139</ele>
        <time>2021-03-04T01:43:19Z</time>
      </trkpt>
      <trkpt lat="46.86437" lon="-0.98874">
        <ele>138</ele>
        <time>2021-03-04T01:43:20Z</time>
      </trkpt>
      <trkpt lat="46.8638" lon="-0.98991">
        <ele>132</ele>
        <time>2021-03-04T01:43:37Z</time>
      </trkpt>
      <trkpt lat="46.86364" lon="-0.99029">
        <ele>131</ele>
        <time>2021-03-04T01:43:43Z</time>
      </trkpt>
      <trkpt lat="46.86349" lon="-0.99071">
        <ele>130</ele>
        <time>2021-03-04T01:43:49Z</time>
      </trkpt>
      <trkpt lat="46.86335" lon="-0.99116">
        <ele>129</ele>
        <time>2021-03-04T01:43:55Z</time>
      </trkpt>
      <trkpt lat="46.86325" lon="-0.9916">
        <ele>128</ele>
        <time>2021-03-04T01:44:00Z</time>
      </trkpt>
      <trkpt lat="46.86312" lon="-0.99223">
        <ele>126</ele>
        <time>2021-03-04T01:44:08Z</time>
      </trkpt>
      <trkpt lat="46.8622" lon="-0.99703">
        <ele>121</ele>
        <time>2021-03-04T01:45:09Z</time>
      </trkpt>
      <trkpt lat="46.86212" lon="-0.99725">
        <ele>120</ele>
        <time>2021-03-04T01:45:12Z</time>
      </trkpt>
      <trkpt lat="46.86221" lon="-0.99734">
        <ele>120</ele>
        <time>2021-03-04T01:45:14Z</time>
      </trkpt>
      <trkpt lat="46.86212" lon="-0.99771">
        <ele>120</ele>
        <time>2021-03-04T01:45:19Z</time>
      </trkpt>
      <trkpt lat="46.86171" lon="-0.99914">
        <ele>118</ele>
        <time>2021-03-04T01:45:37Z</time>
      </trkpt>
      <trkpt lat="46.86052" lon="-1.00363">
        <ele>115</ele>
        <time>2021-03-04T01:46:36Z</time>
      </trkpt>
      <trkpt lat="46.86041" lon="-1.00409">
        <ele>115</ele>
        <time>2021-03-04T01:46:42Z</time>
      </trkpt>
      <trkpt lat="46.86046" lon="-1.00414">
        <ele>115</ele>
        <time>2021-03-04T01:46:43Z</time>
      </trkpt>
      <trkpt lat="46.86129" lon="-1.0046">
        <ele>116</ele>
        <time>2021-03-04T01:46:59Z</time>
      </trkpt>
      <trkpt lat="46.8617" lon="-1.00489">
        <ele>115</ele>
        <time>2021-03-04T01:47:07Z</time>
      </trkpt>
      <trkpt lat="46.86189" lon="-1.00512">
        <ele>115</ele>
        <time>2021-03-04T01:47:11Z</time>
      </trkpt>
      <trkpt lat="46.86228" lon="-1.00664">
        <ele>117</ele>
        <time>2021-03-04T01:47:31Z</time>
      </trkpt>
      <trkpt lat="46.86234" lon="-1.00681">
        <ele>117</ele>
        <time>2021-03-04T01:47:33Z</time>
      </trkpt>
      <trkpt lat="46.8627" lon="-1.00662">
        <ele>118</ele>
        <time>2021-03-04T01:47:40Z</time>
      </trkpt>
      <trkpt lat="46.86315" lon="-1.00632">
        <ele>119</ele>
        <time>2021-03-04T01:47:49Z</time>
      </trkpt>
      <trkpt lat="46.86335" lon="-1.00614">
        <ele>119</ele>
        <time>2021-03-04T01:47:53Z</time>
      </trkpt>
      <trkpt lat="46.86367" lon="-1.00578">
        <ele>120</ele>
        <time>2021-03-04T01:48:00Z</time>
      </trkpt>
    </trkseg>
  </trk>
</gpx>